[[{"header":{"parameterUnit":"m.s-1","parameterCategory":1,"la1":30.6,"la2":29.2853,"lo1":-89.7004,"lo2":-87.6739,"dy":0.0162,"dx":0.0183,"nx":112,"ny":82,"refTime":"2024-06-05T06:00:00:Z","depth":0,"parameterNumber":2,"parameterNumberName":"U-component_of_WINDS"},"data":[0.0,0.0,0.0,0.0,0.0,0.0,0.0,0.0,0.0,0.0,0.0,0.0,0.0,0.0,0.0,0.0,0.0,0.0,0.0,0.0,0.0,0.0,0.0,0.0,0.0,0.0,0.0,0.0,0.0,0.0,0.0,0.0,0.0,0.0,0.0,0.0,0.0,0.0,0.0,0.0,0.0,0.0,0.0,0.0,0.0,0.0,0.0,0.0,0.0,0.0,0.0,0.0,0.0,0.0,0.0,0.0,0.0,0.0,0.0,0.0,0.0,0.0,0.0,0.0,0.0,0.0,0.0,0.0,0.0,0.0,0.0,0.0,0.0,0.0,0.0,0.0,0.0,0.0,0.0,0.0,0.0,0.0,0.0,0.0,0.0,0.0,0.0,0.0,0.0,0.0,-5.8157,-6.1716,-6.4128,-6.5493,-6.5493,-6.4705,-6.2155,-5.7324,0.0,0.0,0.0,0.0,0.0,0.0,0.0,0.0,0.0,0.0,0.0,0.0,0.0,0.0,0.0,0.0,0.0,0.0,0.0,0.0,0.0,0.0,0.0,0.0,0.0,0.0,0.0,0.0,0.0,0.0,0.0,0.0,0.0,0.0,0.0,0.0,0.0,0.0,0.0,0.0,0.0,0.0,0.0,0.0,0.0,0.0,0.0,0.0,0.0,0.0,0.0,0.0,0.0,0.0,0.0,0.0,0.0,0.0,0.0,0.0,0.0,0.0,0.0,0.0,0.0,0.0,0.0,0.0,0.0,0.0,0.0,0.0,0.0,0.0,0.0,0.0,0.0,0.0,0.0,0.0,0.0,0.0,0.0,0.0,0.0,0.0,0.0,0.0,0.0,0.0,0.0,0.0,0.0,0.0,0.0,0.0,0.0,0.0,0.0,0.0,0.0,0.0,0.0,0.0,-5.7492,-6.1658,-6.3051,-6.3685,-6.3685,-6.2954,-6.091,-5.7232,0.0,0.0,0.0,0.0,0.0,0.0,0.0,0.0,0.0,0.0,0.0,0.0,0.0,0.0,0.0,0.0,0.0,0.0,0.0,0.0,0.0,0.0,0.0,0.0,0.0,0.0,0.0,0.0,0.0,0.0,0.0,0.0,0.0,0.0,0.0,0.0,0.0,0.0,0.0,0.0,0.0,0.0,0.0,0.0,0.0,0.0,0.0,0.0,0.0,0.0,0.0,0.0,0.0,0.0,0.0,0.0,0.0,0.0,0.0,0.0,0.0,0.0,0.0,0.0,0.0,0.0,0.0,0.0,0.0,0.0,0.0,0.0,0.0,0.0,0.0,0.0,0.0,0.0,0.0,0.0,0.0,0.0,0.0,0.0,0.0,0.0,0.0,0.0,0.0,0.0,0.0,0.0,0.0,0.0,0.0,0.0,0.0,0.0,0.0,0.0,0.0,0.0,0.0,-5.6626,-5.8396,-6.1735,-6.282,-6.3128,-6.2685,-6.2312,-6.0342,-5.6231,-5.4291,0.0,0.0,0.0,0.0,0.0,0.0,0.0,0.0,0.0,0.0,0.0,0.0,0.0,0.0,0.0,0.0,0.0,0.0,0.0,0.0,0.0,0.0,0.0,0.0,0.0,0.0,0.0,0.0,0.0,0.0,0.0,0.0,0.0,0.0,0.0,0.0,0.0,0.0,0.0,0.0,0.0,0.0,0.0,0.0,0.0,0.0,0.0,0.0,0.0,0.0,0.0,0.0,0.0,0.0,0.0,0.0,0.0,0.0,0.0,0.0,0.0,0.0,0.0,0.0,0.0,0.0,0.0,0.0,0.0,0.0,0.0,0.0,0.0,0.0,0.0,0.0,0.0,0.0,0.0,0.0,0.0,0.0,0.0,0.0,0.0,0.0,0.0,0.0,0.0,0.0,0.0,0.0,0.0,0.0,0.0,0.0,0.0,0.0,0.0,0.0,0.0,0.0,-5.828,-5.9646,-6.1601,-6.2339,-6.2454,-6.1851,-6.1243,-5.9163,-5.5078,-5.2612,0.0,0.0,0.0,0.0,0.0,0.0,0.0,0.0,0.0,0.0,0.0,0.0,0.0,0.0,0.0,0.0,0.0,0.0,0.0,0.0,0.0,0.0,0.0,0.0,0.0,0.0,0.0,0.0,0.0,0.0,0.0,0.0,0.0,0.0,0.0,0.0,0.0,0.0,0.0,0.0,0.0,0.0,0.0,0.0,0.0,0.0,0.0,0.0,0.0,0.0,0.0,0.0,0.0,0.0,0.0,0.0,0.0,0.0,0.0,0.0,0.0,0.0,0.0,0.0,0.0,0.0,0.0,0.0,0.0,0.0,0.0,0.0,0.0,0.0,0.0,0.0,0.0,0.0,0.0,0.0,0.0,0.0,0.0,0.0,0.0,0.0,0.0,0.0,0.0,0.0,0.0,0.0,0.0,0.0,0.0,0.0,0.0,0.0,0.0,0.0,0.0,0.0,-5.8204,-6.0685,-6.0858,-6.0935,-6.0954,-6.0896,-5.8723,-5.6387,-5.4129,-5.0648,0.0,0.0,0.0,0.0,0.0,0.0,0.0,0.0,0.0,0.0,0.0,0.0,0.0,0.0,0.0,0.0,0.0,0.0,0.0,0.0,0.0,0.0,0.0,0.0,0.0,0.0,0.0,0.0,0.0,0.0,0.0,0.0,0.0,0.0,0.0,0.0,0.0,0.0,0.0,0.0,0.0,0.0,0.0,0.0,0.0,0.0,0.0,0.0,0.0,0.0,0.0,0.0,0.0,0.0,0.0,0.0,0.0,0.0,0.0,0.0,0.0,0.0,0.0,0.0,0.0,0.0,0.0,0.0,0.0,0.0,0.0,0.0,0.0,0.0,0.0,0.0,0.0,0.0,0.0,0.0,0.0,0.0,0.0,0.0,0.0,0.0,0.0,0.0,0.0,0.0,0.0,0.0,0.0,0.0,0.0,0.0,0.0,0.0,0.0,0.0,0.0,0.0,-5.6319,-5.8434,-6.0569,-6.08,-6.08,-6.08,-5.9415,-5.7332,-5.4465,0.0,0.0,0.0,0.0,0.0,0.0,0.0,0.0,0.0,0.0,0.0,0.0,0.0,0.0,0.0,0.0,0.0,0.0,0.0,0.0,0.0,0.0,0.0,0.0,0.0,0.0,0.0,0.0,0.0,0.0,0.0,0.0,0.0,0.0,0.0,0.0,0.0,0.0,0.0,0.0,0.0,0.0,0.0,0.0,0.0,0.0,0.0,0.0,0.0,0.0,0.0,0.0,0.0,0.0,0.0,0.0,0.0,0.0,0.0,0.0,0.0,0.0,0.0,0.0,0.0,0.0,0.0,0.0,0.0,0.0,0.0,0.0,0.0,0.0,0.0,0.0,0.0,0.0,0.0,0.0,0.0,0.0,0.0,0.0,0.0,0.0,0.0,0.0,0.0,0.0,0.0,0.0,0.0,0.0,0.0,0.0,0.0,0.0,0.0,0.0,0.0,0.0,-5.3664,-5.5742,-5.7915,-6.0512,-6.08,-6.0685,-6.0416,-5.8877,-5.6703,-5.3857,0.0,0.0,0.0,0.0,0.0,0.0,0.0,0.0,0.0,0.0,0.0,0.0,0.0,0.0,0.0,0.0,0.0,0.0,0.0,0.0,0.0,0.0,0.0,0.0,0.0,0.0,0.0,0.0,0.0,0.0,0.0,0.0,0.0,0.0,0.0,0.0,0.0,0.0,0.0,0.0,0.0,0.0,0.0,0.0,0.0,0.0,0.0,0.0,0.0,0.0,0.0,0.0,0.0,0.0,0.0,0.0,0.0,0.0,0.0,0.0,0.0,0.0,0.0,0.0,0.0,0.0,0.0,0.0,0.0,0.0,0.0,0.0,0.0,0.0,0.0,0.0,0.0,0.0,0.0,0.0,0.0,0.0,0.0,0.0,0.0,0.0,0.0,0.0,0.0,0.0,0.0,0.0,0.0,0.0,0.0,0.0,0.0,0.0,0.0,0.0,0.0,0.0,-5.3068,-5.6857,-5.9819,-6.0685,-6.0762,-6.0416,-5.9569,-5.6434,-5.378,0.0,0.0,0.0,0.0,0.0,0.0,0.0,0.0,0.0,0.0,0.0,0.0,0.0,0.0,0.0,0.0,0.0,0.0,0.0,0.0,0.0,0.0,0.0,0.0,0.0,0.0,0.0,0.0,0.0,0.0,0.0,0.0,0.0,0.0,0.0,0.0,0.0,0.0,0.0,0.0,0.0,0.0,0.0,0.0,0.0,0.0,0.0,0.0,0.0,0.0,0.0,0.0,0.0,0.0,0.0,0.0,0.0,0.0,0.0,0.0,0.0,0.0,0.0,0.0,0.0,0.0,0.0,0.0,0.0,0.0,0.0,0.0,0.0,0.0,0.0,0.0,0.0,0.0,0.0,0.0,0.0,0.0,0.0,0.0,0.0,0.0,0.0,0.0,0.0,0.0,0.0,0.0,0.0,0.0,0.0,0.0,0.0,0.0,0.0,0.0,0.0,0.0,0.0,-5.2173,-5.5472,-5.8069,-5.8934,-5.905,-5.8934,-5.8684,-5.6626,-5.4357,-5.2038,0.0,0.0,0.0,0.0,0.0,0.0,0.0,0.0,0.0,0.0,0.0,0.0,0.0,0.0,0.0,0.0,0.0,0.0,0.0,0.0,0.0,0.0,0.0,0.0,0.0,0.0,0.0,0.0,0.0,0.0,0.0,0.0,0.0,0.0,0.0,0.0,0.0,0.0,0.0,0.0,0.0,0.0,0.0,0.0,0.0,0.0,0.0,0.0,0.0,0.0,0.0,0.0,0.0,0.0,0.0,0.0,0.0,0.0,0.0,0.0,0.0,0.0,0.0,0.0,0.0,0.0,0.0,0.0,0.0,0.0,0.0,0.0,0.0,0.0,0.0,0.0,0.0,0.0,0.0,0.0,0.0,0.0,0.0,0.0,0.0,0.0,0.0,0.0,0.0,0.0,0.0,0.0,0.0,0.0,0.0,0.0,0.0,0.0,0.0,0.0,0.0,0.0,-5.175,-5.4587,-5.6953,-5.8165,-5.83,-5.8165,-5.7819,-5.6203,-5.4126,-5.1587,0.0,0.0,0.0,0.0,0.0,0.0,0.0,0.0,0.0,0.0,0.0,0.0,0.0,0.0,0.0,0.0,0.0,0.0,0.0,0.0,0.0,0.0,0.0,0.0,0.0,0.0,0.0,0.0,0.0,0.0,0.0,0.0,0.0,0.0,0.0,0.0,0.0,0.0,0.0,0.0,0.0,0.0,0.0,0.0,0.0,0.0,0.0,0.0,0.0,0.0,0.0,0.0,0.0,0.0,0.0,0.0,0.0,0.0,0.0,0.0,0.0,0.0,0.0,0.0,0.0,0.0,0.0,0.0,0.0,0.0,0.0,0.0,0.0,0.0,0.0,0.0,0.0,0.0,0.0,0.0,0.0,0.0,0.0,0.0,0.0,0.0,0.0,0.0,0.0,0.0,0.0,0.0,0.0,0.0,0.0,0.0,0.0,0.0,0.0,0.0,0.0,0.0,-5.1577,-5.401,-5.6222,-5.7877,-5.8069,-5.7742,-5.6945,-5.5338,-5.3318,-5.0866,0.0,0.0,0.0,0.0,0.0,0.0,0.0,0.0,0.0,0.0,0.0,0.0,0.0,0.0,0.0,0.0,0.0,0.0,0.0,0.0,0.0,0.0,0.0,0.0,0.0,0.0,0.0,0.0,0.0,0.0,0.0,0.0,0.0,0.0,0.0,0.0,0.0,0.0,0.0,0.0,0.0,0.0,0.0,0.0,0.0,0.0,0.0,0.0,0.0,0.0,0.0,0.0,0.0,0.0,0.0,0.0,0.0,0.0,0.0,0.0,-5.453,0.0,0.0,0.0,0.0,0.0,0.0,0.0,0.0,0.0,0.0,0.0,0.0,0.0,0.0,0.0,0.0,0.0,0.0,0.0,0.0,0.0,0.0,0.0,0.0,0.0,0.0,0.0,0.0,0.0,0.0,0.0,0.0,0.0,0.0,0.0,0.0,0.0,0.0,0.0,0.0,0.0,-5.0818,-5.3183,-5.5145,-5.6145,-5.6242,-5.6184,-5.5992,-5.4434,-5.2683,-5.0827,-4.8317,0.0,0.0,0.0,0.0,0.0,0.0,0.0,0.0,0.0,0.0,0.0,0.0,0.0,0.0,0.0,0.0,0.0,0.0,0.0,0.0,0.0,0.0,0.0,0.0,0.0,0.0,0.0,0.0,0.0,0.0,0.0,0.0,0.0,0.0,0.0,0.0,0.0,0.0,0.0,0.0,0.0,0.0,0.0,0.0,0.0,0.0,0.0,0.0,0.0,0.0,0.0,0.0,0.0,0.0,0.0,0.0,0.0,0.0,0.0,0.0,-5.5684,0.0,0.0,0.0,0.0,0.0,0.0,0.0,0.0,0.0,0.0,0.0,0.0,0.0,0.0,0.0,0.0,0.0,0.0,0.0,0.0,0.0,0.0,0.0,0.0,0.0,0.0,0.0,0.0,0.0,0.0,0.0,0.0,0.0,0.0,0.0,0.0,0.0,0.0,0.0,0.0,-5.0539,-5.2549,-5.4337,-5.5568,-5.5338,-5.5126,-5.5126,-5.3568,-5.2049,-5.0789,-4.8317,0.0,0.0,0.0,0.0,0.0,0.0,0.0,0.0,0.0,0.0,0.0,0.0,0.0,0.0,0.0,0.0,0.0,0.0,0.0,0.0,0.0,0.0,0.0,0.0,0.0,0.0,0.0,0.0,0.0,0.0,0.0,0.0,0.0,0.0,0.0,0.0,0.0,0.0,0.0,0.0,0.0,0.0,0.0,0.0,0.0,0.0,0.0,0.0,0.0,0.0,0.0,0.0,0.0,-6.0165,-6.055,-6.1204,-6.0492,-6.0165,-6.0089,-5.8704,-5.8184,-5.8184,0.0,0.0,0.0,0.0,0.0,0.0,0.0,0.0,0.0,0.0,0.0,0.0,0.0,0.0,0.0,0.0,0.0,0.0,0.0,0.0,0.0,0.0,0.0,0.0,0.0,-5.2414,-5.2856,0.0,0.0,0.0,0.0,0.0,0.0,0.0,0.0,0.0,0.0,0.0,0.0,-5.0269,-5.1933,-5.3568,-5.5107,-5.4664,-5.426,-5.426,-5.2818,-5.1568,-5.075,-4.8432,-4.6721,0.0,0.0,0.0,0.0,0.0,0.0,0.0,0.0,0.0,0.0,0.0,0.0,0.0,0.0,0.0,0.0,0.0,0.0,0.0,0.0,0.0,0.0,0.0,0.0,0.0,0.0,0.0,0.0,0.0,0.0,0.0,0.0,-5.6367,-5.7578,0.0,0.0,0.0,0.0,0.0,0.0,0.0,0.0,0.0,0.0,0.0,0.0,0.0,-6.218,-6.2647,-6.2647,-6.2692,-6.2788,-6.2788,-6.2846,-6.2974,-6.2846,-6.2788,-6.2788,-6.257,0.0,-5.828,-5.805,0.0,0.0,0.0,0.0,0.0,0.0,0.0,0.0,0.0,0.0,0.0,0.0,0.0,0.0,0.0,0.0,0.0,0.0,0.0,0.0,0.0,0.0,-5.4991,-5.4184,-5.4164,-5.4241,0.0,-5.2087,-5.025,-4.926,0.0,0.0,0.0,0.0,0.0,0.0,0.0,0.0,-4.9433,-5.1029,-5.2442,-5.3433,-5.3433,-5.3376,-5.3376,-5.2462,-5.1568,-5.075,-4.8952,-4.7586,-4.6759,-4.5163,0.0,0.0,0.0,0.0,0.0,0.0,0.0,0.0,0.0,0.0,0.0,0.0,0.0,0.0,0.0,0.0,0.0,0.0,0.0,0.0,0.0,0.0,0.0,0.0,0.0,0.0,0.0,0.0,0.0,-5.6875,-5.8887,-5.9258,-6.0078,-6.0254,0.0,0.0,0.0,0.0,0.0,0.0,0.0,0.0,0.0,-6.4085,-6.4241,-6.4459,-6.4762,-6.4282,-6.4282,-6.4762,-6.4262,-6.4301,-6.4743,-6.4262,-6.4032,-6.3974,-6.3031,-6.1781,-6.0396,-5.9915,-5.8704,-5.7088,0.0,0.0,0.0,0.0,0.0,-5.4761,-5.5818,0.0,0.0,0.0,0.0,0.0,0.0,0.0,0.0,0.0,0.0,0.0,0.0,0.0,0.0,-5.5145,-5.5164,-5.5164,-5.5164,-5.4299,-5.2972,0.0,-5.05,-4.9673,-4.7894,0.0,0.0,0.0,0.0,-4.9144,-5.001,-5.1164,-5.2231,-5.3106,-5.275,-5.2462,-5.2462,-5.1722,-5.0875,-5.001,-4.8798,-4.774,-4.6923,-4.5701,-4.4488,0.0,0.0,0.0,0.0,0.0,0.0,0.0,0.0,0.0,0.0,0.0,0.0,0.0,0.0,0.0,0.0,0.0,0.0,0.0,0.0,0.0,0.0,0.0,0.0,0.0,0.0,0.0,0.0,-5.9121,-6.0723,-6.0723,-6.1699,-6.1933,0.0,0.0,0.0,0.0,0.0,0.0,-6.478,-6.4816,-6.5343,-6.6623,-6.6585,-6.6532,-6.6532,-6.5897,-6.5782,-6.6205,-6.5551,-6.5474,-6.5878,-6.5224,-6.4936,-6.4859,-6.3378,-6.2608,-6.232,-6.1243,-5.9935,-5.855,-5.7896,-5.7107,-5.6434,-5.7088,-5.7049,-5.6915,-5.8607,-5.8511,-5.7541,-5.6876,0.0,-5.4376,-5.2029,0.0,0.0,0.0,0.0,-5.2914,-5.4414,0.0,-5.4953,-5.5549,-5.5703,-5.5703,-5.5703,-5.5703,-5.5088,0.0,-5.2385,-5.1481,-4.9163,0.0,0.0,0.0,0.0,-4.9625,-5.0289,-5.1087,-5.1837,-5.2491,-5.1991,-5.1587,-5.1587,-5.0837,-5.0087,-4.9433,-4.8394,-4.7528,-4.6923,-4.6067,-4.5091,-4.4019,0.0,0.0,0.0,0.0,0.0,0.0,0.0,0.0,0.0,0.0,0.0,0.0,0.0,0.0,0.0,0.0,0.0,0.0,0.0,0.0,0.0,0.0,0.0,0.0,0.0,0.0,0.0,0.0,0.0,-6.1621,-6.3125,0.0,0.0,0.0,0.0,-6.4101,-6.4863,-6.5678,-6.6444,-6.7066,-6.7398,-6.7358,-6.7945,-6.8282,-6.8282,-6.8231,-6.7821,-6.7032,-6.6994,-6.659,-6.5897,-6.584,-6.582,-6.5782,-6.4878,-6.3993,-6.3108,-6.1473,-6.0262,-5.9435,-5.9396,-5.8877,-5.8165,-5.8223,-5.8684,-5.9223,-5.8588,-5.8819,-5.9377,-5.9319,-5.7646,-5.5318,-5.3606,-5.251,0.0,0.0,-5.3722,-5.4568,-5.5415,-5.5645,-5.5645,-5.5684,-5.5703,-5.5703,-5.5703,-5.5703,-5.5434,0.0,-5.3703,-5.2587,-5.0866,0.0,-4.9048,-4.8163,-4.8817,-4.9413,-4.9452,-5.0221,-5.0789,-5.0827,-5.0789,-5.077,-5.077,-4.9952,-4.9452,-4.9394,-4.7875,-4.6942,-4.6904,-4.6067,-4.5182,-4.4299,-4.4241,0.0,0.0,0.0,0.0,0.0,0.0,0.0,0.0,0.0,0.0,0.0,0.0,0.0,0.0,0.0,0.0,0.0,0.0,0.0,0.0,0.0,0.0,0.0,0.0,0.0,0.0,0.0,0.0,-6.414,-6.5742,0.0,-6.5156,-6.5605,-6.6211,-6.6777,-6.7109,-6.7807,-6.9036,-6.9209,-6.9457,-6.9836,-6.995,-7.0014,-7.0014,-6.9494,-6.8802,-6.7936,-6.7359,-6.6667,-6.5897,-6.5897,-6.5897,-6.582,-6.4397,-6.3589,-6.3166,-6.1493,-6.0608,-6.0339,-6.0339,-6.0165,-5.9915,-5.9915,-6.0089,-6.03,-6.0012,-6.0108,-6.0242,-5.9685,-5.855,-5.7165,-5.5992,-5.5434,-5.5126,-5.4876,-5.503,-5.5338,-5.5626,-5.5703,-5.5703,-5.5703,-5.5703,-5.5703,-5.5703,-5.5703,-5.5607,-5.5318,-5.4607,-5.3491,-5.1779,-5.1221,-5.0548,-4.9144,-4.9683,-5.025,-5.025,-5.0519,-5.0712,-5.0712,-5.0712,-5.0481,-4.9913,-4.9586,-4.8933,-4.7855,-4.724,-4.6644,-4.6086,-4.5768,-4.546,-4.5152,-4.4586,-4.3282,0.0,0.0,0.0,0.0,0.0,0.0,0.0,0.0,0.0,0.0,0.0,0.0,0.0,0.0,0.0,0.0,0.0,0.0,0.0,0.0,0.0,0.0,0.0,0.0,0.0,-6.3887,-6.539,-6.5976,-6.7578,-6.8301,-6.7422,-6.7598,-6.8125,-6.8984,-6.9043,-6.9579,-7.0765,-7.0699,-7.0785,-7.1081,-7.096,-7.0898,-7.0898,-7.0379,-6.9533,-6.8385,-6.7802,-6.6955,-6.5897,-6.5897,-6.5897,-6.5801,-6.407,-6.3288,-6.3166,-6.1493,-6.08,-6.08,-6.08,-6.08,-6.08,-6.08,-6.08,-6.08,-6.08,-6.08,-6.0666,-5.9781,-5.9146,-5.8492,-5.7349,-5.7003,-5.683,-5.5953,-5.5703,-5.5703,-5.5703,-5.5703,-5.5703,-5.5703,-5.5703,-5.5703,-5.5703,-5.5703,-5.5703,-5.5703,-5.5261,-5.4357,-5.2635,-5.2327,-5.1779,-5.0087,-5.0327,-5.0712,-5.0712,-5.0712,-5.0712,-5.0712,-5.0712,-5.0346,-4.9471,-4.9125,-4.8375,-4.6981,-4.6624,-4.6201,-4.5614,-4.5594,-4.555,-4.5429,-4.4297,-4.322,-4.2231,0.0,0.0,0.0,0.0,0.0,0.0,0.0,0.0,0.0,0.0,0.0,0.0,0.0,0.0,0.0,0.0,0.0,0.0,0.0,0.0,0.0,0.0,0.0,-6.3008,-6.5332,-6.6953,-6.7012,-6.8535,-6.9258,-6.8398,-6.9101,-6.9941,-7.0722,-7.0801,-7.103,-7.1498,-7.1536,-7.1346,-7.0906,-7.0898,-7.0898,-7.0898,-7.0898,-7.0071,-6.8385,-6.8385,-6.7513,-6.5897,-6.5897,-6.5897,-6.5801,-6.407,-6.3288,-6.3166,-6.1493,-6.08,-6.08,-6.08,-6.08,-6.08,-6.08,-6.08,-6.08,-6.08,-6.08,-6.0666,-5.9819,-5.955,-5.9223,-5.7561,-5.7041,-5.6849,-5.5953,-5.5703,-5.5703,-5.5703,-5.5703,-5.5703,-5.5703,-5.5703,-5.5703,-5.5703,-5.5703,-5.5703,-5.5703,-5.5684,-5.5145,-5.3491,-5.3203,-5.2626,-5.0962,-5.0712,0.0,-5.0712,-5.0712,-5.0712,-5.0712,-5.0712,-5.0346,-4.9433,-4.8586,-4.7759,-4.6904,-4.6067,-4.5594,-4.5594,-4.5594,-4.5438,-4.5118,-4.3418,-4.2747,-4.3104,0.0,0.0,0.0,0.0,0.0,0.0,0.0,0.0,0.0,0.0,0.0,0.0,0.0,0.0,0.0,0.0,0.0,0.0,0.0,0.0,0.0,-6.3515,-6.5547,-6.5781,-6.6992,-6.8281,-6.9512,-7.0644,-7.1211,-7.0976,-7.1738,-7.2344,-7.2578,-7.3164,-7.3219,-7.2478,-7.2438,-7.1976,-7.0925,-7.0898,-7.0898,-7.0898,-7.0898,-7.0071,-6.8385,-6.8385,-6.7513,-6.5897,-6.5897,-6.5897,-6.5801,-6.407,-6.3288,-6.3166,-6.1493,-6.08,-6.08,-6.08,-6.08,-6.08,-6.08,-6.08,-6.08,-6.08,-6.08,-6.0762,-6.0512,-6.0435,-6.0127,-5.8454,-5.7934,-5.7627,-5.6126,-5.5703,-5.5703,-5.5703,-5.5703,-5.5703,-5.5703,-5.5703,-5.5703,-5.5703,-5.5703,-5.5703,-5.5703,-5.5222,-5.4472,-5.3395,-5.3203,-5.2626,-5.0962,-5.0712,0.0,-5.0712,-5.0712,-5.0712,-5.0712,-5.0712,-5.0087,-4.8586,-4.824,-4.749,-4.6047,-4.5729,-4.5594,-4.5594,-4.5594,-4.5559,-4.5457,-4.4373,-4.3583,0.0,0.0,0.0,0.0,0.0,0.0,0.0,0.0,0.0,0.0,0.0,0.0,0.0,0.0,0.0,0.0,0.0,0.0,0.0,0.0,0.0,0.0,-6.5269,-6.7155,-6.825,-6.8836,-6.9656,-7.0964,-7.157,-7.2044,-7.25,-7.3008,-7.3457,-7.3828,-7.4316,-7.4215,-7.3354,-7.299,-7.2383,-7.1464,-7.1091,-7.0898,-7.0898,-7.0898,-7.0071,-6.8385,-6.8385,-6.7513,-6.5897,-6.5897,-6.5897,0.0,-6.407,-6.3288,-6.3166,-6.1493,-6.08,0.0,0.0,0.0,0.0,0.0,-6.08,-6.08,-6.08,-6.08,-6.08,-6.08,-6.08,-6.0492,-5.8819,-5.83,-5.7934,-5.6184,-5.5703,-5.5703,-5.5703,-5.5703,-5.5703,-5.5703,-5.5703,-5.5703,-5.5703,-5.5434,-5.5203,-5.5203,0.0,0.0,-5.2818,-5.2654,-5.2222,-5.0904,-5.0712,-5.0712,-5.0712,-5.0712,-5.0712,-5.0712,-5.0712,-5.0144,-4.8759,-4.8317,0.0,0.0,0.0,-4.5594,-4.5594,-4.5476,0.0,0.0,0.0,0.0,0.0,0.0,0.0,0.0,-4.3142,-4.3361,0.0,0.0,0.0,0.0,0.0,0.0,0.0,0.0,0.0,0.0,0.0,0.0,0.0,0.0,0.0,0.0,-6.6457,-6.7832,-7.0114,-7.0524,-7.0864,-7.1611,-7.1689,-7.2073,-7.3066,-7.332,-7.3769,-7.4531,-7.4785,-7.4664,-7.4171,0.0,0.0,0.0,0.0,-7.0898,-7.0898,-7.0898,-7.0071,-6.8385,-6.8385,-6.7513,-6.5897,-6.5897,-6.5897,-6.5801,-6.407,-6.3288,-6.3166,-6.1493,-6.08,-6.08,-6.08,-6.08,-6.08,-6.08,-6.08,0.0,0.0,0.0,0.0,-6.08,-6.0723,-6.0358,-5.8781,-5.8223,-5.7819,-5.6165,-5.5703,-5.5703,-5.5703,-5.5703,-5.5703,-5.5703,-5.5703,-5.5703,-5.5703,-5.5068,-5.4491,-5.4491,-5.3722,-5.2818,-5.2019,-5.1904,-5.1625,-5.0827,-5.0712,0.0,-5.0712,-5.0712,-5.0712,-5.0712,0.0,0.0,-4.9336,-4.8548,-4.7721,-4.6817,-4.6028,-4.5594,-4.5594,-4.5312,-4.5302,-4.5586,-4.5312,-4.5312,-4.5594,-4.5594,-4.5652,-4.572,-4.4719,-4.4767,0.0,0.0,0.0,0.0,0.0,0.0,0.0,0.0,0.0,0.0,0.0,0.0,0.0,0.0,0.0,-6.6212,-6.8281,-6.9811,-6.9991,-7.0619,-7.1225,-7.1652,-7.1689,-7.1858,-7.2226,-7.3515,-7.4414,-7.459,-7.5898,-7.6206,-7.5112,-7.4235,0.0,-7.2234,-7.1341,-7.0898,-7.0898,-7.0898,-7.0071,-6.8385,0.0,0.0,-6.5897,-6.5897,-6.5897,-6.5801,-6.407,-6.3288,-6.3166,-6.1493,-6.08,-6.08,-6.08,-6.08,-6.08,-6.08,-6.08,-6.08,-6.08,-6.08,-6.08,-6.08,-6.0319,-5.9569,-5.8607,-5.7819,0.0,-5.5992,-5.5703,-5.5703,-5.5703,-5.5703,-5.5703,-5.5703,-5.5703,-5.5703,-5.5703,-5.5068,-5.4491,-5.4491,-5.3241,-5.2096,-5.1923,-5.1904,-5.1625,-5.0827,-5.0712,-5.0712,-5.0712,-5.0712,-5.0712,-5.0712,-5.0712,-5.0048,-4.849,-4.8202,-4.7451,-4.5951,-4.5691,-4.5594,-4.5594,-4.555,-4.5522,-4.5594,-4.555,-4.555,-4.5594,-4.5594,-4.5951,-4.6644,-4.6425,-4.6444,0.0,0.0,0.0,0.0,0.0,0.0,0.0,0.0,0.0,0.0,0.0,-6.188,-6.3633,0.0,-6.7146,-6.8368,-6.9551,-7.0408,-7.0525,-7.0841,-7.1202,-7.1572,-7.1604,-7.189,-7.2577,-7.3437,-7.4316,-7.5176,-7.6055,-7.6363,-7.5962,-7.4709,-7.3654,-7.2869,-7.1572,-7.0898,-7.0898,-7.0494,-6.9667,-6.8385,-6.7955,-6.7109,-6.5897,-6.5897,-6.5647,-6.5186,-6.3878,-6.307,-6.2589,-6.132,-6.08,-6.08,-6.08,-6.08,-6.08,-6.08,-6.08,-6.08,-6.08,-6.08,-6.08,-6.08,-6.0204,-5.9358,-5.855,-5.7684,-5.683,-5.5953,-5.5703,-5.5703,-5.5703,-5.5703,-5.5703,-5.5703,-5.5703,-5.5703,-5.5703,-5.4722,-5.3857,-5.3857,-5.2472,-5.1298,-5.1298,-5.1298,-5.1164,-5.077,-5.0712,-5.0712,-5.0712,-5.0712,-5.0712,-5.0712,-5.0308,-4.9702,-4.8817,-4.799,-4.6951,-4.5691,-4.5594,-4.5594,-4.5594,-4.5594,-4.5594,-4.5594,-4.5594,-4.5594,-4.5594,-4.5429,-4.587,-4.6904,-4.7136,-4.7568,0.0,0.0,0.0,0.0,0.0,0.0,0.0,-5.8648,-5.9417,-6.1109,-6.2942,-6.468,-6.6075,-6.7467,-6.8841,-7.0228,-7.0474,-7.0666,-7.1193,-7.1123,-7.1148,-7.1498,-7.1524,-7.1901,-7.2948,-7.3203,-7.3887,-7.5293,-7.5703,-7.5976,-7.6144,-7.4781,-7.3788,-7.333,-7.1747,-7.0898,-7.0898,-7.011,-6.9263,-6.8385,-6.7513,-6.6667,-6.5897,-6.5897,-6.5416,-6.4551,-6.3512,-6.2589,-6.1793,-6.1089,-6.08,-6.08,-6.08,-6.08,-6.08,-6.08,-6.08,-6.08,-6.08,-6.08,-6.08,-6.08,-6.0108,-5.9146,-5.8511,-5.7569,-5.6599,-5.5895,-5.5703,-5.5703,-5.5703,-5.5703,-5.5703,-5.5703,-5.5703,-5.5665,-5.5491,-5.428,-5.3145,-5.2991,-5.1722,-5.0712,-5.0712,-5.0712,-5.0712,-5.0712,-5.0712,-5.0712,-5.0712,-5.0712,-5.0712,-5.0712,-4.9913,-4.926,-4.8933,-4.7528,-4.6355,-4.5633,-4.5594,-4.5594,-4.5594,-4.5594,-4.5594,-4.5594,-4.5594,-4.5568,-4.5504,-4.5232,-4.5672,-4.6801,-4.7346,-4.826,-5.4008,-5.4782,-5.569,-5.6654,-5.6894,-5.77,0.0,-6.1042,-6.102,-6.2702,-6.4528,-6.5895,-6.6097,-6.8376,-7.0214,-7.0234,-7.0965,-7.1516,-7.1478,-7.1447,-7.1498,-7.1659,-7.1572,-7.1668,-7.2108,-7.2851,-7.3379,-7.3574,-7.5039,-7.552,-7.4617,-7.4202,-7.3573,-7.265,-7.1499,-7.0898,-7.0898,-7.011,-6.9263,-6.8385,-6.7513,-6.6667,-6.5897,-6.5897,-6.5416,-6.4512,-6.2916,-6.1755,-6.0935,-6.0839,-6.08,-6.08,-6.08,-6.08,-6.08,-6.08,-6.08,-6.08,-6.08,-6.08,-6.08,-6.08,-5.9723,-5.8415,-5.8338,-5.7146,-5.5818,-5.5722,-5.5703,-5.5703,-5.5703,-5.5703,-5.5703,-5.5703,-5.5703,-5.5491,-5.478,-5.3876,-5.2972,-5.2192,-5.1318,-5.0712,-5.0712,-5.0712,-5.0712,-5.0712,-5.0712,-5.0712,-5.0712,-5.0712,-5.0712,-5.0712,-4.9913,-4.8798,-4.7317,-4.6297,-4.571,-4.5614,-4.5594,-4.5594,-4.5594,-4.5594,-4.5594,-4.5594,-4.5594,-4.5448,-4.5169,-4.5107,-4.5538,-4.6391,-4.722,-4.826,-5.6201,-5.699,-5.753,-5.8877,-5.9204,-5.9638,-6.1266,-6.1729,-6.2094,-6.3001,-6.4577,-6.6069,-6.6981,-6.8577,-7.0173,-7.1498,-7.1637,-7.1733,-7.2186,-7.1815,-7.1549,-7.1679,-7.1651,-7.1721,-7.1972,-7.2324,-7.2754,-7.3262,-7.3984,-7.4368,-7.4304,-7.3662,-7.3056,-7.2519,-7.1467,-7.0898,-7.0898,-6.961,-6.8763,-6.8365,-6.7032,-6.6224,-6.5897,-6.5897,-6.5147,-6.3762,-6.207,-6.1127,-6.08,-6.08,-6.08,-6.08,-6.08,-6.08,-6.08,-6.08,-6.08,-6.08,-6.08,-6.08,-6.08,-6.08,-5.9665,-5.83,-5.83,-5.7088,-5.5703,-5.5703,-5.5703,-5.5703,-5.5703,-5.5703,-5.5703,-5.5703,-5.5703,-5.5472,-5.4664,-5.3818,-5.2953,-5.2077,-5.1241,-5.0712,-5.0712,-5.0712,-5.0712,-5.0712,-5.0712,-5.0712,-5.0712,-5.0712,-5.0519,-4.999,-4.9163,-4.8163,-4.7,-4.6105,-4.5594,-4.5594,-4.5594,-4.5594,-4.5594,-4.5594,-4.5594,-4.5594,-4.541,-4.5232,-4.5096,-4.4663,-4.5351,-4.7064,-4.7231,-4.8323,-5.739,-5.8212,-5.8717,-5.9957,-6.0335,-6.0535,-6.1012,-6.1806,-6.2544,-6.2991,-6.4426,-6.5988,-6.7242,-6.8429,-6.9888,-7.2018,-7.211,-7.2129,-7.2763,-7.2359,-7.1939,-7.1795,-7.178,-7.1836,-7.1992,-7.1992,-7.2265,-7.289,-7.3164,-7.3414,-7.3654,-7.3119,-7.2625,-7.224,-7.1362,-7.0783,-7.0571,-6.9129,-6.8282,-6.8013,-6.659,-6.5897,-6.5878,-6.5397,-6.4493,-6.3224,-6.1531,-6.08,-6.08,-6.08,-6.08,-6.08,-6.08,-6.08,-6.08,-6.08,-6.08,-6.08,-6.08,-6.08,-6.08,-6.08,-5.9665,-5.83,-5.83,-5.7088,-5.5703,-5.5703,-5.5703,-5.5703,-5.5703,-5.5703,-5.5703,-5.5703,-5.5703,-5.5415,-5.4376,-5.3645,-5.2876,-5.1779,-5.1106,-5.0712,-5.0712,-5.0712,-5.0712,-5.0712,-5.0712,-5.0712,-5.0712,-5.0712,-5.0366,-4.949,-4.8836,-4.8125,-4.7288,-4.6451,-4.5951,-4.5951,-4.5729,-4.5594,-4.5594,-4.5594,-4.5559,-4.5457,-4.5222,-4.5,-4.4806,-4.4468,-4.5242,-4.6954,-4.7286,-4.8422,-5.7204,-5.7981,-5.8787,-5.8845,-5.915,-5.9668,-6.0517,-6.133,-6.2143,-6.2935,-6.4426,-6.5765,-6.6347,-6.7947,-6.9649,-7.1037,-7.2218,-7.2964,-7.2981,-7.3135,-7.2929,-7.209,-7.1992,-7.1992,0.0,-7.1992,-7.2012,-7.2031,-7.2812,-7.2949,-7.2109,-7.2524,-7.2419,-7.1549,-7.112,-7.0533,-6.9744,-6.8859,-6.7975,-6.7128,-6.6301,-6.5897,-6.584,-6.4147,-6.3346,-6.3224,-6.1531,-6.08,-6.08,-6.08,-6.08,-6.08,-6.08,-6.08,-6.08,-6.08,-6.08,-6.08,-6.08,-6.08,-6.08,-6.08,-5.9665,-5.83,-5.83,-5.7088,-5.5703,-5.5703,-5.5703,-5.5703,-5.5703,-5.5703,-5.5703,-5.5703,-5.5703,-5.5241,-5.3606,-5.3222,-5.2702,-5.1058,-5.0731,-5.0712,-5.0712,-5.0712,-5.0712,-5.0712,-5.0712,-5.0712,-5.0712,-5.0712,-5.0366,-4.949,-4.9375,-4.9009,-4.8144,-4.7317,-4.6846,-4.6846,-4.6067,-4.5594,-4.5594,-4.5594,-4.5438,-4.5118,-4.5096,-4.4738,-4.4046,-4.4799,-4.5208,-4.5314,-4.7325,-4.8477,-5.7442,-5.8112,-5.8868,-5.9124,-5.9301,-5.9528,-6.0039,-5.9998,-5.9967,-6.047,-6.1024,-6.19,-6.3519,-6.5502,-6.7713,-7.0317,-7.1814,-7.2742,-7.2978,-7.3565,-7.3477,-7.2168,-7.2392,0.0,0.0,0.0,0.0,-7.1992,-7.2265,-7.2305,-7.2012,-7.1959,-7.1796,-7.1497,-7.1112,-7.0514,-6.9706,-6.884,-6.7955,-6.709,-6.6282,-6.559,-6.4993,-6.3839,-6.3012,-6.2435,-6.13,-6.08,-6.08,-6.08,-6.08,-6.08,-6.08,-6.08,-6.08,-6.08,-6.08,-6.08,-6.08,-6.08,-6.08,-6.08,-5.9665,-5.83,-5.83,-5.7088,-5.5703,-5.5703,-5.5703,-5.5703,-5.5703,-5.5703,-5.5703,-5.5703,-5.5703,-5.5241,-5.3568,-5.3203,-5.2702,-5.1039,-5.0712,-5.0712,-5.0712,-5.0712,-5.0712,-5.0712,-5.0712,-5.0712,-5.0712,-5.0712,-5.0596,-5.0289,-4.974,-4.9279,-4.899,-4.8182,-4.7702,-4.7702,-4.6913,-4.6471,-4.6471,-4.5913,-4.5438,-4.5107,-4.4884,-4.4508,-4.4001,-4.457,-4.5417,-4.6483,-4.7735,-4.8929,-5.793,-5.82,-5.8434,-5.9005,-5.9028,-5.8965,-5.9173,-5.9079,-5.8998,-5.9226,-5.9488,-6.0211,-6.1978,-6.3641,-6.5849,-6.9215,-7.1027,-7.2344,-7.3222,-7.3891,-7.3816,-7.2508,-7.2734,-7.2631,-7.1716,0.0,0.0,-7.1839,-7.1877,-7.1861,-7.1822,-7.1543,-7.1392,-7.1392,-7.0784,-7.0071,-6.9244,-6.8379,-6.7513,-6.6647,-6.6147,-6.5436,-6.457,-6.3705,-6.2858,-6.2062,-6.1166,-6.08,-6.08,-6.08,-6.08,-6.08,-6.08,-6.08,-6.08,-6.08,-6.08,-6.08,-6.08,-6.08,-6.08,-6.08,-5.9858,-5.8684,-5.8396,-5.73,-5.6088,-5.578,-5.5703,-5.5703,-5.5703,-5.5703,-5.5703,-5.5703,-5.5703,-5.5318,-5.3953,-5.3414,-5.2799,-5.1395,-5.0894,-5.0712,-5.0712,-5.0712,-5.0712,-5.0712,-5.0712,-5.0712,-5.0712,-5.0712,-5.0712,-5.0712,-5.0212,-4.9856,-4.9856,-4.9067,-4.8567,-4.8567,-4.7528,-4.6904,-4.6904,-4.6067,-4.5438,-4.5107,-4.4757,-4.4387,-4.4001,-4.4899,-4.5876,-4.6915,-4.8294,-4.9485,-5.8519,-5.8167,-5.7588,-5.8409,-5.8267,-5.795,-5.7997,-5.8561,-5.9064,-5.9064,-5.9716,-6.0549,-6.1544,-6.2502,-6.4256,-6.7744,-6.9961,-7.1853,-7.3601,-7.4132,-7.3997,-7.3091,-7.2982,-7.2599,-7.164,-7.2203,0.0,-7.1527,0.0,-7.1638,-7.1511,-7.1317,-7.1182,-7.1124,-7.0194,-6.9263,-6.8327,-6.7475,-6.6647,-6.5897,-6.584,-6.5378,-6.4493,-6.3628,-6.2801,-6.1985,-6.1146,-6.08,-6.08,-6.08,-6.08,-6.08,-6.08,-6.08,-6.08,-6.08,-6.08,-6.08,-6.08,-6.08,-6.08,-6.08,-6.0185,-5.93,-5.8531,-5.7665,-5.6772,-5.5934,-5.5703,-5.5703,-5.5703,-5.5703,-5.5703,-5.5703,-5.5703,-5.5472,-5.4664,-5.3818,-5.2953,-5.2077,-5.1241,-5.0712,-5.0712,-5.0712,-5.0712,-5.0712,-5.0712,-5.0712,-5.0712,-5.0712,-5.0712,-5.0712,-5.0712,-5.0712,-5.0712,-4.9933,-4.9471,-4.9471,-4.7932,-4.7,-4.6962,-4.6124,-4.5496,-4.5107,-4.48,-4.4433,-4.4028,-4.5718,-4.6536,-4.6623,-4.8983,-5.0104,-5.7659,-5.7538,-5.7518,-5.7388,-5.7272,-5.7309,-5.7886,-5.7729,-5.7492,-5.7492,-5.7941,-5.8584,-5.9435,-6.1845,-6.4407,-6.656,-6.9739,-7.1946,-7.1921,-7.3586,-7.4312,-7.2932,-7.2699,-7.2537,-7.2269,-7.1843,-7.1444,0.0,-7.1356,-7.155,-7.1504,-7.1317,-7.0911,-7.0253,-6.9885,-6.8975,-6.7455,-6.6609,-6.609,-6.5878,-6.5243,-6.4474,-6.3608,-6.2781,-6.1935,-6.1108,-6.0896,-6.08,-6.08,-6.08,-6.08,-6.08,-6.08,-6.08,-6.08,-6.08,-6.08,-6.08,-6.08,-6.08,-6.08,-6.08,-5.98,-5.8569,-5.8357,-5.7242,-5.5992,-5.5761,-5.5703,-5.5703,-5.5703,-5.5703,-5.5703,-5.5703,-5.5703,-5.5472,-5.4664,-5.3818,-5.2953,-5.2077,-5.1241,-5.0712,-5.0712,-5.0712,-5.0712,-5.0712,-5.0712,-5.0712,-5.0712,-5.0712,-5.0712,-5.0712,-5.0712,-5.0712,-5.0712,-5.05,-5.0366,-5.0366,-4.9356,-4.8471,-4.7817,-4.7009,-4.61,-4.5126,-4.5019,-4.4793,-4.4447,-4.6078,-4.7027,-4.7359,-4.9231,-5.026,-5.7445,-5.701,-5.6798,-5.6876,-5.6912,-5.7091,-5.7839,-5.7835,-5.7697,-5.7697,-5.8061,-5.86,-5.9248,-6.1241,-6.355,-6.5819,-6.8641,-7.0818,-7.1655,-7.3003,-7.3587,-7.271,-7.2551,-7.2321,-7.1827,-7.1699,-7.1434,0.0,-7.1181,-7.1325,-7.1233,-7.1134,-7.0676,-6.9826,-6.9367,-6.8302,-6.659,-6.6128,-6.5705,-6.532,-6.4839,-6.3955,-6.2762,-6.2312,-6.162,-6.08,0.0,-6.08,-6.08,-6.08,-6.08,-6.08,-6.08,-6.08,-6.08,-6.08,-6.08,-6.08,-6.08,-6.0678,-6.054,-6.0734,-5.9763,-5.8495,-5.8331,-5.7357,-5.6195,-5.5799,-5.5703,-5.5703,-5.5703,-5.5703,-5.5703,-5.5703,-5.5703,-5.5568,-5.5126,-5.4068,-5.2837,-5.1606,-5.101,-5.0712,-5.0712,-5.0712,-5.0712,-5.0712,-5.0712,-5.0712,-5.0712,-5.0712,-5.0712,-5.0712,-5.0712,-5.0712,-5.0712,-5.0712,-5.0712,-5.0712,-4.9875,-4.9009,-4.8144,-4.7336,-4.6407,-4.5341,-4.5161,-4.5019,-4.4825,-4.6455,-4.7383,-4.7648,-4.9499,-5.0483,-5.7424,-5.6513,-5.5752,-5.6545,-5.6739,-5.6946,-5.7797,-5.828,-5.8564,-5.8676,-5.9027,-5.9495,-6.0006,-6.0867,-6.2475,-6.5417,-6.7321,-6.931,-7.1921,-7.2388,-7.2465,-7.2457,-7.2369,-7.1966,-7.1137,-7.1648,-7.1706,-7.0956,-7.105,-7.1085,-7.0912,-7.0802,-7.0302,-6.9379,-6.8532,-6.7378,-6.5897,-6.5897,-6.5455,-6.4609,-6.4474,-6.3608,-6.2101,-6.1985,-6.1524,-6.08,0.0,0.0,-6.08,-6.08,-6.08,-6.08,-6.08,-6.08,-6.08,-6.08,-6.08,-6.08,-6.0734,-6.0397,-6.0084,-6.0488,-5.9735,-5.8576,-5.8234,-5.7511,-5.6676,-5.5915,-5.5703,-5.5703,-5.5703,-5.5703,-5.5703,-5.5703,-5.5703,-5.5703,-5.5703,-5.4376,-5.2702,-5.1039,-5.0712,-5.0712,-5.0712,-5.0712,-5.0712,-5.0712,-5.0712,-5.0712,-5.0712,-5.0712,-5.0712,-5.0712,-5.0712,-5.0712,-5.0712,-5.0712,-5.0712,-5.0712,-4.9875,-4.9009,-4.8144,-4.7336,-4.649,-4.5614,-4.5427,-4.5341,-4.5341,-4.7024,-4.7837,-4.7887,-4.9805,-5.0712,-5.6891,-5.5707,-5.4952,-5.5724,-5.592,-5.6295,-5.7684,-5.7811,-5.7835,-5.8564,-5.8808,-5.9158,-5.9955,-6.1132,-6.2835,-6.5474,-6.7321,-6.9046,-7.0934,-7.1801,-7.2244,-7.2257,-7.1608,-7.1389,-7.1932,-7.1456,-7.1052,0.0,-7.0933,-7.0946,-7.0898,-7.0264,-6.9186,-6.759,-6.6763,-6.6186,-6.5897,-6.5897,-6.5455,-6.4589,-6.3878,-6.3012,-6.2082,-6.1339,-6.0935,-6.08,0.0,0.0,-6.08,-6.08,-6.08,-6.08,-6.08,-6.08,-6.08,-6.08,-6.08,-6.0746,-6.0351,-5.9916,-5.9547,-5.9684,-5.886,-5.7742,-5.7344,-5.6618,-5.5876,-5.5742,-5.5703,-5.5703,-5.5703,-5.5703,-5.5703,-5.5703,-5.5703,-5.5703,-5.5703,-5.4376,-5.2702,-5.1039,-5.0712,-5.0712,-5.0712,-5.0712,-5.0712,-5.0712,-5.0712,-5.0712,-5.0712,-5.0712,-5.0712,-5.0712,-5.0712,-5.0712,-5.0712,-5.0712,-5.0712,-5.0712,-4.9875,-4.9009,-4.8144,-4.7336,-4.649,-4.5614,-4.6252,-4.6599,-4.6599,-4.8279,-4.9086,-4.9106,-5.0212,-5.0712,-5.6317,-5.5056,-5.4296,-5.5408,-5.5706,-5.6053,-5.739,-5.7725,-5.7958,-5.8619,-5.8957,-5.9422,-6.0297,-6.1357,-6.2627,-6.4282,-6.5609,-6.7167,-6.9302,-6.9956,-7.0552,-7.1418,-7.1148,-7.1052,-7.1475,-7.1148,-7.0898,-7.0898,0.0,-7.0283,-7.0283,-6.9052,-6.7955,-6.7128,-6.632,-6.5897,-6.5897,-6.5455,-6.4782,-6.3916,-6.307,-6.2243,-6.1408,-6.0993,-6.08,-6.08,-6.08,0.0,-6.08,-6.08,-6.08,-6.08,-6.08,-6.08,-6.08,-6.08,-6.08,-6.0757,-6.0553,-5.9996,-5.941,-5.9486,-5.8462,-5.7172,-5.6798,-5.6226,-5.5703,-5.5703,-5.5703,-5.5703,-5.5703,-5.5703,-5.5703,-5.5703,-5.5703,-5.5453,-5.4587,-5.378,-5.2702,-5.1039,-5.0712,-5.0712,-5.0712,-5.0712,-5.0712,-5.0712,-5.0712,-5.0712,-5.0712,-5.0712,-5.0712,-5.0712,-5.0712,-5.0712,-5.0712,-5.0712,-5.0712,-5.0712,-5.0308,-4.9471,-4.8144,-4.774,-4.7124,-4.6297,-4.6701,-4.7096,-4.7528,-4.8798,-4.9394,-4.9413,-5.0289,-5.0712,-5.5954,-5.4743,-5.4059,-5.5379,-5.5836,-5.6214,-5.7186,-5.7622,-5.798,-5.8458,-5.8917,-5.9492,-6.0358,-6.1223,-6.2147,-6.3147,-6.4032,-6.5416,-6.7802,-6.8436,-6.9167,-7.0494,-7.0802,-7.0898,-7.0898,-7.0898,0.0,-7.0898,0.0,0.0,-6.9148,-6.784,-6.7013,-6.684,-6.6224,-6.5801,-6.5609,-6.4936,-6.4089,-6.3051,-6.2397,-6.1639,-6.08,-6.08,-6.08,-6.08,-6.08,0.0,0.0,-6.08,-6.08,-6.08,-6.08,-6.08,-6.08,-6.08,-6.08,-6.08,-6.069,-6.0161,-5.9509,-5.9284,-5.8172,-5.6854,-5.66,-5.6137,-5.5703,-5.5703,-5.5703,-5.5703,-5.5703,-5.5703,-5.5703,-5.5703,-5.5703,-5.5241,-5.3568,-5.3203,-5.2702,-5.1039,-5.0712,-5.0712,-5.0712,-5.0712,-5.0712,-5.0712,-5.0712,-5.0712,-5.0712,-5.0712,-5.0712,-5.0712,-5.0712,-5.0712,-5.0712,-5.0712,-5.0712,-5.0712,-5.0519,-4.9798,-4.8432,-4.8202,-4.7798,-4.7173,-4.7336,-4.7759,-4.8375,-4.924,-4.9683,-4.9702,-5.0385,-5.0712,-5.5954,-5.5102,-5.4682,-5.5495,-5.6259,-5.6894,-5.7328,-5.7192,-5.7135,-5.7606,-5.8081,-5.8665,-5.9473,-6.0319,-6.1435,-6.3051,-6.4032,-6.5205,-6.6974,-6.8571,-6.9648,-6.9783,-7.0456,-7.0898,-7.0898,-7.0898,-7.0898,-7.0898,0.0,0.0,-6.7378,-6.7186,-6.6763,-6.6032,-6.5936,-6.5513,-6.4724,-6.4647,-6.3801,-6.2216,-6.2139,-6.1639,-6.08,-6.08,-6.08,-6.08,0.0,0.0,0.0,-6.08,-6.08,-6.08,-6.08,-6.08,-6.08,-6.08,-6.08,-6.0746,-6.0324,-6.0118,-5.9862,-5.8694,-5.7685,-5.6903,-5.6944,-5.6365,-5.5703,-5.5703,-5.5703,-5.5703,-5.5703,-5.5703,-5.5703,-5.5703,-5.5703,-5.5241,-5.3568,-5.3203,-5.2702,-5.1039,-5.0712,-5.0712,-5.0712,-5.0712,-5.0712,-5.0712,-5.0712,-5.0712,-5.0712,-5.0712,-5.0712,-5.0712,-5.0712,-5.0712,-5.0712,-5.0712,-5.0712,-5.0712,-4.9952,-4.9452,-4.9298,-4.8529,-4.8067,-4.799,-4.8779,-4.9202,-4.9279,-5.0173,-5.0577,-5.0577,-5.0654,-5.0712,-5.6536,-5.5836,-5.5437,-5.6232,-5.6668,-5.694,-5.7078,-5.7013,-5.7103,-5.787,-5.8169,-5.8704,-6.0031,-6.0569,-6.1012,-6.1685,-6.2089,-6.2897,-6.4589,-6.5859,-6.7205,-6.8744,-6.9667,-7.0239,-7.0406,0.0,-6.9744,-6.8686,0.0,0.0,-6.6417,-6.6378,-6.6224,-6.5897,-6.5397,-6.4955,-6.4609,-6.3589,-6.2774,-6.2101,-6.1581,-6.1127,-6.08,-6.08,-6.08,-6.08,0.0,0.0,0.0,-6.08,-6.08,-6.08,-6.08,-6.08,-6.08,-6.08,-6.08,-6.0769,-6.0578,-6.0338,-6.006,-5.984,-5.8668,-5.7251,-5.6785,-5.6203,-5.5703,-5.5703,-5.5703,-5.5703,-5.5703,-5.5703,-5.5703,-5.5703,-5.5703,-5.5241,-5.3568,-5.3203,-5.2702,-5.1039,-5.0712,-5.0712,-5.0712,-5.0712,-5.0712,-5.0712,-5.0712,-5.0712,-5.0712,-5.0712,-5.0712,-5.0712,-5.0712,-5.0712,-5.0712,-5.0712,-5.0712,-5.0712,-5.0366,-4.9952,-4.9413,-4.9067,-4.8875,-4.8875,-4.9221,-4.9663,-5.0183,-5.0539,-5.0712,-5.0712,-5.0712,-5.0712,-5.7294,-5.6887,-5.6624,-5.7164,-5.7483,-5.7601,-5.7476,-5.7462,-5.7609,-5.8184,-5.8492,-5.9031,-6.0204,-6.0627,-6.08,-6.08,-6.1012,-6.1589,-6.2781,-6.3897,-6.5359,-6.7417,-6.8087,-6.869,-6.9524,-6.9438,-6.8706,0.0,0.0,0.0,0.0,-6.5513,-6.5513,-6.5513,-6.4916,-6.4359,-6.3858,-6.2685,-6.1966,-6.1716,-6.1089,-6.08,-6.08,-6.08,-6.08,-6.08,0.0,0.0,0.0,-6.08,-6.08,-6.08,-6.08,-6.08,-6.08,-6.08,-6.08,-6.08,-6.08,-6.0578,-6.0351,-6.069,-5.9433,-5.7697,-5.713,-5.6371,-5.5703,-5.5703,-5.5703,-5.5703,-5.5703,-5.5703,-5.5703,-5.5703,-5.5703,-5.5241,-5.3568,-5.3203,-5.2702,-5.1039,-5.0712,-5.0712,-5.0712,-5.0712,-5.0712,-5.0712,-5.0712,-5.0712,-5.0712,-5.0712,-5.0712,-5.0712,-5.0712,-5.0712,-5.0712,-5.0712,-5.0712,-5.0712,-5.0712,-5.0423,-4.9798,-4.9779,-4.9779,-4.9779,-4.9779,-5.0087,-5.0712,-5.0712,-5.0712,-5.0712,-5.0712,-5.0712,-5.818,-5.8283,-5.8283,-5.8283,-5.8822,-5.9265,-5.8862,-5.8792,-5.868,-5.8366,-5.8934,-5.9492,-5.9511,-6.0223,-6.08,-6.08,-6.1524,-6.2101,-6.212,-6.3551,-6.4936,-6.582,-6.5518,-6.6081,-6.8204,-6.8423,-6.8052,0.0,0.0,0.0,0.0,-6.4609,-6.4609,-6.4609,-6.4609,-6.3801,-6.2139,-6.212,-6.1678,-6.08,-6.08,-6.08,-6.08,-6.08,-6.08,0.0,0.0,0.0,0.0,-6.08,-6.08,-6.08,-6.08,-6.08,-6.08,-6.08,-6.08,-6.08,-6.08,-6.08,-6.0781,-6.08,-5.9665,-5.8288,-5.8269,-5.7069,-5.5703,-5.5703,-5.5703,-5.5703,-5.5703,-5.5703,-5.5703,-5.5703,-5.5703,-5.5241,-5.3568,-5.3203,-5.2702,-5.1039,-5.0712,-5.0712,-5.0712,-5.0712,-5.0712,-5.0712,-5.0712,-5.0712,-5.0712,-5.0712,-5.0712,-5.0712,-5.0712,-5.0712,-5.0712,-5.0712,-5.0712,-5.0712,-5.0712,-5.0712,-5.0693,-5.0693,-5.0693,-5.0693,-5.0693,-5.0693,-5.0712,-5.0712,-5.0712,-5.0712,-5.0712,-5.0712,-5.7404,-5.7731,-5.8031,-5.7487,-5.7931,-5.8434,-5.8062,-5.8411,-5.8866,-5.9077,-5.9319,-5.9685,-6.0281,-6.0608,-6.08,-6.08,-6.1031,-6.1204,-6.1204,-6.2647,-6.4032,-6.4916,-6.5766,-6.6489,0.0,0.0,0.0,0.0,0.0,0.0,0.0,-6.4051,-6.3724,-6.3724,-6.3185,-6.2627,-6.212,-6.1524,-6.1069,-6.08,-6.08,-6.08,-6.08,-6.08,0.0,0.0,0.0,0.0,0.0,-6.08,-6.08,-6.08,-6.08,-6.08,-6.08,-6.08,-6.08,-6.08,-6.08,-6.08,-6.0704,-6.0108,-5.9184,-5.8184,-5.7588,-5.6607,-5.5703,-5.5703,-5.5703,-5.5703,-5.5703,-5.5703,-5.5703,-5.5703,-5.5703,-5.5395,-5.4318,-5.3626,-5.2876,-5.1741,-5.1087,-5.0712,-5.0712,-5.0712,-5.0712,-5.0712,-5.0712,-5.0712,-5.0712,-5.0712,-5.0712,-5.0712,-5.0712,-5.0712,-5.0712,-5.0712,-5.0712,-5.0712,-5.0712,-5.0712,-5.0712,-5.0712,-5.0712,-5.0712,-5.0712,-5.0712,-5.0712,-5.0712,-5.0712,-5.0712,-5.0712,-5.0712,-5.743,-5.7794,-5.806,-5.7547,-5.8022,-5.8496,-5.7989,-5.8731,-5.9537,-5.9504,-5.9762,-6.0165,-6.0704,-6.08,-6.08,-6.08,-6.08,-6.08,-6.08,-6.1806,-6.2719,-6.3222,-6.4834,0.0,0.0,0.0,0.0,0.0,0.0,0.0,0.0,-6.3147,-6.2704,-6.2377,-6.2185,-6.1947,-6.1608,-6.1069,-6.08,-6.08,-6.08,-6.08,-6.08,-6.08,0.0,0.0,0.0,0.0,0.0,-6.08,-6.08,-6.08,-6.08,-6.08,-6.08,-6.08,-6.08,-6.0742,-6.0416,-6.03,-6.0165,-5.9319,-5.8492,-5.7646,-5.6772,-5.6126,-5.5703,-5.5703,-5.5703,-5.5703,-5.5703,-5.5703,-5.5703,-5.5703,-5.5703,-5.5472,-5.4664,-5.4068,-5.3337,-5.2135,-5.151,-5.1048,-5.075,-5.0712,-5.0712,-5.0712,-5.0712,-5.0712,-5.0712,-5.0712,-5.0712,-5.0712,-5.0712,-5.0712,-5.0712,-5.0712,-5.0712,-5.0712,-5.0712,-5.0712,-5.0712,-5.0712,-5.0712,-5.0712,-5.0712,-5.0712,-5.0712,-5.0712,-5.0712,-5.0712,-5.0712,-5.0712,0.0,-5.8165,-5.8184,-5.8127,-5.8723,-5.9127,-5.8377,-5.9454,0.0,-5.9588,-6.005,-6.0627,-6.0704,-6.0692,-6.0681,-6.0781,-6.0769,-6.0757,-6.0757,-6.1075,-6.1345,-6.1336,-6.3119,0.0,-6.2521,0.0,0.0,0.0,0.0,0.0,0.0,-6.2043,-6.1639,-6.0819,-6.1601,-6.162,-6.08,-6.08,-6.08,-6.08,-6.08,-6.08,-6.08,-6.08,0.0,0.0,0.0,0.0,0.0,-6.08,-6.08,-6.08,-6.08,-6.08,-6.08,-6.08,-6.0762,-6.0589,-5.9781,-5.9454,-5.9281,-5.8473,-5.7627,-5.6772,-5.5953,-5.5703,-5.5703,-5.5703,-5.5703,-5.5703,-5.5703,-5.5703,-5.5703,-5.5703,-5.5703,-5.5491,-5.4741,-5.453,-5.401,-5.2404,-5.1981,-5.1654,-5.0914,-5.075,-5.0712,-5.0712,-5.0712,-5.0712,-5.0712,-5.0712,-5.0712,-5.0712,-5.0712,-5.0712,-5.0712,-5.0712,-5.0712,-5.0712,-5.0712,-5.0712,-5.0712,-5.0712,-5.0712,-5.0712,-5.0712,-5.0712,-5.0712,-5.0712,-5.0712,-5.0712,-5.0712,-5.0712,-5.6261,0.0,-5.7146,-5.6472,-5.6953,-5.7541,0.0,-5.8127,-5.8838,-5.8627,-5.8742,-5.9088,-5.9685,-5.9518,-5.9618,-6.063,-6.0495,-6.0264,-6.0264,-6.1147,-6.2216,-6.3483,-6.3712,-6.3427,-6.25,0.0,0.0,0.0,0.0,0.0,0.0,-6.1466,-6.1012,-6.08,-6.0993,-6.1012,-6.08,-6.08,-6.08,-6.08,-6.08,-6.08,-6.08,-6.08,0.0,0.0,0.0,0.0,-6.08,-6.08,-6.08,-6.08,-6.08,-6.08,-6.08,-6.08,-6.0377,-5.9781,-5.9569,-5.9108,-5.8434,-5.7569,-5.6733,-5.5972,-5.5761,-5.5703,-5.5703,-5.5703,-5.5703,-5.5703,-5.5703,-5.5703,-5.5703,-5.5703,-5.5703,-5.5645,-5.5453,-5.4934,-5.4376,-5.3972,-5.2818,-5.1846,-5.1654,-5.1106,-5.0712,-5.0712,-5.0712,-5.0712,-5.0712,-5.0712,-5.0712,-5.0712,-5.0712,-5.0712,-5.0712,-5.0712,-5.0712,-5.0712,-5.0712,-5.0712,-5.0712,-5.0712,-5.0712,-5.0712,-5.0712,-5.0712,-5.0712,-5.0712,-5.0712,-5.0712,-5.0712,-5.0712,-5.5703,-5.6349,-5.6887,-5.6406,-5.6953,-5.7492,-5.7099,-5.7665,-5.8184,-5.778,-5.803,-5.855,-5.9358,-5.9292,-5.9428,-6.0329,-6.0264,-6.0064,-6.0021,-6.0566,-6.1388,-6.2454,-6.2317,-6.1966,0.0,0.0,0.0,0.0,0.0,0.0,0.0,-6.105,-6.08,-6.08,-6.08,-6.08,-6.08,-6.08,-6.08,-6.08,-6.08,-6.08,-6.08,-6.08,0.0,0.0,0.0,0.0,-6.08,-6.08,-6.08,-6.08,-6.08,-6.08,-6.0742,-6.0339,-5.9896,-5.9396,-5.8627,-5.78,-5.703,-5.6549,-5.6069,-5.5703,-5.5703,-5.5703,-5.5703,-5.5703,-5.5703,-5.5703,-5.5703,-5.5703,-5.5703,-5.5703,-5.5703,-5.5703,-5.5703,-5.5357,-5.4818,-5.4049,-5.3145,-5.225,-5.1491,-5.0991,-5.0712,-5.0712,-5.0712,-5.0712,-5.0712,-5.0712,-5.0712,-5.0712,-5.0712,-5.0712,-5.0712,-5.0712,-5.0712,-5.0712,-5.0712,-5.0712,-5.0712,-5.0712,-5.0712,-5.0712,-5.0712,-5.0712,-5.0712,-5.0712,-5.0712,-5.0712,-5.0712,-5.0712,-5.5665,-5.6349,-5.6964,-5.683,-5.7401,-5.7801,-5.6992,-5.7324,-5.7609,-5.6934,-5.7396,-5.8184,-5.9146,-5.9199,-5.9345,-6.0097,-6.0103,-5.9994,-6.0015,-5.9901,-5.998,-6.0461,-6.0449,0.0,0.0,0.0,0.0,0.0,0.0,0.0,0.0,-6.08,-6.08,-6.08,-6.08,-6.08,-6.08,-6.08,-6.08,-6.08,-6.08,-6.08,-6.08,-6.08,-6.08,0.0,0.0,0.0,-6.08,-6.08,-6.08,-6.08,-6.08,-6.0723,-6.0512,-5.9762,-5.9338,-5.8896,-5.7338,-5.6329,-5.5703,-5.5703,-5.5703,-5.5703,-5.5703,-5.5703,-5.5703,-5.5703,-5.5703,-5.5703,-5.5703,-5.5703,-5.5703,-5.5703,-5.5703,-5.5703,-5.5703,-5.5703,-5.5241,-5.3703,-5.3299,-5.2702,-5.1144,-5.0789,-5.0712,-5.0712,-5.0712,-5.0712,-5.0712,-5.0712,-5.0712,-5.0712,-5.0712,-5.0712,-5.0712,-5.0712,-5.0712,-5.0712,-5.0712,-5.0712,-5.0712,-5.0712,-5.0712,-5.0712,-5.0712,-5.0712,-5.0712,-5.0712,-5.0712,-5.0712,-5.0712,-5.0712,-5.5511,-5.6349,-5.683,-5.6069,-5.6309,-5.6537,-5.6014,-5.5741,-5.5657,-5.5871,-5.6011,-5.6588,-5.8184,-5.7829,-5.8038,-6.0316,-6.0025,-5.976,-6.0487,0.0,-5.9747,-6.0948,0.0,0.0,0.0,0.0,0.0,0.0,0.0,0.0,0.0,0.0,-6.08,-6.08,-6.08,-6.08,-6.08,-6.08,-6.08,-6.08,-6.08,-6.08,-6.08,-6.08,-6.08,0.0,0.0,-6.08,-6.08,-6.08,-6.08,-6.08,-6.08,-6.0339,-5.9685,-5.955,-5.8588,-5.7253,-5.6242,-5.5799,-5.5703,-5.5703,-5.5703,-5.5703,-5.5703,-5.5703,-5.5703,-5.5703,-5.5703,-5.5703,-5.5703,-5.5703,-5.5703,-5.5703,-5.5703,-5.5703,-5.5703,-5.5703,-5.5415,-5.4472,-5.3703,-5.2876,-5.1885,-5.1144,-5.0712,-5.0712,-5.0712,-5.0712,-5.0712,-5.0712,-5.0712,-5.0712,-5.0712,-5.0712,-5.0712,-5.0712,-5.0712,-5.0712,-5.0712,-5.0712,-5.0712,-5.0712,-5.0712,-5.0712,-5.0712,-5.0712,-5.0712,-5.0712,-5.0712,-5.0712,-5.0712,-5.0712,-5.4241,-5.5299,-5.6214,-5.5799,-5.6721,-5.7572,-5.7097,-5.6515,-5.6122,-5.6312,-5.6359,-5.6721,-5.7954,-5.7826,-5.801,-5.942,-5.9084,-5.8782,-5.9175,-5.8836,-5.8791,0.0,0.0,0.0,0.0,0.0,0.0,0.0,0.0,0.0,0.0,0.0,-6.08,0.0,-6.08,-6.08,-6.08,-6.08,-6.08,-6.08,-6.08,-6.08,-6.08,-6.08,-6.08,-6.08,0.0,-6.08,-6.08,-6.08,-6.08,-6.0742,-6.0281,-5.9858,-5.9396,-5.8473,-5.7357,-5.6252,-5.5838,-5.5703,-5.5703,-5.5703,-5.5703,-5.5662,-5.5435,-5.5524,-5.5651,-5.5435,-5.5524,-5.5703,-5.5703,-5.5703,-5.5703,-5.5703,-5.5703,-5.5703,-5.5703,-5.5357,-5.4799,-5.3953,-5.3087,-5.2241,-5.1395,-5.0933,-5.0712,-5.0712,-5.0712,-5.0712,-5.0712,-5.0712,-5.0712,-5.0712,-5.0712,-5.0712,-5.0712,-5.0712,-5.0712,-5.0712,-5.0712,-5.0712,-5.0712,-5.0712,-5.0712,-5.0712,-5.0712,-5.0712,-5.0712,-5.0712,-5.0712,-5.0712,-5.0712,-5.0712,-5.3145,-5.4064,-5.5058,-5.5439,-5.6894,-5.8235,-5.8148,-5.7354,-5.6713,-5.7,-5.6991,-5.715,-5.7959,-5.8261,-5.8424,-5.852,-5.8329,-5.8119,-5.802,-5.7997,-5.7997,0.0,0.0,0.0,0.0,0.0,0.0,0.0,0.0,0.0,0.0,0.0,-6.08,0.0,-6.08,-6.08,-6.08,-6.08,-6.08,-6.08,-6.08,-6.08,-6.08,-6.08,-6.08,-6.08,-6.08,-6.08,-6.08,-6.08,-6.0685,-6.0435,-5.9762,-5.9261,-5.8723,-5.7253,-5.6272,-5.5703,-5.5703,-5.5703,-5.5703,-5.5703,-5.564,-5.5501,-5.5186,-5.5319,-5.5501,-5.5186,-5.5399,-5.5703,-5.5703,-5.5703,-5.5703,-5.5703,-5.5703,-5.5645,-5.5453,-5.4934,-5.4184,-5.3106,-5.2365,-5.1635,-5.0846,-5.0712,-5.0712,-5.0712,-5.0712,-5.0712,-5.0712,-5.0712,-5.0712,-5.0712,-5.0712,-5.0712,-5.0712,-5.0712,-5.0712,-5.0712,-5.0712,-5.0712,-5.0712,-5.0712,-5.0712,-5.0712,-5.0712,-5.0712,-5.0712,-5.0712,-5.0712,-5.0712,-5.0712,-5.0712,-5.2991,-5.3019,-5.3188,-5.4682,-5.5826,-5.6861,-5.8019,-5.6982,-5.6128,-5.731,-5.7201,-5.715,-5.7959,-5.8749,-5.9028,-5.819,-5.8375,-5.8505,-5.807,0.0,0.0,0.0,0.0,0.0,0.0,0.0,0.0,0.0,0.0,0.0,0.0,0.0,0.0,-6.08,0.0,-6.08,-6.08,-6.08,-6.08,-6.08,-6.08,-6.08,-6.08,-6.08,-6.08,-6.08,-6.08,-6.08,-6.08,-6.08,-6.0319,-5.9588,-5.9511,-5.855,-5.708,-5.6126,-5.5742,-5.5703,-5.5703,-5.5703,-5.5703,-5.5703,-5.5435,-5.5147,-5.5121,-5.5134,-5.5147,-5.5121,-5.5399,-5.5703,-5.5703,-5.5703,-5.5703,-5.5703,-5.5703,-5.5491,-5.4741,-5.453,-5.3991,-5.2308,-5.1942,-5.1635,-5.0846,-5.0712,-5.0712,-5.0712,-5.0712,-5.0712,-5.0712,-5.0712,-5.0712,-5.0712,-5.0712,-5.0712,-5.0712,-5.0712,-5.0712,-5.0712,-5.0712,-5.0712,-5.0712,-5.0712,-5.0712,-5.0712,-5.0712,-5.0712,-5.0712,-5.0712,-5.0712,-5.0712,-5.0712,-5.0712,-5.1489,-5.2296,-5.3168,-5.4036,-5.5489,-5.6756,-5.6965,-5.6866,-5.6968,-5.7712,-5.77,-5.7668,-5.7986,-5.8322,-5.8418,-5.8047,-5.8164,-5.8213,-5.8024,0.0,0.0,0.0,0.0,0.0,0.0,0.0,0.0,0.0,0.0,0.0,0.0,0.0,0.0,-6.0012,0.0,-5.9742,-5.9242,-5.9742,-5.9992,-5.9992,-6.0531,-6.08,-6.08,-6.08,-6.08,-6.08,-6.08,-6.08,-6.0762,-6.0223,-5.98,-5.9396,-5.8338,-5.7223,-5.6156,-5.5818,-5.5703,-5.5703,-5.5703,-5.5703,-5.5703,-5.5703,-5.5423,-5.5048,-5.479,-5.489,-5.4893,-5.384,-5.424,-5.5068,-5.5568,-5.5703,-5.5703,-5.5703,-5.5318,-5.4876,-5.4568,-5.3645,-5.2692,-5.2019,-5.151,-5.1048,-5.075,-5.0712,-5.0712,-5.0712,-5.0712,-5.0712,-5.0712,-5.0712,-5.0712,-5.0712,-5.0712,-5.0712,-5.0712,-5.0712,-5.0712,-5.0712,-5.0712,-5.0712,-5.0712,-5.0712,-5.0712,-5.0712,-5.0712,-5.0712,-5.0712,-5.0712,-5.0712,-5.0712,-5.0712,-5.0712,-5.0619,-5.164,-5.2774,-5.3414,-5.4755,-5.5954,-5.616,-5.6827,-5.7546,-5.8116,-5.8097,-5.7997,-5.7997,-5.7997,-5.7997,0.0,-5.7997,-5.7997,0.0,0.0,0.0,0.0,0.0,0.0,0.0,0.0,0.0,0.0,0.0,0.0,0.0,0.0,0.0,0.0,0.0,-5.8858,-5.8319,-5.8858,-5.9127,-5.9127,-5.9723,-6.0146,-6.0377,-6.0127,-6.0012,-6.0012,-6.0012,-6.0012,-5.9954,-5.9377,-5.8954,-5.8569,-5.7137,-5.6233,-5.5703,-5.5703,-5.5703,-5.5703,-5.5703,-5.5703,-5.5703,-5.5703,-5.5331,-5.4867,-5.4579,-5.4405,-5.4061,-5.2928,-5.3228,-5.4027,-5.4583,-5.4811,-5.4914,-5.4914,-5.4491,-5.401,-5.3741,-5.2731,-5.1827,-5.1568,-5.1087,-5.0712,-5.0712,-5.0712,-5.0712,-5.0712,-5.0712,-5.0712,-5.0712,-5.0712,-5.0712,-5.0712,-5.0712,-5.0712,-5.0712,-5.0712,-5.0712,-5.0712,-5.0712,-5.0712,-5.0712,-5.0712,-5.0712,-5.0712,-5.0712,-5.0712,-5.0712,-5.0712,-5.0712,-5.0712,-5.0712,-5.0712,-5.0681,-5.0989,-5.1576,-5.2803,-5.3465,-5.4242,-5.5841,-5.6846,-5.7649,-5.8507,-5.8329,-5.7997,-5.7997,-5.7997,-5.7997,-5.7997,-5.7997,0.0,0.0,0.0,0.0,0.0,0.0,0.0,0.0,0.0,0.0,0.0,0.0,0.0,0.0,0.0,0.0,0.0,0.0,0.0,-5.828,-5.828,-5.83,-5.83,-5.83,-5.8704,-5.9454,-5.8665,-5.83,-5.83,-5.83,-5.83,-5.83,-5.83,-5.7761,-5.6907,-5.603,-5.5703,-5.5703,-5.5703,-5.5703,-5.5703,-5.5703,-5.5703,-5.5703,-5.5703,-5.516,-5.4503,-5.4484,-5.3605,-5.2603,-5.2584,-5.2579,-5.259,-5.2558,-5.2863,-5.3183,-5.3203,-5.3203,-5.2953,-5.2096,-5.1885,-5.1654,-5.0837,-5.0712,-5.0712,-5.0712,-5.0712,-5.0712,-5.0712,-5.0712,-5.0712,-5.0712,-5.0712,-5.0712,-5.0712,-5.0712,-5.0712,-5.0712,-5.0712,-5.0712,-5.0712,-5.0712,-5.0712,-5.0712,-5.0712,-5.0712,-5.0712,-5.0712,-5.0712,-5.0712,-5.0712,-5.0712,-5.0712,-5.0712,-5.0712,-4.9943,-5.0808,-5.1931,-5.2528,-5.4312,-5.6052,-5.651,-5.7029,-5.7546,-5.8094,-5.8115,-5.7997,-5.7997,-5.7997,-5.7997,-5.7997,-5.7997,0.0,0.0,0.0,0.0,0.0,0.0,0.0,0.0,0.0,0.0,0.0,0.0,0.0,0.0,0.0,0.0,0.0,0.0,0.0,-5.6472,-5.7069,-5.7376,-5.7376,-5.7376,-5.7819,-5.8646,-5.8415,-5.83,-5.83,-5.83,-5.83,-5.8261,-5.7646,-5.6857,-5.6049,-5.5799,-5.5703,-5.5703,-5.5703,-5.5703,-5.5703,-5.5703,-5.5703,-5.5703,-5.5703,-5.516,-5.439,-5.3767,-5.3118,-5.2325,-5.0897,-5.1064,-5.1485,-5.0646,-5.0928,-5.1741,-5.2914,-5.2731,-5.2212,-5.1962,-5.1471,-5.0991,-5.075,-5.0712,-5.0712,-5.0712,-5.0712,-5.0712,-5.0712,-5.0712,-5.0712,-5.0712,-5.0712,-5.0712,-5.0712,-5.0712,-5.0712,-5.0712,-5.0712,-5.0712,-5.0712,-5.0712,-5.0712,-5.0712,-5.0712,-5.0712,-5.0712,-5.0712,-5.0712,-5.0712,-5.0712,-5.0712,-5.0712,-5.0712,-5.0712,-5.0384,-5.1694,-5.3088,-5.3615,-5.5275,-5.6895,-5.7207,-5.7453,-5.7716,-5.7955,-5.7997,-5.7997,-5.7997,-5.7997,0.0,-5.7997,0.0,0.0,0.0,0.0,0.0,0.0,0.0,0.0,0.0,0.0,0.0,0.0,0.0,0.0,0.0,0.0,0.0,0.0,0.0,0.0,-5.5703,-5.6233,-5.6483,-5.6483,-5.6483,-5.6761,-5.7261,-5.7261,-5.7261,-5.7261,-5.7261,-5.7261,-5.7223,-5.6703,-5.6165,-5.5703,-5.5703,-5.5703,-5.5703,-5.5703,-5.5703,-5.5703,-5.5703,-5.5703,-5.5703,-5.5703,-5.4912,-5.388,-5.3368,-5.2362,-5.1157,-4.9947,-5.0088,-5.0421,-4.9693,-5.0092,-5.0962,-5.1972,-5.1818,-5.1414,-5.1414,-5.1029,-5.0712,-5.0712,-5.0712,-5.0712,-5.0712,-5.0712,-5.0712,-5.0712,-5.0712,-5.0712,-5.0712,-5.0712,-5.0712,-5.0712,-5.0712,-5.0712,-5.0712,-5.0712,-5.0712,-5.0712,-5.0712,-5.0712,-5.0712,-5.0712,-5.0712,-5.0712,-5.0712,-5.0712,-5.0712,-5.0712,-5.0712,-5.0712,-5.0712,-5.0712,-5.1373,-5.2949,-5.4381,-5.5262,-5.6198,-5.7097,-5.7831,-5.7997,-5.7997,-5.7997,-5.7997,-5.7997,-5.7997,-5.7997,-5.7978,0.0,0.0,0.0,0.0,0.0,0.0,0.0,0.0,0.0,0.0,0.0,0.0,0.0,0.0,0.0,0.0,0.0,0.0,0.0,0.0,0.0,-5.5703,-5.5703,-5.5703,0.0,-5.5703,-5.5703,-5.5703,-5.5703,-5.5703,-5.5703,-5.5703,-5.5703,-5.5703,-5.5703,-5.5703,-5.5703,-5.5703,-5.5703,-5.5703,-5.5703,-5.5703,-5.5703,-5.5703,-5.5703,-5.5684,-5.5607,-5.4505,-5.3179,-5.3028,-5.1388,-4.9574,-4.95,-4.9477,-4.9489,-4.9489,-5.0092,-5.0712,-5.0712,-5.0712,-5.0712,-5.0712,-5.0712,-5.0712,-5.0712,-5.0712,-5.0712,-5.0712,-5.0712,-5.0712,-5.0712,-5.0712,-5.0712,-5.0712,-5.0712,-5.0712,-5.0712,-5.0712,-5.0712,-5.0712,-5.0712,-5.0712,-5.0712,-5.0712,-5.0712,-5.0712,-5.0712,-5.0712,-5.0712,-5.0712,-5.0712,-5.0712,-5.0712,-5.0712,-5.0712,-5.0712,-5.0712,-4.9849,-5.13,-5.2858,-5.4289,-5.6198,-5.7795,-5.796,-5.7997,-5.7997,-5.7997,-5.7997,-5.7997,-5.7997,-5.7997,-5.7795,0.0,0.0,0.0,0.0,0.0,0.0,0.0,0.0,0.0,0.0,0.0,0.0,0.0,0.0,0.0,0.0,0.0,0.0,0.0,0.0,-5.5703,-5.5703,-5.5703,-5.5703,0.0,-5.5703,-5.5703,-5.5703,-5.5703,-5.5703,-5.5703,-5.5703,-5.5703,-5.5703,-5.5703,-5.5703,-5.5703,-5.5703,-5.5703,-5.5703,-5.5703,-5.5703,-5.5703,-5.5703,-5.5703,-5.5588,-5.4953,-5.4053,-5.2953,-5.1703,-5.0511,-4.9463,-4.8765,-4.9012,-4.9489,-4.9489,-5.0092,-5.0712,-5.0712,-5.0712,-5.0712,-5.0712,-5.0712,-5.0712,-5.0712,-5.0712,-5.0712,-5.0712,-5.0712,-5.0712,-5.0712,-5.0712,-5.0712,-5.0712,-5.0712,-5.0712,-5.0712,-5.0712,-5.0712,-5.0712,-5.0712,-5.0712,-5.0712,-5.0712,-5.0712,-5.0712,-5.0712,-5.0712,-5.0712,-5.0712,-5.0712,-5.0712,-5.0712,-5.0712,-5.0712,-5.0712,-5.0712,-4.9262,-5.1059,-5.3059,-5.506,-5.6785,-5.7905,-5.7519,-5.7428,-5.7317,-5.6932,-5.7152,-5.7428,-5.7428,-5.7116,0.0,0.0,0.0,0.0,0.0,0.0,0.0,0.0,0.0,0.0,0.0,0.0,0.0,0.0,0.0,0.0,0.0,0.0,0.0,0.0,-5.5703,-5.5703,-5.5703,-5.5703,-5.5703,-5.5703,-5.5703,-5.5703,-5.5703,-5.5703,-5.5703,-5.5703,-5.5703,-5.5703,-5.5703,-5.5703,-5.5703,-5.5703,-5.5703,-5.5703,-5.5703,-5.5703,-5.5453,-5.5126,-5.5126,-5.4857,-5.4393,-5.3782,-5.2888,-5.1865,-5.0833,-4.9798,-4.8875,-4.8434,-4.8881,-4.9489,-4.9489,-5.0092,-5.0712,-5.0712,-5.0712,-5.0712,-5.0712,-5.0712,-5.0712,-5.0712,-5.0712,-5.0712,-5.0712,-5.0712,-5.0712,-5.0712,-5.0712,-5.0712,-5.0712,-5.0712,-5.0712,-5.0712,-5.0712,-5.0712,-5.0712,-5.0712,-5.0712,-5.0712,-5.0712,-5.0702,-5.0703,-5.0703,-5.0689,-5.0693,-5.0712,-5.0712,-5.0712,-5.0712,-5.0712,-5.0712,-5.0712,-5.0712,-4.871,-5.1041,-5.3555,-5.5831,-5.6987,-5.7409,-5.6748,-5.6602,-5.64,-5.5739,-5.6124,-5.6602,-5.6602,-5.6051,0.0,0.0,0.0,0.0,0.0,0.0,0.0,0.0,0.0,0.0,0.0,0.0,0.0,0.0,0.0,0.0,-5.4355,0.0,-5.5237,-5.5588,-5.5662,-5.5626,-5.5491,-5.5626,-5.5626,-5.5491,-5.5626,-5.5703,-5.5703,-5.5549,-5.5568,-5.5684,-5.5549,-5.5491,-5.5472,-5.5318,-5.5261,-5.5261,-5.5261,-5.5261,-5.5261,-5.5261,-5.4857,-5.428,-5.428,-5.3799,-5.3123,-5.2573,-5.1657,-5.0704,-5.0146,-4.9177,-4.8306,-4.8306,-4.883,-4.9416,-4.9475,-5.0043,-5.0614,-5.0683,-5.0712,-5.0712,-5.0712,-5.0712,-5.0712,-5.0712,-5.0712,-5.0712,-5.0712,-5.0712,-5.0712,-5.0712,-5.0712,-5.0712,-5.0712,-5.0712,-5.0712,-5.0712,-5.0712,-5.0712,-5.0712,-5.0712,-5.0712,-5.0712,-5.0692,-5.0705,-5.0707,-5.0705,-5.0704,-5.0698,-5.07,-5.0692,-5.0692,-5.0693,-5.0712,-5.0712,-5.0712,-5.0712,-4.6984,-4.9756,-5.2564,-5.4289,-5.5317,-5.5886,-5.5776,-5.5757,-5.5721,-5.5611,-5.5684,-5.5757,-5.5757,0.0,0.0,0.0,0.0,0.0,0.0,0.0,0.0,0.0,0.0,0.0,0.0,0.0,0.0,0.0,0.0,0.0,-5.3887,-5.4667,-5.5115,-5.5173,-5.5512,-5.5376,-5.4664,-5.5338,-5.5338,-5.4664,-5.5376,-5.5703,-5.5684,-5.4972,-5.503,-5.5665,-5.4953,-5.4664,-5.4607,-5.3857,-5.353,-5.353,-5.353,-5.353,-5.353,-5.353,-5.3472,-5.3376,-5.3376,-5.3299,-5.3007,-5.1854,-5.1182,-5.0591,-4.9419,-4.8696,-4.8306,-4.8306,-4.864,-4.9059,-4.9401,-4.9827,-5.0272,-5.0614,-5.0712,-5.0712,-5.0712,-5.0712,-5.0712,-5.0712,-5.0712,-5.0712,-5.0712,-5.0712,-5.0712,-5.0712,-5.0712,-5.0712,-5.0712,-5.0712,-5.0712,-5.0712,-5.0712,-5.0712,-5.0712,-5.0712,-5.0712,-5.0712,-5.0709,-5.0704,-5.0688,-5.0699,-5.0703,-5.0701,-5.0699,-5.0689,-5.0689,-5.0699,-5.0712,-5.0712,-5.0712,-5.0712,-4.7204,-4.9169,-5.1096,-5.3206,-5.4326,-5.4932,-5.4932,-5.4932,-5.4803,-5.4344,-5.4252,-5.4399,0.0,0.0,0.0,0.0,0.0,0.0,0.0,0.0,0.0,0.0,0.0,0.0,0.0,0.0,0.0,0.0,0.0,-5.288,-5.3125,-5.3704,-5.4145,-5.4369,-5.4319,-5.4126,-5.378,-5.4126,-5.4126,-5.378,-5.4126,-5.4299,-5.4299,-5.3933,-5.4222,-5.4972,-5.4145,-5.378,-5.3741,-5.3356,-5.3203,-5.3203,-5.3203,-5.3203,-5.3203,-5.3203,-5.2895,-5.2462,-5.2462,-5.2183,-5.1631,-5.0621,-5.0194,-4.989,-4.8855,-4.8439,-4.8306,-4.8306,-4.8586,-4.8978,-4.9401,-4.98,-5.0195,-5.0604,-5.0712,-5.0712,-5.0712,-5.0712,-5.0712,-5.0712,-5.0712,-5.0712,-5.0712,-5.0712,-5.0712,-5.0712,-5.0712,-5.0712,-5.0712,-5.0712,-5.0712,-5.0712,-5.0712,-5.0712,-5.0712,-5.0712,-5.0712,-5.0712,-5.0695,-5.0699,-5.0699,-5.0956,-5.1093,-5.1093,-5.1089,-5.0953,-5.0695,-5.07,-5.0707,-5.0712,-5.0712,-5.0712,-4.6838,-4.7976,-4.9132,-5.1389,-5.2564,-5.328,-5.3702,-5.3628,-5.3371,0.0,-5.2747,0.0,0.0,0.0,0.0,0.0,0.0,0.0,0.0,0.0,0.0,0.0,0.0,0.0,0.0,0.0,0.0,0.0,0.0,-5.1828,-5.2141,-5.2613,-5.304,-5.334,-5.3257,-5.3087,-5.2876,-5.2876,-5.2991,-5.3203,-5.3203,-5.3203,-5.3203,-5.2972,-5.3222,-5.3799,-5.3145,-5.2876,-5.2856,-5.2645,-5.2568,-5.2568,-5.2568,-5.2568,-5.2568,-5.2568,-5.2145,-5.1606,-5.1606,-5.1202,-5.0575,-4.9885,-4.9575,-4.9371,-4.8676,-4.8383,-4.8306,-4.8306,-4.8513,-4.8863,-4.9371,-4.9733,-5.0068,-5.0575,-5.0712,-5.0712,-5.0712,-5.0712,-5.0712,-5.0712,-5.0712,-5.0712,-5.0712,-5.0712,-5.0712,-5.0712,-5.0712,-5.0712,-5.0712,-5.0712,-5.0712,-5.0712,-5.0712,-5.0712,-5.0712,-5.0712,-5.0712,-5.0712,-5.0695,-5.0752,-5.087,-5.1219,-5.1403,-5.1406,-5.1399,-5.1224,-5.0887,-5.0757,-5.0697,-5.07,-5.0702,-5.0712,-4.4654,-4.548,-4.6489,-4.8141,-4.9205,-5.0253,-5.1775,-5.1536,-5.1187,-5.1903,-5.1463,0.0,0.0,0.0,0.0,0.0,0.0,0.0,0.0,0.0,0.0,0.0,0.0,0.0,0.0,0.0,0.0,0.0,0.0,-5.0877,-5.0897,-5.1638,-5.2066,-5.2096,-5.2808,-5.2799,-5.1981,-5.1962,-5.2385,-5.3203,-5.3203,-5.3203,-5.3164,-5.2327,-5.1981,-5.2019,-5.1981,-5.1962,-5.1904,-5.1144,-5.0827,-5.0827,-5.0827,-5.0827,-5.0827,-5.0827,-5.0808,-5.077,-5.077,-5.075,-5.0624,-5.0214,-4.98,-4.9416,-4.9013,-4.8604,-4.8306,-4.8306,-4.8325,-4.8513,-4.9295,-4.9504,-4.9733,-5.0504,-5.0712,-5.0712,-5.0712,-5.0712,-5.0712,-5.0712,-5.0712,-5.0712,-5.0712,-5.0712,-5.0712,-5.0712,-5.0712,-5.0712,-5.0712,-5.0712,-5.0712,-5.0712,-5.0712,-5.0712,-5.0712,-5.0712,-5.0712,-5.0712,-5.0695,-5.0895,-5.1342,-5.1395,-5.1403,-5.1406,-5.1406,-5.1397,-5.1366,-5.0917,-5.0707,-5.0692,-5.0699,-5.0712,-4.4488,-4.4911,-4.5535,-4.7131,-4.8159,-4.904,-5.0141,-5.06,-5.0875,-5.1169,-5.1004,0.0,0.0,0.0,0.0,0.0,0.0,0.0,0.0,0.0,0.0,0.0,0.0,0.0,0.0,0.0,0.0,0.0,0.0,0.0,-5.0013,-5.0505,-5.0887,-5.1153,-5.1193,-5.1179,-5.1125,-5.1125,-5.1279,-5.1606,-5.1606,-5.1606,-5.1568,-5.126,-5.1125,-5.1125,-5.1125,-5.1125,-5.1106,-5.0827,-5.0712,-5.0712,-5.0712,-5.0712,-5.0712,-5.0712,-5.0712,-5.0712,-5.0712,-5.0712,-5.0624,-5.0237,-4.9827,-4.9431,-4.9011,-4.8622,-4.8306,-4.8306,-4.8306,-4.8495,-4.928,-4.9489,-4.9706,-5.0504,-5.0712,-5.0712,-5.0712,-5.0712,-5.0712,-5.0712,-5.0712,-5.0712,-5.0712,-5.0712,-5.0712,-5.0712,-5.0712,-5.0604,-5.0347,-5.0544,-5.07,-5.0703,-5.0708,-5.0712,-5.0712,-5.0712,-5.0712,-5.0712,-5.0695,-5.0782,-5.0946,-5.123,-5.1409,-5.1401,-5.1405,-5.1397,-5.1399,-5.123,-5.0985,-5.0707,-5.0708,-5.0712,-4.4158,-4.4305,-4.469,-4.6305,-4.6892,-4.7443,-4.8783,-4.9352,-4.9646,-4.9921,0.0,0.0,0.0,0.0,0.0,0.0,0.0,0.0,0.0,0.0,0.0,0.0,0.0,0.0,0.0,0.0,0.0,0.0,0.0,0.0,-4.915,-4.9509,-4.9928,-5.0492,-5.0366,-5.0421,-5.0712,-5.0712,-5.0712,-5.0712,-5.0712,-5.0712,-5.0712,-5.0712,-5.0712,-5.0712,-5.0712,-5.0712,-5.0712,-5.0712,-5.0712,-5.0712,-5.0712,-5.0712,-5.0712,-5.0712,-5.0712,-5.0712,-5.0712,-5.0712,-5.0624,-5.0237,-4.9827,-4.9431,-4.9011,-4.8622,-4.8306,-4.8306,-4.8306,-4.8458,-4.9123,-4.9504,-4.9885,-5.0544,-5.0712,-5.0712,-5.0712,-5.0712,-5.0712,-5.0712,-5.0712,-5.0712,-5.0712,-5.0712,-5.0663,-5.0523,-5.0493,-5.0391,-5.0059,-5.0278,-5.05,-5.068,-5.0698,-5.0712,-5.0712,-5.0712,-5.0712,-5.0712,-5.0705,-5.0697,-5.0707,-5.1004,-5.1164,-5.1167,-5.1172,-5.1174,-5.1164,-5.1327,-5.1166,-5.0707,-5.0708,-5.0712,0.0,0.0,0.0,-4.5443,-4.5259,-4.5296,-4.7664,0.0,-4.7278,-4.8086,0.0,0.0,0.0,0.0,0.0,0.0,0.0,0.0,0.0,0.0,0.0,0.0,0.0,0.0,0.0,0.0,0.0,0.0,0.0,-4.8343,-4.8306,-4.8692,-4.928,-5.0056,-5.0483,-5.0712,-5.0712,-5.0712,-5.0712,-5.0712,-5.0712,-5.0712,-5.0712,-5.0712,-5.0712,-5.0712,-5.0712,-5.0712,-5.0712,-5.0712,-5.0712,-5.0712,-5.0712,-5.0712,-5.0712,-5.0712,-5.0712,-5.0712,-5.0712,-5.0683,-5.0614,-5.0237,-4.9813,-4.9401,-4.9029,-4.8622,-4.8306,-4.8306,-4.8306,-4.8402,-4.8813,-4.9518,-5.0195,-5.0604,-5.0712,-5.0712,-5.0712,-5.0712,-5.0712,-5.0712,-5.0712,-5.0712,-5.0712,-5.0683,-5.0554,-5.0159,-5.008,-5.0023,-4.9877,-4.9909,-5.0115,-5.0615,-5.0683,-5.0712,-5.0712,-5.0712,-5.0712,-5.0712,-5.0712,-5.0699,-5.0692,-5.07,-5.0707,-5.0704,-5.0709,-5.0709,-5.0704,-5.1153,-5.1148,-5.0707,-5.0708,-5.0712,-4.3515,0.0,0.0,0.0,0.0,0.0,0.0,0.0,-4.6305,-4.6526,0.0,0.0,0.0,0.0,0.0,0.0,0.0,0.0,0.0,0.0,0.0,0.0,0.0,0.0,0.0,0.0,0.0,0.0,-4.9165,-4.8967,-4.8343,-4.8947,-4.9431,-4.9664,-5.0336,-5.0712,-5.0712,-5.0712,-5.0712,-5.0712,-5.0712,-5.0712,-5.0712,-5.0712,-5.0712,-5.0712,-5.0712,-5.0712,-5.0712,-5.0712,-5.0712,-5.0712,-5.0712,-5.0712,-5.0712,-5.0712,-5.0712,-5.0712,-5.0712,-5.0504,-5.0249,-5.0147,-4.9631,-4.9062,-4.8947,-4.8622,-4.8306,-4.8306,-4.8306,-4.8458,-4.9139,-4.9719,-5.0195,-5.0604,-5.0712,-5.0712,-5.0712,-5.0712,-5.0712,-5.0712,-5.0712,-5.0712,-5.0712,-5.0462,-5.0237,-5.0123,-4.984,-4.957,-4.9348,-5.0,-5.0312,-4.9874,-5.035,-5.0712,-5.0712,-5.0712,-5.0712,-5.0712,-5.0712,-5.0702,-5.069,-5.069,-5.0707,-5.0709,-5.069,-5.069,-5.069,-5.0825,-5.0831,-5.0707,-5.0708,-5.0712,-4.3515,-4.3515,-4.3588,-4.392,0.0,0.0,-4.4618,-4.5057,0.0,0.0,0.0,0.0,0.0,0.0,0.0,0.0,0.0,0.0,0.0,0.0,0.0,0.0,0.0,0.0,0.0,0.0,0.0,0.0,-4.9455,-4.9225,-4.8361,-4.9062,-4.9489,-4.9489,-5.0272,-5.0712,-5.0712,-5.0712,-5.0712,-5.0712,-5.0712,-5.0712,-5.0712,-5.0712,-5.0712,-5.0712,-5.0712,-5.0712,-5.0712,-5.0712,-5.0712,-5.0712,-5.0712,-5.0712,-5.0712,-5.0712,-5.0712,-5.0712,-5.0712,-5.0432,-5.0068,-4.9911,-4.9431,-4.8863,-4.871,-4.8477,-4.8306,-4.8306,-4.8306,-4.8439,-4.9075,-4.9547,-4.9949,-5.0347,-5.0584,-5.0712,-5.0712,-5.0712,-5.0712,-5.0712,-5.0712,-5.0712,-5.0712,-5.0358,-5.0043,-4.9866,-4.9556,-4.9192,-4.8823,-4.9599,-5.014,-5.0018,-5.042,-5.0712,-5.0712,-5.0712,-5.0712,-5.0712,-5.0712,-5.0712,-5.0712,-5.0712,-5.0712,-5.0712,-5.0712,-5.0712,-5.0712,-5.0696,-5.0698,-5.0698,-5.0701,-5.0712,-4.3515,-4.3515,-4.3663,-4.4397,-4.403,0.0,-4.4415,-4.458,-4.458,0.0,0.0,0.0,0.0,0.0,0.0,0.0,0.0,0.0,0.0,0.0,0.0,0.0,0.0,0.0,0.0,-5.0128,-4.9786,-4.8912,-4.922,-4.9114,-4.8343,-4.9029,-4.9445,-4.9489,-5.0237,-5.0644,-5.0712,-5.0712,-5.0712,-5.0712,-5.0712,-5.0712,-5.0712,-5.0712,-5.0654,-5.0558,-5.0558,-5.05,-5.0423,-5.0423,-5.0539,-5.0712,-5.0712,-5.0712,-5.0712,-5.0712,-5.0712,-5.0712,-5.0712,-5.041,-4.9974,-4.9622,-4.9202,-4.8761,-4.8402,-4.8306,-4.8306,-4.8306,-4.8306,-4.8383,-4.8796,-4.9202,-4.9589,-4.9999,-5.041,-5.0712,-5.0712,-5.0712,-5.0712,-5.0712,-5.0712,-5.0683,-5.0634,-5.0313,-4.9898,-4.9508,-4.9209,-4.8874,-4.8474,-4.9079,-4.9836,-5.0625,-5.0712,-5.0712,-5.0712,-5.0712,-5.0712,-5.0712,-5.0712,-5.0712,-5.0712,-5.0712,-5.0712,-5.0712,-5.0712,-5.0712,-5.0712,-5.0712,-5.0712,-5.0712,-5.0712,-5.0712,-4.3515,-4.3515,-4.3551,-4.3681,-4.3608,0.0,-4.3699,-4.3718,-4.3718,0.0,0.0,0.0,0.0,0.0,0.0,0.0,0.0,0.0,0.0,0.0,0.0,0.0,0.0,0.0,0.0,-5.1379,-5.1316,-5.0433,-4.9238,-4.8489,-4.8324,-4.8763,-4.9171,-4.9489,-4.9962,-5.0369,-5.0702,-5.0712,-5.0712,-5.0712,-5.0712,-5.0712,-5.0712,-5.0712,-5.0327,-4.9644,-4.9644,-4.926,-4.8606,-4.8606,-4.9433,-5.0712,-5.0712,-5.0712,-5.0712,-5.0712,-5.0712,-5.0712,-5.0712,-5.0218,-4.9589,-4.9537,-4.9013,-4.8402,-4.8307,-4.8306,-4.8306,-4.8306,-4.8306,-4.8383,-4.8796,-4.9202,-4.9589,-4.9999,-5.041,-5.0712,-5.0712,-5.0712,-5.0712,-5.0712,-5.0712,-5.0604,-5.0272,-4.9866,-4.9527,-4.9222,-4.877,-4.8642,-4.9186,-4.958,-5.0058,-5.0644,-5.0712,-5.0712,-5.0712,-5.0712,-5.0712,-5.0712,-5.0712,-5.0712,-5.0712,-5.0712,-5.0712,-5.0712,-5.0712,-5.0712,-5.0712,-5.0712,-5.0712,-5.0712,-5.0712,-5.0712,-4.3515,-4.3515,-4.3515,-4.3515,-4.3515,0.0,0.0,-4.3515,-4.3515,-4.3515,-4.3515,0.0,0.0,0.0,0.0,0.0,0.0,0.0,0.0,0.0,0.0,0.0,0.0,0.0,0.0,-5.1293,-5.1153,-5.0266,-4.8747,-4.7977,-4.8287,-4.8403,-4.877,-4.9475,-4.9898,-5.0283,-5.0702,-5.0269,-5.0048,-5.0048,-4.9606,-4.9394,-4.9394,-4.9394,-4.9163,-4.8759,-4.8759,-4.8509,-4.8105,-4.8105,-4.8606,-4.9394,-4.9394,-4.9394,-4.9394,-4.9394,-4.9394,-4.9394,-4.9394,-4.9148,-4.8848,-4.8848,-4.8611,-4.8306,-4.8306,-4.8306,-4.8306,-4.8306,-4.8306,-4.8345,-4.855,-4.9046,-4.9547,-4.976,-5.026,-5.0712,-5.0712,-5.0366,-5.0048,-5.0048,-5.0048,-5.0065,-5.0095,-4.9887,-4.9558,-4.9162,-4.8981,-4.9044,-4.9449,-4.9976,-5.0396,-5.0673,-5.0308,-5.0048,-5.0048,-5.0462,-5.0702,-5.0712,-5.0702,-5.0702,-5.0712,-5.0712,-5.0712,-5.0712,-5.0712,-5.0712,-5.0712,-5.0712,-5.0712,-5.0712,-5.0712,-5.0712,-4.3515,-4.3515,-4.3515,-4.3515,-4.3515,-4.3515,0.0,0.0,0.0,-4.3515,0.0,0.0,0.0,0.0,0.0,0.0,0.0,0.0,0.0,0.0,0.0,0.0,0.0,0.0,0.0,-5.0417,-5.0112,-4.9468,-4.8125,-4.7572,-4.8094,-4.8161,-4.8595,-4.9475,-4.9727,-5.0034,-5.0452,-4.9586,-4.9144,-4.9144,-4.8432,-4.8105,-4.8105,-4.8105,-4.8029,-4.7875,-4.7875,-4.7751,-4.754,-4.7587,-4.7578,-4.7559,-4.7952,-4.8105,-4.8105,-4.8105,-4.8105,-4.8105,-4.8105,-4.8041,-4.798,-4.798,-4.7905,-4.7847,-4.7847,-4.7847,-4.7847,-4.7847,-4.7847,-4.7884,-4.8031,-4.8624,-4.9213,-4.9437,-5.0056,-5.0566,-5.0462,-4.9894,-4.9394,-4.9394,-4.9394,-4.9469,-4.9706,-4.9828,-4.9715,-4.9179,-4.9332,-4.9556,-4.9707,-5.0298,-5.0635,-5.0481,-4.9817,-4.9336,-4.9163,-4.9797,-5.0192,-5.0192,-5.051,-5.0692,-5.0701,-5.0701,-5.0702,-5.0693,-5.0712,-5.0712,-5.0712,-5.0712,-5.0712,-5.0712,-5.0693,-5.0693,-4.3515,-4.3515,-4.3515,-4.3515,-4.3515,-4.3515,-4.3515,0.0,-4.3515,-4.3515,0.0,0.0,0.0,0.0,0.0,0.0,0.0,0.0,0.0,0.0,0.0,0.0,0.0,0.0,0.0,0.0,0.0,-4.8728,-4.7735,-4.7247,-4.7494,-4.8329,-4.9008,-4.9475,-4.9144,-4.9143,-4.9548,-4.8682,-4.8259,-4.8259,-4.8144,-4.8105,-4.8105,-4.8105,-4.7721,-4.7038,-4.7038,-4.6417,-4.5458,-4.5754,-4.5707,-4.5611,-4.7405,-4.8105,-4.8105,-4.8105,-4.8105,-4.8105,-4.8105,-4.7689,-4.7145,-4.7145,-4.669,-4.6177,-4.6177,-4.6177,-4.6177,-4.6177,-4.6177,-4.6342,-4.7039,-4.7566,-4.8162,-4.9246,-4.984,-5.005,-4.9634,-4.9471,-4.9394,-4.9394,-4.9394,-4.9196,-4.8518,-4.923,-4.9721,-4.9176,-4.9336,-4.9759,-5.0468,-5.0645,-5.0404,-4.9625,-4.9452,-4.9086,-4.8317,-4.8336,-4.8413,-4.8404,-4.9856,-5.0689,-5.0689,-5.0697,-5.0706,-5.0693,-5.0712,-5.0712,-5.0712,-5.0712,-5.0712,-5.0712,-5.0693,-5.0712,-4.3852,-4.3788,-4.374,0.0,0.0,0.0,-4.3515,0.0,-4.3515,0.0,0.0,0.0,0.0,0.0,0.0,0.0,0.0,0.0,0.0,0.0,0.0,0.0,0.0,0.0,0.0,0.0,0.0,0.0,0.0,-4.6961,-4.7881,-4.8198,-4.8717,-4.9475,-4.9049,-4.899,-4.9394,-4.8067,-4.7413,-4.7413,-4.6894,-4.6644,-4.6644,-4.6644,-4.6471,-4.6135,-4.5937,-4.5566,-4.5107,-4.5243,-4.5222,-4.5205,-4.6244,-4.6644,-4.6644,-4.6644,-4.6541,-4.6365,-4.6365,-4.6182,-4.6001,-4.6257,-4.6147,-4.5902,-4.5902,-4.5902,-4.5902,-4.5902,-4.5902,-4.6085,-4.6892,-4.7571,-4.8277,-4.9271,-4.9993,-5.0263,-4.9548,-4.899,-4.8644,-4.8644,-4.8385,-4.82,-4.82,-4.9016,-4.9597,-4.9377,-4.9822,-5.0323,-5.0659,-5.0258,-4.9798,-4.9433,-4.8529,-4.7798,-4.7432,-4.6932,-4.6654,-4.6646,-4.9211,-5.0816,-5.1093,-5.0848,-5.0689,-5.0698,-5.0701,-5.0712,-5.0712,-5.0712,-5.0712,-5.0712,-5.0702,-4.9644,-4.4073,0.0,0.0,0.0,0.0,0.0,0.0,0.0,0.0,0.0,0.0,0.0,0.0,0.0,-4.3515,-4.3515,0.0,-4.3515,0.0,0.0,0.0,0.0,0.0,0.0,0.0,0.0,0.0,0.0,0.0,0.0,-4.7652,-4.7721,-4.8153,-4.9116,-4.8573,-4.8416,-4.8721,-4.7278,-4.6547,-4.6547,-4.5893,-4.5594,-4.5594,-4.5594,-4.5559,-4.5448,-4.5211,-4.5052,-4.4954,-4.4954,-4.5019,-4.5118,-4.5362,-4.5513,-4.5594,-4.5594,-4.539,-4.5096,-4.5096,-4.499,-4.4907,-4.5161,-4.5241,-4.5241,-4.5241,-4.5241,-4.5241,-4.5241,-4.5241,-4.548,-4.6489,-4.7287,-4.8027,-4.8928,-4.9669,-4.9921,-4.9019,-4.8336,-4.7788,-4.7491,-4.7472,-4.7809,-4.8723,-4.9403,-4.9775,-4.963,-5.0238,-5.0711,-5.0692,-4.9933,-4.9317,-4.9067,-4.7759,-4.6797,-4.6567,-4.5951,-4.5603,-4.559,-4.8922,-5.1036,-5.1386,-5.107,-5.0836,-5.0695,-5.0739,-5.074,-5.0712,-5.0712,-5.0712,-5.0712,-5.0693,-4.9365,0.0,0.0,0.0,-4.3496,0.0,0.0,0.0,0.0,-4.3515,0.0,0.0,0.0,0.0,-4.3515,-4.3515,-4.3515,-4.3515,0.0,0.0,0.0,0.0,0.0,0.0,0.0,0.0,0.0,0.0,0.0,0.0,0.0,-4.6217,-4.675,-4.7401,-4.8225,-4.7409,-4.6981,-4.6981,-4.6086,-4.5633,-4.5633,-4.5614,-4.5594,-4.5594,-4.5594,-4.5419,-4.5126,-4.5096,-4.4919,-4.4624,-4.4624,-4.4812,-4.5096,-4.5107,-4.5312,-4.5594,-4.5594,-4.539,-4.5096,-4.5096,-4.4644,-4.3977,-4.3688,-4.3588,-4.3588,-4.3588,-4.3588,-4.3588,-4.3588,-4.3588,-4.3938,-4.5535,-4.6252,-4.6838,-4.797,-4.8567,-4.859,-4.7578,-4.7346,-4.6992,-4.5898,-4.6972,-4.8625,-5.0327,-5.0637,-5.0498,-4.9978,-5.0352,-5.0711,-5.0692,-4.9933,-4.9086,-4.824,-4.7413,-4.6567,-4.571,-4.5614,-4.5594,-4.5606,-4.9246,-5.1379,-5.1391,-5.1392,-5.1152,-5.0722,-5.0823,-5.0819,-5.0712,-5.0712,-5.0712,-5.0712,-5.0693,-5.0635,0.0,0.0,-4.411,-4.3614,0.0,0.0,0.0,0.0,0.0,0.0,0.0,0.0,0.0,-4.3818,-4.3775,-4.3531,-4.3515,-4.3515,0.0,0.0,0.0,0.0,0.0,0.0,0.0,0.0,0.0,0.0,0.0,0.0,0.0,-4.6629,-4.7127,-4.7396,-4.7087,-4.6904,-4.6904,-4.6028,-4.5594,-4.5594,-4.5594,-4.5594,-4.5586,-4.5362,-4.5211,-4.5074,-4.4568,-4.4318,-4.4219,-4.4487,-4.4676,-4.4806,-4.5253,-4.5504,-4.5594,-4.5594,-4.5253,-4.4695,-4.4209,-4.3884,-4.3646,-4.3531,-4.3515,-4.3515,-4.3515,-4.3515,-4.3515,-4.3515,-4.3515,-4.3736,-4.4837,-4.5579,-4.6309,-4.7471,-4.8355,-4.872,-4.799,-4.7826,-4.7722,-4.7328,-4.6819,-4.7357,-5.0221,-5.069,-5.0628,-5.0455,-4.9927,-4.9642,-4.9827,-4.8606,-4.7625,-4.7336,-4.6547,-4.5913,-4.5633,-4.5611,-4.5725,-4.6035,-4.9416,-5.139,-5.1403,-5.1408,-5.1252,-5.0967,-5.0913,-5.0827,-5.0712,-5.0712,-5.0712,-5.0712,-5.0702,-5.0693,-4.4707,-4.4501,0.0,-4.3788,-4.3791,0.0,-4.4146,0.0,0.0,0.0,0.0,0.0,0.0,-4.4106,-4.3924,-4.371,-4.358,-4.3515,0.0,-4.3515,0.0,0.0,0.0,-4.4268,0.0,0.0,-4.4488,-4.5002,0.0,0.0,0.0,0.0,-4.6278,-4.6566,-4.6494,-4.6432,-4.6432,-4.5874,-4.5594,-4.5594,-4.5594,-4.555,-4.5419,-4.5201,-4.4954,-4.4676,-4.4219,-4.4001,-4.4013,-4.4276,-4.4553,-4.4825,-4.5253,-4.5495,-4.5594,-4.5594,-4.5171,-4.4487,-4.3761,-4.3515,-4.3515,-4.3515,-4.3515,-4.3515,-4.3515,-4.3515,-4.3515,-4.3515,-4.3515,-4.3681,-4.4488,-4.5263,-4.6003,-4.6736,-4.7807,-4.8414,-4.7423,-4.7202,-4.7568,-4.8788,-4.8154,-4.8116,-5.0317,-5.0693,-5.0702,-5.0693,-5.0067,-4.9663,-4.9837,-4.8644,-4.7798,-4.7798,-4.6759,-4.5967,-4.5684,-4.5673,-4.5852,-4.6263,-4.9508,-5.1398,-5.1406,-5.1398,-5.1342,-5.1219,-5.1089,-5.0916,-5.0698,-5.0692,-5.0712,-5.0712,-5.0712,-5.0712]},{"header":{"parameterUnit":"m.s-1","parameterCategory":1,"la1":30.6,"la2":29.2853,"lo1":-89.7004,"lo2":-87.6739,"dy":0.0162,"dx":0.0183,"nx":112,"ny":82,"refTime":"2024-06-05T06:00:00:Z","depth":0,"parameterNumber":3,"parameterNumberName":"V-component_of_WINDS"},"data":[0.0,0.0,0.0,0.0,0.0,0.0,0.0,0.0,0.0,0.0,0.0,0.0,0.0,0.0,0.0,0.0,0.0,0.0,0.0,0.0,0.0,0.0,0.0,0.0,0.0,0.0,0.0,0.0,0.0,0.0,0.0,0.0,0.0,0.0,0.0,0.0,0.0,0.0,0.0,0.0,0.0,0.0,0.0,0.0,0.0,0.0,0.0,0.0,0.0,0.0,0.0,0.0,0.0,0.0,0.0,0.0,0.0,0.0,0.0,0.0,0.0,0.0,0.0,0.0,0.0,0.0,0.0,0.0,0.0,0.0,0.0,0.0,0.0,0.0,0.0,0.0,0.0,0.0,0.0,0.0,0.0,0.0,0.0,0.0,0.0,0.0,0.0,0.0,0.0,0.0,-1.0189,-1.0813,-1.1307,-1.1548,-1.1548,-1.1409,-1.2293,-1.4625,0.0,0.0,0.0,0.0,0.0,0.0,0.0,0.0,0.0,0.0,0.0,0.0,0.0,0.0,0.0,0.0,0.0,0.0,0.0,0.0,0.0,0.0,0.0,0.0,0.0,0.0,0.0,0.0,0.0,0.0,0.0,0.0,0.0,0.0,0.0,0.0,0.0,0.0,0.0,0.0,0.0,0.0,0.0,0.0,0.0,0.0,0.0,0.0,0.0,0.0,0.0,0.0,0.0,0.0,0.0,0.0,0.0,0.0,0.0,0.0,0.0,0.0,0.0,0.0,0.0,0.0,0.0,0.0,0.0,0.0,0.0,0.0,0.0,0.0,0.0,0.0,0.0,0.0,0.0,0.0,0.0,0.0,0.0,0.0,0.0,0.0,0.0,0.0,0.0,0.0,0.0,0.0,0.0,0.0,0.0,0.0,0.0,0.0,0.0,0.0,0.0,0.0,0.0,0.0,-1.0137,-1.0803,-1.1118,-1.1229,-1.1229,-1.1101,-1.2047,-1.4668,0.0,0.0,0.0,0.0,0.0,0.0,0.0,0.0,0.0,0.0,0.0,0.0,0.0,0.0,0.0,0.0,0.0,0.0,0.0,0.0,0.0,0.0,0.0,0.0,0.0,0.0,0.0,0.0,0.0,0.0,0.0,0.0,0.0,0.0,0.0,0.0,0.0,0.0,0.0,0.0,0.0,0.0,0.0,0.0,0.0,0.0,0.0,0.0,0.0,0.0,0.0,0.0,0.0,0.0,0.0,0.0,0.0,0.0,0.0,0.0,0.0,0.0,0.0,0.0,0.0,0.0,0.0,0.0,0.0,0.0,0.0,0.0,0.0,0.0,0.0,0.0,0.0,0.0,0.0,0.0,0.0,0.0,0.0,0.0,0.0,0.0,0.0,0.0,0.0,0.0,0.0,0.0,0.0,0.0,0.0,0.0,0.0,0.0,0.0,0.0,0.0,0.0,0.0,-0.9985,-1.0297,-1.0816,-1.1077,-1.1131,-1.1053,-1.0917,-1.1593,-1.3176,-1.3473,0.0,0.0,0.0,0.0,0.0,0.0,0.0,0.0,0.0,0.0,0.0,0.0,0.0,0.0,0.0,0.0,0.0,0.0,0.0,0.0,0.0,0.0,0.0,0.0,0.0,0.0,0.0,0.0,0.0,0.0,0.0,0.0,0.0,0.0,0.0,0.0,0.0,0.0,0.0,0.0,0.0,0.0,0.0,0.0,0.0,0.0,0.0,0.0,0.0,0.0,0.0,0.0,0.0,0.0,0.0,0.0,0.0,0.0,0.0,0.0,0.0,0.0,0.0,0.0,0.0,0.0,0.0,0.0,0.0,0.0,0.0,0.0,0.0,0.0,0.0,0.0,0.0,0.0,0.0,0.0,0.0,0.0,0.0,0.0,0.0,0.0,0.0,0.0,0.0,0.0,0.0,0.0,0.0,0.0,0.0,0.0,0.0,0.0,0.0,0.0,0.0,0.0,-1.0276,-1.0517,-1.0793,-1.0992,-1.1012,-1.0836,-1.0799,-1.1099,-1.1896,-1.2692,0.0,0.0,0.0,0.0,0.0,0.0,0.0,0.0,0.0,0.0,0.0,0.0,0.0,0.0,0.0,0.0,0.0,0.0,0.0,0.0,0.0,0.0,0.0,0.0,0.0,0.0,0.0,0.0,0.0,0.0,0.0,0.0,0.0,0.0,0.0,0.0,0.0,0.0,0.0,0.0,0.0,0.0,0.0,0.0,0.0,0.0,0.0,0.0,0.0,0.0,0.0,0.0,0.0,0.0,0.0,0.0,0.0,0.0,0.0,0.0,0.0,0.0,0.0,0.0,0.0,0.0,0.0,0.0,0.0,0.0,0.0,0.0,0.0,0.0,0.0,0.0,0.0,0.0,0.0,0.0,0.0,0.0,0.0,0.0,0.0,0.0,0.0,0.0,0.0,0.0,0.0,0.0,0.0,0.0,0.0,0.0,0.0,0.0,0.0,0.0,0.0,0.0,-1.0263,-1.07,-1.0731,-1.0744,-1.0748,-1.0738,-1.0354,-1.0642,-1.1753,-1.2335,0.0,0.0,0.0,0.0,0.0,0.0,0.0,0.0,0.0,0.0,0.0,0.0,0.0,0.0,0.0,0.0,0.0,0.0,0.0,0.0,0.0,0.0,0.0,0.0,0.0,0.0,0.0,0.0,0.0,0.0,0.0,0.0,0.0,0.0,0.0,0.0,0.0,0.0,0.0,0.0,0.0,0.0,0.0,0.0,0.0,0.0,0.0,0.0,0.0,0.0,0.0,0.0,0.0,0.0,0.0,0.0,0.0,0.0,0.0,0.0,0.0,0.0,0.0,0.0,0.0,0.0,0.0,0.0,0.0,0.0,0.0,0.0,0.0,0.0,0.0,0.0,0.0,0.0,0.0,0.0,0.0,0.0,0.0,0.0,0.0,0.0,0.0,0.0,0.0,0.0,0.0,0.0,0.0,0.0,0.0,0.0,0.0,0.0,0.0,0.0,0.0,0.0,-0.993,-1.0304,-1.068,-1.0721,-1.0721,-1.0721,-1.0477,-1.0367,-1.0402,0.0,0.0,0.0,0.0,0.0,0.0,0.0,0.0,0.0,0.0,0.0,0.0,0.0,0.0,0.0,0.0,0.0,0.0,0.0,0.0,0.0,0.0,0.0,0.0,0.0,0.0,0.0,0.0,0.0,0.0,0.0,0.0,0.0,0.0,0.0,0.0,0.0,0.0,0.0,0.0,0.0,0.0,0.0,0.0,0.0,0.0,0.0,0.0,0.0,0.0,0.0,0.0,0.0,0.0,0.0,0.0,0.0,0.0,0.0,0.0,0.0,0.0,0.0,0.0,0.0,0.0,0.0,0.0,0.0,0.0,0.0,0.0,0.0,0.0,0.0,0.0,0.0,0.0,0.0,0.0,0.0,0.0,0.0,0.0,0.0,0.0,0.0,0.0,0.0,0.0,0.0,0.0,0.0,0.0,0.0,0.0,0.0,0.0,0.0,0.0,0.0,0.0,-0.9462,-0.9829,-1.0212,-1.067,-1.0721,-1.07,-1.0653,-1.0382,-0.9998,-0.9496,0.0,0.0,0.0,0.0,0.0,0.0,0.0,0.0,0.0,0.0,0.0,0.0,0.0,0.0,0.0,0.0,0.0,0.0,0.0,0.0,0.0,0.0,0.0,0.0,0.0,0.0,0.0,0.0,0.0,0.0,0.0,0.0,0.0,0.0,0.0,0.0,0.0,0.0,0.0,0.0,0.0,0.0,0.0,0.0,0.0,0.0,0.0,0.0,0.0,0.0,0.0,0.0,0.0,0.0,0.0,0.0,0.0,0.0,0.0,0.0,0.0,0.0,0.0,0.0,0.0,0.0,0.0,0.0,0.0,0.0,0.0,0.0,0.0,0.0,0.0,0.0,0.0,0.0,0.0,0.0,0.0,0.0,0.0,0.0,0.0,0.0,0.0,0.0,0.0,0.0,0.0,0.0,0.0,0.0,0.0,0.0,0.0,0.0,0.0,0.0,0.0,0.0,-0.9357,-1.0025,-1.0548,-1.07,-1.0714,-1.0653,-1.0504,-0.9951,-0.9483,0.0,0.0,0.0,0.0,0.0,0.0,0.0,0.0,0.0,0.0,0.0,0.0,0.0,0.0,0.0,0.0,0.0,0.0,0.0,0.0,0.0,0.0,0.0,0.0,0.0,0.0,0.0,0.0,0.0,0.0,0.0,0.0,0.0,0.0,0.0,0.0,0.0,0.0,0.0,0.0,0.0,0.0,0.0,0.0,0.0,0.0,0.0,0.0,0.0,0.0,0.0,0.0,0.0,0.0,0.0,0.0,0.0,0.0,0.0,0.0,0.0,0.0,0.0,0.0,0.0,0.0,0.0,0.0,0.0,0.0,0.0,0.0,0.0,0.0,0.0,0.0,0.0,0.0,0.0,0.0,0.0,0.0,0.0,0.0,0.0,0.0,0.0,0.0,0.0,0.0,0.0,0.0,0.0,0.0,0.0,0.0,0.0,0.0,0.0,0.0,0.0,0.0,0.0,-0.9258,-0.9781,-1.0239,-1.0392,-1.0412,-1.0392,-1.0348,-0.9985,-0.9585,-0.9234,0.0,0.0,0.0,0.0,0.0,0.0,0.0,0.0,0.0,0.0,0.0,0.0,0.0,0.0,0.0,0.0,0.0,0.0,0.0,0.0,0.0,0.0,0.0,0.0,0.0,0.0,0.0,0.0,0.0,0.0,0.0,0.0,0.0,0.0,0.0,0.0,0.0,0.0,0.0,0.0,0.0,0.0,0.0,0.0,0.0,0.0,0.0,0.0,0.0,0.0,0.0,0.0,0.0,0.0,0.0,0.0,0.0,0.0,0.0,0.0,0.0,0.0,0.0,0.0,0.0,0.0,0.0,0.0,0.0,0.0,0.0,0.0,0.0,0.0,0.0,0.0,0.0,0.0,0.0,0.0,0.0,0.0,0.0,0.0,0.0,0.0,0.0,0.0,0.0,0.0,0.0,0.0,0.0,0.0,0.0,0.0,0.0,0.0,0.0,0.0,0.0,0.0,-0.9183,-0.9625,-1.0042,-1.0256,-1.028,-1.0256,-1.0195,-0.991,-0.9544,-0.9096,0.0,0.0,0.0,0.0,0.0,0.0,0.0,0.0,0.0,0.0,0.0,0.0,0.0,0.0,0.0,0.0,0.0,0.0,0.0,0.0,0.0,0.0,0.0,0.0,0.0,0.0,0.0,0.0,0.0,0.0,0.0,0.0,0.0,0.0,0.0,0.0,0.0,0.0,0.0,0.0,0.0,0.0,0.0,0.0,0.0,0.0,0.0,0.0,0.0,0.0,0.0,0.0,0.0,0.0,0.0,0.0,0.0,0.0,0.0,0.0,0.0,0.0,0.0,0.0,0.0,0.0,0.0,0.0,0.0,0.0,0.0,0.0,0.0,0.0,0.0,0.0,0.0,0.0,0.0,0.0,0.0,0.0,0.0,0.0,0.0,0.0,0.0,0.0,0.0,0.0,0.0,0.0,0.0,0.0,0.0,0.0,0.0,0.0,0.0,0.0,0.0,0.0,-0.9152,-0.9523,-0.9914,-1.0205,-1.0239,-1.0181,-0.9977,-0.9758,-0.9401,-0.8912,0.0,0.0,0.0,0.0,0.0,0.0,0.0,0.0,0.0,0.0,0.0,0.0,0.0,0.0,0.0,0.0,0.0,0.0,0.0,0.0,0.0,0.0,0.0,0.0,0.0,0.0,0.0,0.0,0.0,0.0,0.0,0.0,0.0,0.0,0.0,0.0,0.0,0.0,0.0,0.0,0.0,0.0,0.0,0.0,0.0,0.0,0.0,0.0,0.0,0.0,0.0,0.0,0.0,0.0,0.0,0.0,0.0,0.0,0.0,0.0,-0.9615,0.0,0.0,0.0,0.0,0.0,0.0,0.0,0.0,0.0,0.0,0.0,0.0,0.0,0.0,0.0,0.0,0.0,0.0,0.0,0.0,0.0,0.0,0.0,0.0,0.0,0.0,0.0,0.0,0.0,0.0,0.0,0.0,0.0,0.0,0.0,0.0,0.0,0.0,0.0,0.0,0.0,-0.896,-0.9378,-0.9724,-0.99,-0.9917,-0.9907,-0.9873,-0.9598,-0.9289,-0.8905,-0.852,0.0,0.0,0.0,0.0,0.0,0.0,0.0,0.0,0.0,0.0,0.0,0.0,0.0,0.0,0.0,0.0,0.0,0.0,0.0,0.0,0.0,0.0,0.0,0.0,0.0,0.0,0.0,0.0,0.0,0.0,0.0,0.0,0.0,0.0,0.0,0.0,0.0,0.0,0.0,0.0,0.0,0.0,0.0,0.0,0.0,0.0,0.0,0.0,0.0,0.0,0.0,0.0,0.0,0.0,0.0,0.0,0.0,0.0,0.0,0.0,-0.9819,0.0,0.0,0.0,0.0,0.0,0.0,0.0,0.0,0.0,0.0,0.0,0.0,0.0,0.0,0.0,0.0,0.0,0.0,0.0,0.0,0.0,0.0,0.0,0.0,0.0,0.0,0.0,0.0,0.0,0.0,0.0,0.0,0.0,0.0,0.0,0.0,0.0,0.0,0.0,0.0,-0.8854,-0.9266,-0.9581,-0.9798,-0.9758,-0.972,-0.972,-0.9445,-0.9178,-0.8898,-0.852,0.0,0.0,0.0,0.0,0.0,0.0,0.0,0.0,0.0,0.0,0.0,0.0,0.0,0.0,0.0,0.0,0.0,0.0,0.0,0.0,0.0,0.0,0.0,0.0,0.0,0.0,0.0,0.0,0.0,0.0,0.0,0.0,0.0,0.0,0.0,0.0,0.0,0.0,0.0,0.0,0.0,0.0,0.0,0.0,0.0,0.0,0.0,0.0,0.0,0.0,0.0,0.0,0.0,-1.0609,-1.0677,-1.0792,-1.0666,-1.0609,-1.0595,-1.0351,-1.0259,-1.0259,0.0,0.0,0.0,0.0,0.0,0.0,0.0,0.0,0.0,0.0,0.0,0.0,0.0,0.0,0.0,0.0,0.0,0.0,0.0,0.0,0.0,0.0,0.0,0.0,0.0,-0.9242,-0.932,0.0,0.0,0.0,0.0,0.0,0.0,0.0,0.0,0.0,0.0,0.0,0.0,-0.8807,-0.9157,-0.9445,-0.9717,-0.9639,-0.9568,-0.9568,-0.9313,-0.9093,-0.8892,-0.854,-0.8238,0.0,0.0,0.0,0.0,0.0,0.0,0.0,0.0,0.0,0.0,0.0,0.0,0.0,0.0,0.0,0.0,0.0,0.0,0.0,0.0,0.0,0.0,0.0,0.0,0.0,0.0,0.0,0.0,0.0,0.0,0.0,0.0,0.0,0.0,0.0,0.0,0.0,0.0,0.0,0.0,0.0,0.0,0.0,0.0,0.0,0.0,0.0,-0.9293,-1.1046,-1.1046,-1.1125,-1.1142,-1.1142,-1.1152,-1.1104,-1.1152,-1.1142,-1.1142,-1.1033,0.0,-1.0276,-1.0236,0.0,0.0,0.0,0.0,0.0,0.0,0.0,0.0,0.0,0.0,0.0,0.0,0.0,0.0,0.0,0.0,0.0,0.0,0.0,0.0,0.0,0.0,-0.9696,-0.9554,-0.9551,-0.9564,0.0,-0.9184,-0.8804,-0.8686,0.0,0.0,0.0,0.0,0.0,0.0,0.0,0.0,-0.8716,-0.8998,-0.9306,-0.9422,-0.9422,-0.9412,-0.9412,-0.9309,-0.9093,-0.8892,-0.8632,-0.8391,-0.8245,-0.7963,0.0,0.0,0.0,0.0,0.0,0.0,0.0,0.0,0.0,0.0,0.0,0.0,0.0,0.0,0.0,0.0,0.0,0.0,0.0,0.0,0.0,0.0,0.0,0.0,0.0,0.0,0.0,0.0,0.0,0.0,0.0,0.0,0.0,0.0,0.0,0.0,0.0,0.0,0.0,0.0,0.0,0.0,0.0,-0.5677,-0.8672,-1.0642,-1.1419,-1.1335,-1.1335,-1.1419,-1.1331,-1.1338,-1.1416,-1.1331,-1.129,-1.128,-1.1114,-1.0894,-1.0649,-1.0565,-1.0351,-1.0066,0.0,0.0,0.0,0.0,0.0,-0.9656,-0.9842,0.0,0.0,0.0,0.0,0.0,0.0,0.0,0.0,0.0,0.0,0.0,0.0,0.0,0.0,-0.9724,-0.9727,-0.9727,-0.9727,-0.9574,-0.934,0.0,-0.8961,-0.8815,-0.8445,0.0,0.0,0.0,0.0,-0.8665,-0.8818,-0.9022,-0.9268,-0.9364,-0.9361,-0.9309,-0.9309,-0.912,-0.8971,-0.8818,-0.8604,-0.8418,-0.8327,-0.8058,-0.8396,0.0,0.0,0.0,0.0,0.0,0.0,0.0,0.0,0.0,0.0,0.0,0.0,0.0,0.0,0.0,0.0,0.0,0.0,0.0,0.0,0.0,0.0,0.0,0.0,0.0,0.0,0.0,0.0,0.0,0.0,0.0,0.0,0.0,0.0,0.0,0.0,0.0,0.0,0.0,-0.0777,-0.4035,-0.6076,-0.6635,-0.9951,-1.1731,-1.1731,-1.1619,-1.1599,-1.1674,-1.1558,-1.1545,-1.1616,-1.1501,-1.145,-1.1436,-1.1175,-1.104,-1.0989,-1.0799,-1.0568,-1.0324,-1.0209,-1.007,-0.9951,-1.0066,-1.0059,-1.0036,-1.0334,-1.0317,-1.0081,-1.0029,0.0,-0.9588,-0.9174,0.0,0.0,0.0,0.0,-0.933,-0.9595,0.0,-0.969,-0.9795,-0.9822,-0.9822,-0.9822,-0.9822,-0.9713,0.0,-0.9296,-0.9135,-0.8669,0.0,0.0,0.0,0.0,-0.875,-0.8811,-0.9008,-0.914,-0.9256,-0.9167,-0.9096,-0.9096,-0.8964,-0.8832,-0.8716,-0.8533,-0.8381,-0.8327,-0.8123,-0.8357,-0.9056,0.0,0.0,0.0,0.0,0.0,0.0,0.0,0.0,0.0,0.0,0.0,0.0,0.0,0.0,0.0,0.0,0.0,0.0,0.0,0.0,0.0,0.0,0.0,0.0,0.0,0.0,0.0,0.0,0.0,0.0,0.0,0.0,0.0,0.0,0.0,0.0,0.0,-0.086,-0.2828,-0.491,-0.6935,-0.8943,-1.0989,-1.204,-1.204,-1.2108,-1.1959,-1.182,-1.1813,-1.1742,-1.1619,-1.1609,-1.1606,-1.1599,-1.144,-1.1284,-1.1128,-1.0839,-1.0626,-1.048,-1.0473,-1.0382,-1.0256,-1.0266,-1.0348,-1.0443,-1.0331,-1.0371,-1.047,-1.046,-1.0164,-0.9754,-0.9452,-0.9259,0.0,0.0,-0.9473,-0.9622,-0.9771,-0.9812,-0.9812,-0.9819,-0.9822,-0.9822,-0.9822,-0.9822,-0.9774,0.0,-0.9469,-0.9273,-0.8912,0.0,-0.8648,-0.8492,-0.8608,-0.8713,-0.872,-0.8855,-0.8898,-0.8905,-0.8898,-0.8895,-0.8895,-0.8808,-0.872,-0.871,-0.8442,-0.833,-0.8323,-0.8123,-0.7967,-0.7911,-0.7901,0.0,0.0,0.0,0.0,0.0,0.0,0.0,0.0,0.0,0.0,0.0,0.0,0.0,0.0,0.0,0.0,0.0,0.0,0.0,0.0,0.0,0.0,0.0,0.0,0.0,0.0,0.0,0.0,0.0,0.0,0.0,0.0,0.0,0.0,0.0,0.0,-0.0888,-0.3014,-0.5067,-0.7147,-0.9272,-1.1314,-1.2345,-1.2345,-1.2254,-1.2132,-1.1979,-1.1877,-1.1755,-1.1619,-1.1619,-1.1619,-1.1606,-1.1355,-1.1212,-1.1138,-1.0843,-1.0687,-1.0639,-1.0639,-1.0609,-1.0565,-1.0565,-1.0595,-1.0633,-1.0582,-1.0599,-1.0622,-1.0524,-1.0324,-1.008,-0.9873,-0.9774,-0.972,-0.9676,-0.9703,-0.9758,-0.9808,-0.9822,-0.9822,-0.9822,-0.9822,-0.9822,-0.9822,-0.9822,-0.9805,-0.9754,-0.9629,-0.9432,-0.913,-0.9032,-0.8913,-0.8665,-0.876,-0.8804,-0.8804,-0.8851,-0.8885,-0.8885,-0.8885,-0.8844,-0.8801,-0.8743,-0.8628,-0.8438,-0.833,-0.8225,-0.8126,-0.8019,-0.7965,-0.7911,-0.7862,-0.7827,0.0,0.0,0.0,0.0,0.0,0.0,0.0,0.0,0.0,0.0,0.0,0.0,0.0,0.0,0.0,0.0,0.0,0.0,0.0,0.0,0.0,0.0,0.0,0.0,0.0,0.0,0.0,0.0,0.0,0.0,0.0,0.0,0.0,0.0,0.0,-0.1215,-0.4018,-0.5564,-0.7596,-1.0385,-1.1795,-1.2501,-1.2501,-1.241,-1.226,-1.2135,-1.1955,-1.1806,-1.1619,-1.1619,-1.1619,-1.1603,-1.1297,-1.1231,-1.1138,-1.0843,-1.0721,-1.0721,-1.0721,-1.0721,-1.0721,-1.0721,-1.0721,-1.0721,-1.0721,-1.0721,-1.0697,-1.0541,-1.0429,-1.0314,-1.0048,-0.9987,-0.9957,-0.9866,-0.9822,-0.9822,-0.9822,-0.9822,-0.9822,-0.9822,-0.9822,-0.9822,-0.9822,-0.9822,-0.9822,-0.9822,-0.9744,-0.9585,-0.934,-0.9286,-0.913,-0.8832,-0.8817,-0.8885,-0.8885,-0.8885,-0.8885,-0.8885,-0.8885,-0.8821,-0.8723,-0.8662,-0.853,-0.8337,-0.8221,-0.8147,-0.7992,-0.7988,-0.8237,-0.8676,-0.846,-0.8059,-0.7494,0.0,0.0,0.0,0.0,0.0,0.0,0.0,0.0,0.0,0.0,0.0,0.0,0.0,0.0,0.0,0.0,0.0,0.0,0.0,0.0,0.0,0.0,0.0,0.0,0.0,0.0,0.0,0.0,0.0,0.0,0.0,0.0,0.0,0.0,-0.186,-0.6098,-0.6337,-0.8208,-1.2343,-1.2501,-1.2501,-1.2501,-1.2501,-1.2355,-1.2135,-1.2135,-1.1904,-1.1619,-1.1619,-1.1619,-1.1603,-1.1297,-1.1231,-1.1138,-1.0843,-1.0721,-1.0721,-1.0721,-1.0721,-1.0721,-1.0721,-1.0721,-1.0721,-1.0721,-1.0721,-1.0697,-1.0548,-1.05,-1.0443,-1.0085,-0.9994,-0.996,-0.9866,-0.9822,-0.9822,-0.9822,-0.9822,-0.9822,-0.9822,-0.9822,-0.9822,-0.9822,-0.9822,-0.9822,-0.9822,-0.9819,-0.9724,-0.9432,-0.9381,-0.9279,-0.8929,-0.8885,0.0,-0.8885,-0.8885,-0.8885,-0.8885,-0.8885,-0.8821,-0.8716,-0.8567,-0.8421,-0.8323,-0.8123,-0.7988,-0.7988,-0.7988,-0.8627,-0.9899,-0.9626,-0.8843,-0.76,0.0,0.0,0.0,0.0,0.0,0.0,0.0,0.0,0.0,0.0,0.0,0.0,0.0,0.0,0.0,0.0,0.0,0.0,0.0,0.0,0.0,0.0,0.0,0.0,0.0,0.0,0.0,0.0,0.0,0.0,0.0,0.0,0.0,0.0,-0.1837,-0.6102,-0.6338,-0.8201,-1.2347,-1.2501,-1.2501,-1.2501,-1.2501,-1.2355,-1.2135,-1.2135,-1.1904,-1.1619,-1.1619,-1.1619,-1.1603,-1.1297,-1.1231,-1.1138,-1.0843,-1.0721,-1.0721,-1.0721,-1.0721,-1.0721,-1.0721,-1.0721,-1.0721,-1.0721,-1.0721,-1.0714,-1.067,-1.0656,-1.0602,-1.0307,-1.0215,-1.0161,-0.9897,-0.9822,-0.9822,-0.9822,-0.9822,-0.9822,-0.9822,-0.9822,-0.9822,-0.9822,-0.9822,-0.9822,-0.9822,-0.9737,-0.9605,-0.9415,-0.9381,-0.9279,-0.8929,-0.8885,0.0,-0.8885,-0.8885,-0.8885,-0.8885,-0.8885,-0.8832,-0.8567,-0.8506,-0.8374,-0.8119,-0.8012,-0.7988,-0.7988,-0.7988,-0.8187,-0.8528,-0.8374,-0.8028,0.0,0.0,0.0,0.0,0.0,0.0,0.0,0.0,0.0,0.0,0.0,0.0,0.0,0.0,0.0,0.0,0.0,0.0,0.0,0.0,0.0,0.0,0.0712,0.1319,0.1266,0.1277,0.1292,0.1316,0.1327,0.0943,0.0079,0.0,0.0,0.0,0.0,-0.1862,-0.6176,-0.6306,-0.8247,-1.244,-1.2535,-1.2501,-1.2501,-1.2501,-1.2355,-1.2135,-1.2135,-1.1904,-1.1619,-1.1619,-1.1619,0.0,-1.1297,-1.1231,-1.1138,-1.0843,-1.0721,0.0,0.0,0.0,0.0,0.0,-1.0721,-1.0721,-1.0721,-1.0721,-1.0721,-1.0721,-1.0721,-1.0666,-1.0371,-1.028,-1.0215,-0.9907,-0.9822,-0.9822,-0.9822,-0.9822,-0.9822,-0.9822,-0.9822,-0.9822,-0.9822,-0.9774,-0.9734,-0.9734,0.0,0.0,-0.9313,-0.9344,-0.9208,-0.8919,-0.8885,-0.8885,-0.8885,-0.8885,-0.8885,-0.8885,-0.8885,-0.8842,-0.8598,-0.852,0.0,0.0,0.0,-0.7988,-0.7988,-0.8531,0.0,0.0,0.0,0.0,0.0,0.0,0.0,0.0,-0.996,-1.031,0.0,0.0,0.0,0.0,0.0,0.0,0.0,0.0,0.0,0.0,0.0,0.0,0.0,0.0,0.0,0.0,0.1885,0.3258,0.3751,0.3773,0.3636,0.3127,0.313,0.2281,0.0239,0.0,0.0,0.0,0.0,-0.1874,-0.6245,0.0,0.0,0.0,0.0,-1.2501,-1.2501,-1.2501,-1.2355,-1.2135,-1.2135,-1.1904,-1.1619,-1.1619,-1.1619,-1.1603,-1.1297,-1.1231,-1.1138,-1.0843,-1.0721,-1.0721,-1.0721,-1.0721,-1.0721,-1.0721,-1.0721,0.0,0.0,0.0,0.0,-1.0721,-1.0707,-1.0643,-1.0365,-1.0266,-1.0195,-0.9903,-0.9822,-0.9822,-0.9822,-0.9822,-0.9822,-0.9822,-0.9822,-0.9822,-0.9822,-0.971,-0.9608,-0.9608,-0.9473,-0.9313,-0.9231,-0.921,-0.9103,-0.8905,-0.8885,0.0,-0.8885,-0.8885,-0.8885,-0.8885,0.0,0.0,-0.8699,-0.856,-0.8414,-0.8255,-0.8116,-0.7988,-0.7988,-0.9167,-0.9217,-0.8038,-0.9167,-0.9167,-0.7988,-0.7988,-0.7998,-0.8062,-0.8946,-0.8905,0.0,0.0,0.0,0.0,0.0,0.0,0.0,0.0,0.0,0.0,0.0,0.0,0.0,0.0,0.0,0.224,0.2832,0.427,0.7665,0.8202,0.6937,0.352,0.313,0.2274,0.0236,0.0,0.0,0.0,0.0,-0.1912,-0.6241,-0.6413,0.0,-1.2574,-1.2579,-1.2501,-1.2501,-1.2501,-1.2355,-1.2135,0.0,0.0,-1.1619,-1.1619,-1.1619,-1.1603,-1.1297,-1.1231,-1.1138,-1.0843,-1.0721,-1.0721,-1.0721,-1.0721,-1.0721,-1.0721,-1.0721,-1.0721,-1.0721,-1.0721,-1.0721,-1.0721,-1.0636,-1.0504,-1.0334,-1.0195,0.0,-0.9873,-0.9822,-0.9822,-0.9822,-0.9822,-0.9822,-0.9822,-0.9822,-0.9822,-0.9822,-0.971,-0.9608,-0.9608,-0.9388,-0.9245,-0.9214,-0.921,-0.9103,-0.8905,-0.8885,-0.8885,-0.8885,-0.8885,-0.8885,-0.8885,-0.8885,-0.8825,-0.855,-0.8499,-0.8367,-0.8102,-0.8005,-0.7988,-0.7988,-0.8237,-0.8283,-0.7988,-0.8237,-0.8237,-0.7988,-0.7988,-0.8102,-0.8225,-0.8447,-0.8451,0.0,0.0,0.0,0.0,0.0,0.0,0.0,0.0,0.0,0.0,0.0,-0.4327,-0.4171,0.0,-0.0513,0.2611,0.4026,0.5773,0.8972,1.0271,0.9374,0.5162,0.4693,0.3453,0.0317,0.0,0.0,0.0,0.0,-0.1916,-0.6395,-0.6372,-0.831,-1.2685,-1.262,-1.2501,-1.2501,-1.243,-1.2284,-1.2135,-1.1982,-1.1833,-1.1619,-1.1619,-1.1575,-1.1494,-1.1263,-1.1121,-1.1036,-1.0812,-1.0721,-1.0721,-1.0721,-1.0721,-1.0721,-1.0721,-1.0721,-1.0721,-1.0721,-1.0721,-1.0721,-1.0721,-1.0616,-1.0466,-1.0324,-1.0171,-0.9957,-0.9866,-0.9822,-0.9822,-0.9822,-0.9822,-0.9822,-0.9822,-0.9822,-0.9822,-0.9822,-0.9649,-0.9496,-0.9496,-0.9252,-0.9045,-0.9045,-0.9045,-0.9022,-0.8895,-0.8885,-0.8885,-0.8885,-0.8885,-0.8885,-0.8885,-0.8814,-0.8764,-0.8608,-0.8462,-0.8279,-0.8005,-0.7988,-0.7988,-0.7988,-0.7988,-0.7988,-0.7988,-0.7988,-0.7988,-0.7988,-0.8676,-0.8761,-0.8323,-0.9002,-0.9031,0.0,0.0,0.0,0.0,0.0,0.0,0.0,-0.7461,-0.8483,-0.8792,-0.7589,-0.6442,-0.6217,-0.4496,-0.1878,0.1916,0.431,0.6416,0.8505,1.0233,0.992,0.6098,0.6022,0.4634,0.0398,0.0,0.0,0.0,0.0,-0.1741,-0.5826,-0.6214,-0.8163,-1.2189,-1.2409,-1.2501,-1.2501,-1.2362,-1.2213,-1.2135,-1.1904,-1.1755,-1.1619,-1.1619,-1.1535,-1.1382,-1.1199,-1.1036,-1.0826,-1.0772,-1.0721,-1.0721,-1.0721,-1.0721,-1.0721,-1.0721,-1.0721,-1.0721,-1.0721,-1.0721,-1.0721,-1.0721,-1.0599,-1.0429,-1.0317,-1.0151,-0.9916,-0.9856,-0.9822,-0.9822,-0.9822,-0.9822,-0.9822,-0.9822,-0.9822,-0.9815,-0.9785,-0.9571,-0.9371,-0.9344,-0.912,-0.8885,-0.8885,-0.8885,-0.8885,-0.8885,-0.8885,-0.8885,-0.8885,-0.8885,-0.8885,-0.8885,-0.8801,-0.8686,-0.8628,-0.8381,-0.8174,-0.7995,-0.7988,-0.7988,-0.7988,-0.7988,-0.7988,-0.7988,-0.7988,-0.8137,-0.8382,-0.946,-0.9552,-0.8674,-0.9848,-0.9764,-0.6631,-0.8187,-0.9319,-0.9481,-0.9585,-0.985,0.0,-1.0352,-1.0485,-1.0845,-0.9572,-0.8383,-0.8335,-0.5456,-0.2375,0.0,0.2091,0.4218,0.6332,0.688,0.6098,0.3756,0.5162,0.4619,0.0393,0.0,0.0,0.0,0.0,-0.1071,-0.3666,-0.5351,-0.7408,-0.9887,-1.1644,-1.2501,-1.2501,-1.2362,-1.2213,-1.2135,-1.1904,-1.1755,-1.1619,-1.1619,-1.1535,-1.1375,-1.1094,-1.082,-1.0744,-1.0727,-1.0721,-1.0721,-1.0721,-1.0721,-1.0721,-1.0721,-1.0721,-1.0721,-1.0721,-1.0721,-1.0721,-1.0721,-1.0531,-1.03,-1.0287,-1.0076,-0.9842,-0.9825,-0.9822,-0.9822,-0.9822,-0.9822,-0.9822,-0.9822,-0.9822,-0.9785,-0.9659,-0.95,-0.934,-0.9262,-0.9049,-0.8885,-0.8885,-0.8885,-0.8885,-0.8885,-0.8885,-0.8885,-0.8885,-0.8885,-0.8885,-0.8885,-0.8801,-0.8604,-0.8343,-0.8163,-0.8008,-0.7992,-0.7988,-0.7988,-0.7988,-0.7988,-0.7988,-0.7988,-0.7988,-0.8577,-0.9756,-0.9948,-0.9991,-1.002,-1.0252,-0.9764,-0.8337,-0.9601,-1.0144,-1.0382,-1.0439,-1.0784,-1.2256,-1.2629,-1.2986,-1.4328,-1.4169,-1.3142,-1.0834,-0.9257,-0.6448,-0.0936,0.0703,0.2505,0.584,0.6283,0.5474,0.3365,0.3912,0.3288,0.0314,0.0,0.0,0.0,0.0,-0.0974,-0.3244,-0.5232,-0.7276,-0.9547,-1.1479,-1.2501,-1.2501,-1.2274,-1.2125,-1.2132,-1.182,-1.1677,-1.1619,-1.1619,-1.1487,-1.1243,-1.0945,-1.0778,-1.0721,-1.0721,-1.0721,-1.0721,-1.0721,-1.0721,-1.0721,-1.0721,-1.0721,-1.0721,-1.0721,-1.0721,-1.0721,-1.0721,-1.0521,-1.028,-1.028,-1.0066,-0.9822,-0.9822,-0.9822,-0.9822,-0.9822,-0.9822,-0.9822,-0.9822,-0.9822,-0.9781,-0.9639,-0.949,-0.9337,-0.9241,-0.9035,-0.8885,-0.8885,-0.8885,-0.8885,-0.8885,-0.8885,-0.8885,-0.8885,-0.8885,-0.8851,-0.8815,-0.8669,-0.8492,-0.834,-0.813,-0.7988,-0.7988,-0.7988,-0.7988,-0.7988,-0.7988,-0.7988,-0.7988,-0.8775,-0.946,-0.9998,-1.1551,-1.1623,-1.0326,-1.1176,-1.0602,-0.8833,-1.033,-1.1148,-1.1315,-1.1728,-1.2522,-1.4086,-1.4553,-1.516,-1.6658,-1.7263,-1.6453,-1.3147,-1.222,-0.99,-0.3617,-0.1652,0.0157,0.3177,0.4188,0.4006,0.2429,0.2271,0.1646,0.0157,0.0,0.0,0.0,0.0,-0.0721,-0.2331,-0.4873,-0.7073,-0.863,-1.1143,-1.2481,-1.2444,-1.2189,-1.204,-1.1993,-1.1742,-1.1619,-1.1616,-1.1531,-1.1372,-1.1148,-1.085,-1.0721,-1.0721,-1.0721,-1.0721,-1.0721,-1.0721,-1.0721,-1.0721,-1.0721,-1.0721,-1.0721,-1.0721,-1.0721,-1.0721,-1.0721,-1.0521,-1.028,-1.028,-1.0066,-0.9822,-0.9822,-0.9822,-0.9822,-0.9822,-0.9822,-0.9822,-0.9822,-0.9822,-0.9771,-0.9588,-0.9459,-0.9323,-0.913,-0.9011,-0.8885,-0.8885,-0.8885,-0.8885,-0.8885,-0.8885,-0.8885,-0.8885,-0.8885,-0.8824,-0.8726,-0.8611,-0.8486,-0.8391,-0.8191,-0.8102,-0.8102,-0.8012,-0.7988,-0.7988,-0.7988,-0.8187,-0.8528,-0.9509,-1.0337,-1.1068,-1.3066,-1.3133,-1.149,-1.2174,-1.1402,-0.7658,-1.0289,-1.3033,-1.3046,-1.4406,-1.5779,-1.6003,-1.629,-1.6578,-1.679,-1.7188,-1.6932,-1.4937,-1.3208,-1.1343,-0.9431,-0.5684,-0.3026,-0.3107,-0.1197,0.0159,0.0079,0.0079,0.0079,0.0,0.0,0.0,0.0,0.0,0.0,-0.0079,-0.4039,-0.6336,-0.6417,-1.0391,-1.2437,-1.2298,-1.2142,-1.1986,-1.1837,-1.1691,-1.1619,-1.1609,-1.1311,-1.1241,-1.1148,-1.085,-1.0721,-1.0721,-1.0721,-1.0721,-1.0721,-1.0721,-1.0721,-1.0721,-1.0721,-1.0721,-1.0721,-1.0721,-1.0721,-1.0721,-1.0721,-1.0521,-1.028,-1.028,-1.0066,-0.9822,-0.9822,-0.9822,-0.9822,-0.9822,-0.9822,-0.9822,-0.9822,-0.9822,-0.9741,-0.9452,-0.9384,-0.9293,-0.8946,-0.8888,-0.8885,-0.8885,-0.8885,-0.8885,-0.8885,-0.8885,-0.8885,-0.8885,-0.8885,-0.8824,-0.8726,-0.8706,-0.8642,-0.8489,-0.8343,-0.8313,-0.8313,-0.8123,-0.7988,-0.7988,-0.7988,-0.8627,-0.9899,-0.9998,-1.1258,-1.3782,-1.4125,-1.4254,-1.4179,-1.3236,-1.2087,-1.0193,-1.2087,-1.3388,-1.4673,-1.5405,-1.6299,-1.7713,-1.8917,-2.021,-2.1562,-2.1985,-2.1617,-2.0027,-1.7398,-1.4547,-1.1609,-0.9056,-0.6444,-0.3585,-0.2649,-0.1683,-0.0157,-0.1185,0.0,0.0,0.0,0.0,0.0,0.0,0.0,0.0,-0.4007,-0.6281,-0.6334,-1.0311,-1.2433,-1.2291,-1.2138,-1.1982,-1.183,-1.1687,-1.1565,-1.146,-1.1257,-1.1111,-1.1009,-1.0809,-1.0721,-1.0721,-1.0721,-1.0721,-1.0721,-1.0721,-1.0721,-1.0721,-1.0721,-1.0721,-1.0721,-1.0721,-1.0721,-1.0721,-1.0721,-1.0521,-1.028,-1.028,-1.0066,-0.9822,-0.9822,-0.9822,-0.9822,-0.9822,-0.9822,-0.9822,-0.9822,-0.9822,-0.9741,-0.9445,-0.9381,-0.9293,-0.8942,-0.8885,-0.8885,-0.8885,-0.8885,-0.8885,-0.8885,-0.8885,-0.8885,-0.8885,-0.8885,-0.8865,-0.8811,-0.8771,-0.8689,-0.8638,-0.8496,-0.8411,-0.8411,-0.8272,-0.8194,-0.8194,-0.8096,-0.8627,-0.9948,-1.0828,-1.2134,-1.3926,-1.5075,-1.4757,-1.3055,-1.2846,-1.1634,-1.0998,-1.3503,-1.5248,-1.6502,-1.7275,-1.8098,-1.9441,-2.0631,-2.1839,-2.3106,-2.3508,-2.2887,-2.0663,-1.855,-1.6037,-1.2594,-1.0615,-0.8243,-0.4799,-0.3711,-0.2739,-0.1266,-0.2381,-0.3489,-0.4151,0.0,0.0,-0.2273,-0.1568,-0.1411,-0.2194,-0.5552,-0.7425,-0.7425,-1.0658,-1.2355,-1.221,-1.2057,-1.1904,-1.1752,-1.1664,-1.1538,-1.1385,-1.1233,-1.1084,-1.0873,-1.0785,-1.0721,-1.0721,-1.0721,-1.0721,-1.0721,-1.0721,-1.0721,-1.0721,-1.0721,-1.0721,-1.0721,-1.0721,-1.0721,-1.0721,-1.0721,-1.0555,-1.0348,-1.0297,-1.0103,-0.989,-0.9836,-0.9822,-0.9822,-0.9822,-0.9822,-0.9822,-0.9822,-0.9822,-0.9754,-0.9513,-0.9418,-0.931,-0.9062,-0.8974,-0.8885,-0.8885,-0.8885,-0.8885,-0.8885,-0.8885,-0.8885,-0.8885,-0.8885,-0.8885,-0.8885,-0.8797,-0.8791,-0.8791,-0.8652,-0.8564,-0.8564,-0.8381,-0.8323,-0.8323,-0.8123,-0.8627,-0.9948,-1.1263,-1.2571,-1.3926,-1.5078,-1.4795,-1.3176,-1.249,-1.1311,-1.0384,-1.4637,-1.8504,-1.8697,-1.9992,-2.1235,-2.1109,-2.1387,-2.1717,-2.1717,-2.1809,-2.0923,-1.7502,-1.6747,-1.5723,-1.2709,-1.0612,-0.8743,-0.6925,-0.494,-0.3554,-0.3271,-0.3506,-0.444,-0.6268,-0.6555,0.0,-0.6651,0.0,-0.4146,-0.6178,-0.8283,-0.9371,-0.9364,-1.1275,-1.2213,-1.2125,-1.1898,-1.1752,-1.1619,-1.1609,-1.1528,-1.1372,-1.1219,-1.1073,-1.086,-1.0782,-1.0721,-1.0721,-1.0721,-1.0721,-1.0721,-1.0721,-1.0721,-1.0721,-1.0721,-1.0721,-1.0721,-1.0721,-1.0721,-1.0721,-1.0721,-1.0612,-1.0456,-1.0321,-1.0168,-0.9947,-0.9863,-0.9822,-0.9822,-0.9822,-0.9822,-0.9822,-0.9822,-0.9822,-0.9781,-0.9639,-0.949,-0.9337,-0.9241,-0.9035,-0.8885,-0.8885,-0.8885,-0.8885,-0.8885,-0.8885,-0.8885,-0.8885,-0.8885,-0.8885,-0.8885,-0.8885,-0.8885,-0.8885,-0.8804,-0.8723,-0.8723,-0.8452,-0.834,-0.8333,-0.8133,-0.8638,-0.9948,-1.117,-1.2479,-1.3776,-1.4196,-1.4394,-1.431,-1.2156,-1.1051,-1.5046,-1.8211,-2.0651,-2.1957,-2.2632,-2.2647,-2.1355,-2.216,-2.3083,-2.3083,-2.2097,-2.1034,-2.032,-1.7151,-1.4574,-1.4148,-1.2768,-1.1073,-0.899,-0.8384,-0.7483,-0.582,-0.692,-0.8104,-0.8714,-0.8662,-0.9327,0.0,-0.7579,-0.571,-0.6256,-0.8283,-0.9336,-0.9249,-1.1225,-1.2162,-1.1894,-1.1745,-1.1653,-1.1616,-1.1504,-1.1369,-1.1216,-1.107,-1.0921,-1.0775,-1.0738,-1.0721,-1.0721,-1.0721,-1.0721,-1.0721,-1.0721,-1.0721,-1.0721,-1.0721,-1.0721,-1.0721,-1.0721,-1.0721,-1.0721,-1.0721,-1.0544,-1.0327,-1.029,-1.0093,-0.9873,-0.9832,-0.9822,-0.9822,-0.9822,-0.9822,-0.9822,-0.9822,-0.9822,-0.9781,-0.9639,-0.949,-0.9337,-0.9241,-0.9035,-0.8885,-0.8885,-0.8885,-0.8885,-0.8885,-0.8885,-0.8885,-0.8885,-0.8885,-0.8885,-0.8885,-0.8885,-0.8885,-0.8885,-0.8848,-0.8824,-0.8824,-0.8703,-0.8547,-0.8431,-0.8289,-0.8805,-0.9953,-1.0342,-1.1116,-1.2431,-1.2833,-1.2546,-1.1479,-1.1196,-1.0511,-1.8181,-2.1244,-2.3237,-2.3559,-2.3574,-2.3139,-2.1481,-2.1265,-2.1357,-2.1357,-1.9992,-1.8547,-1.7973,-1.5624,-1.3653,-1.3391,-1.2799,-1.1692,-0.9672,-0.9611,-0.9198,-0.7963,-0.8828,-0.9843,-1.0815,-1.0875,-1.1314,0.0,-0.9529,-0.8048,-0.8983,-1.0156,-1.072,-1.0591,-1.1608,-1.2043,-1.1742,-1.166,-1.1586,-1.1518,-1.1433,-1.1277,-1.1067,-1.0917,-1.0796,-1.0721,0.0,-1.0721,-1.0721,-1.0721,-1.0721,-1.0721,-1.0721,-1.0721,-1.0721,-1.0721,-1.0721,-1.0721,-1.0721,-1.1178,-1.1699,-1.0982,-1.1076,-1.137,-1.0548,-1.0114,-0.9845,-0.9839,-0.9822,-0.9822,-0.9822,-0.9822,-0.9822,-0.9822,-0.9822,-0.9798,-0.972,-0.9534,-0.9317,-0.91,-0.8994,-0.8885,-0.8885,-0.8885,-0.8885,-0.8885,-0.8885,-0.8885,-0.8885,-0.8885,-0.8885,-0.8885,-0.8885,-0.8885,-0.8885,-0.8885,-0.8885,-0.8885,-0.8794,-0.8642,-0.8489,-0.8347,-0.8549,-0.9122,-0.9702,-1.0342,-1.1072,-1.1475,-1.1212,-1.04,-1.0239,-0.9699,-2.0335,-2.377,-2.5924,-2.4294,-2.3938,-2.3442,-2.1538,-1.9712,-1.8465,-1.85,-1.6926,-1.5041,-1.3578,-1.3215,-1.2782,-1.1756,-1.187,-1.1598,-1.0028,-0.9932,-0.9943,-0.9861,-0.9929,-1.0675,-1.2383,-1.2634,-1.2644,-1.2511,-1.0856,-1.0624,-1.2424,-1.2484,-1.2396,-1.2233,-1.2084,-1.1881,-1.1619,-1.1619,-1.1541,-1.1392,-1.1369,-1.1216,-1.088,-1.086,-1.0779,-1.0721,0.0,0.0,-1.0721,-1.0721,-1.0721,-1.0721,-1.0721,-1.0721,-1.0721,-1.0721,-1.0721,-1.0721,-1.0982,-1.2219,-1.332,-1.1347,-1.1747,-1.2718,-1.0859,-1.0141,-0.993,-0.9859,-0.9822,-0.9822,-0.9822,-0.9822,-0.9822,-0.9822,-0.9822,-0.9822,-0.9822,-0.9588,-0.9293,-0.8942,-0.8885,-0.8885,-0.8885,-0.8885,-0.8885,-0.8885,-0.8885,-0.8885,-0.8885,-0.8885,-0.8885,-0.8885,-0.8885,-0.8885,-0.8885,-0.8885,-0.8885,-0.8885,-0.8794,-0.8642,-0.8489,-0.8347,-0.8197,-0.7992,-0.9191,-0.9793,-0.9793,-1.0049,-1.0168,-1.0124,-0.9287,-0.8885,-2.2052,-2.5461,-2.7623,-2.5984,-2.5558,-2.477,-2.1783,-1.9695,-1.8374,-1.8465,-1.5895,-1.3522,-1.336,-1.2229,-1.1433,-1.1545,-1.187,-1.2097,-1.195,-1.2096,-1.217,-1.2092,-1.2063,-1.2187,-1.2603,-1.26,-1.2528,0.0,-1.2189,-1.2111,-1.2501,-1.2389,-1.2199,-1.1918,-1.1772,-1.167,-1.1619,-1.1619,-1.1541,-1.1389,-1.1263,-1.1111,-1.0877,-1.0816,-1.0744,-1.0721,0.0,0.0,-1.0721,-1.0721,-1.0721,-1.0721,-1.0721,-1.0721,-1.0721,-1.0721,-1.0721,-1.0916,-1.2347,-1.397,-1.4916,-1.1601,-1.1641,-1.2603,-1.0628,-0.992,-0.9852,-0.9829,-0.9822,-0.9822,-0.9822,-0.9822,-0.9822,-0.9822,-0.9822,-0.9822,-0.9822,-0.9588,-0.9293,-0.8942,-0.8885,-0.8885,-0.8885,-0.8885,-0.8885,-0.8885,-0.8885,-0.8885,-0.8885,-0.8885,-0.8885,-0.8885,-0.8885,-0.8885,-0.8885,-0.8885,-0.8885,-0.8885,-0.8794,-0.8642,-0.8489,-0.8347,-0.8197,-0.7992,-0.8416,-0.8584,-0.8584,-0.8839,-0.8987,-0.899,-0.891,-0.8885,-2.3833,-2.7151,-2.9098,-2.6651,-2.5976,-2.4883,-2.0605,-1.827,-1.6688,-1.5844,-1.3611,-1.182,-1.1925,-1.1372,-1.1043,-1.1335,-1.1569,-1.1843,-1.222,-1.2335,-1.244,-1.2593,-1.2545,-1.2528,-1.2603,-1.2545,-1.2501,-1.2501,0.0,-1.2393,-1.2393,-1.2176,-1.1982,-1.1837,-1.1694,-1.1619,-1.1619,-1.1541,-1.1423,-1.127,-1.1121,-1.0975,-1.0759,-1.0755,-1.0721,-1.0721,-1.0721,0.0,-1.0721,-1.0721,-1.0721,-1.0721,-1.0721,-1.0721,-1.0721,-1.0721,-1.0721,-1.085,-1.1633,-1.3713,-1.5295,-1.1698,-1.2227,-1.3858,-1.1879,-1.0548,-0.9822,-0.9822,-0.9822,-0.9822,-0.9822,-0.9822,-0.9822,-0.9822,-0.9822,-0.9778,-0.9625,-0.9483,-0.9293,-0.8942,-0.8885,-0.8885,-0.8885,-0.8885,-0.8885,-0.8885,-0.8885,-0.8885,-0.8885,-0.8885,-0.8885,-0.8885,-0.8885,-0.8885,-0.8885,-0.8885,-0.8885,-0.8885,-0.8814,-0.8723,-0.8489,-0.8418,-0.8309,-0.8163,-0.8235,-0.8357,-0.8381,-0.8604,-0.871,-0.8713,-0.8811,-0.8885,-2.5059,-2.8119,-2.9658,-2.6712,-2.5741,-2.4224,-1.9412,-1.6932,-1.513,-1.3429,-1.1653,-1.049,-1.0643,-1.0795,-1.0958,-1.1134,-1.129,-1.1535,-1.1955,-1.2067,-1.2196,-1.243,-1.2484,-1.2501,-1.2501,-1.2501,0.0,-1.2501,0.0,0.0,-1.2193,-1.1962,-1.1816,-1.1786,-1.1677,-1.1603,-1.1569,-1.145,-1.1301,-1.1118,-1.1002,-1.0799,-1.0721,-1.0721,-1.0721,-1.0721,-1.0721,0.0,0.0,-1.0721,-1.0721,-1.0721,-1.0721,-1.0721,-1.0721,-1.0721,-1.0721,-1.0721,-1.1111,-1.3062,-1.4906,-1.2398,-1.3363,-1.5035,-1.2613,-1.0912,-0.9822,-0.9822,-0.9822,-0.9822,-0.9822,-0.9822,-0.9822,-0.9822,-0.9822,-0.9741,-0.9445,-0.9381,-0.9293,-0.8942,-0.8885,-0.8885,-0.8885,-0.8885,-0.8885,-0.8885,-0.8885,-0.8885,-0.8885,-0.8885,-0.8885,-0.8885,-0.8885,-0.8885,-0.8885,-0.8885,-0.8885,-0.8885,-0.8851,-0.8781,-0.854,-0.8499,-0.8428,-0.8371,-0.8347,-0.8421,-0.853,-0.8682,-0.876,-0.8764,-0.8828,-0.8885,-2.5059,-2.7323,-2.8239,-2.647,-2.4901,-2.2842,-1.9112,-1.6873,-1.5042,-1.3299,-1.1553,-1.0344,-1.0487,-1.0636,-1.0833,-1.1118,-1.129,-1.1497,-1.1809,-1.2091,-1.2281,-1.2305,-1.2423,-1.2501,-1.2501,-1.2501,-1.2501,-1.2501,0.0,0.0,-1.1881,-1.1847,-1.1772,-1.1643,-1.1626,-1.1552,-1.1413,-1.1399,-1.125,-1.09,-1.0887,-1.0799,-1.0721,-1.0721,-1.0721,-1.0721,0.0,0.0,0.0,-1.0721,-1.0721,-1.0721,-1.0721,-1.0721,-1.0721,-1.0721,-1.0721,-1.0916,-1.2479,-1.3259,-1.3683,-1.4702,-1.5254,-1.4849,-1.1262,-1.0002,-0.9822,-0.9822,-0.9822,-0.9822,-0.9822,-0.9822,-0.9822,-0.9822,-0.9822,-0.9741,-0.9445,-0.9381,-0.9293,-0.8942,-0.8885,-0.8885,-0.8885,-0.8885,-0.8885,-0.8885,-0.8885,-0.8885,-0.8885,-0.8885,-0.8885,-0.8885,-0.8885,-0.8885,-0.8885,-0.8885,-0.8885,-0.8885,-0.8808,-0.872,-0.8693,-0.8557,-0.8476,-0.8462,-0.8601,-0.8676,-0.8689,-0.879,-0.8861,-0.8861,-0.8875,-0.8885,-2.3563,-2.5741,-2.6591,-2.4962,-2.4054,-2.2357,-1.7655,-1.6012,-1.4701,-1.1905,-1.0781,-1.0351,-1.0585,-1.068,-1.0758,-1.0877,-1.0948,-1.109,-1.1389,-1.1613,-1.185,-1.2121,-1.2284,-1.286,-1.4164,0.0,-1.2298,-1.2111,0.0,0.0,-1.1711,-1.1704,-1.1677,-1.1619,-1.1531,-1.1453,-1.1392,-1.1212,-1.0998,-1.088,-1.0789,-1.0778,-1.0721,-1.0721,-1.0721,-1.0721,0.0,0.0,0.0,-1.0721,-1.0721,-1.0721,-1.0721,-1.0721,-1.0721,-1.0721,-1.0721,-1.0784,-1.1501,-1.2413,-1.3246,-1.2788,-1.3208,-1.3613,-1.1941,-1.067,-0.9822,-0.9822,-0.9822,-0.9822,-0.9822,-0.9822,-0.9822,-0.9822,-0.9822,-0.9741,-0.9445,-0.9381,-0.9293,-0.8942,-0.8885,-0.8885,-0.8885,-0.8885,-0.8885,-0.8885,-0.8885,-0.8885,-0.8885,-0.8885,-0.8885,-0.8885,-0.8885,-0.8885,-0.8885,-0.8885,-0.8885,-0.8885,-0.8824,-0.8808,-0.8713,-0.8652,-0.8618,-0.8618,-0.8679,-0.8757,-0.8849,-0.8854,-0.8885,-0.8885,-0.8885,-0.8885,-2.1208,-2.2912,-2.3454,-2.2374,-2.1707,-2.0186,-1.5805,-1.4794,-1.3964,-1.0915,-1.0314,-1.0409,-1.0616,-1.069,-1.0721,-1.0721,-1.0758,-1.086,-1.107,-1.1267,-1.1525,-1.1887,-1.2466,-1.3274,-1.4382,-1.3105,-1.2115,0.0,0.0,0.0,0.0,-1.1552,-1.1552,-1.1552,-1.1447,-1.1348,-1.126,-1.1053,-1.0857,-1.0813,-1.0772,-1.0721,-1.0721,-1.0721,-1.0721,-1.0721,0.0,0.0,0.0,-1.0721,-1.0721,-1.0721,-1.0721,-1.0721,-1.0721,-1.0721,-1.0721,-1.0721,-1.0721,-1.1501,-1.2347,-1.1111,-1.1351,-1.2067,-1.1818,-1.083,-0.9822,-0.9822,-0.9822,-0.9822,-0.9822,-0.9822,-0.9822,-0.9822,-0.9822,-0.9741,-0.9445,-0.9381,-0.9293,-0.8942,-0.8885,-0.8885,-0.8885,-0.8885,-0.8885,-0.8885,-0.8885,-0.8885,-0.8885,-0.8885,-0.8885,-0.8885,-0.8885,-0.8885,-0.8885,-0.8885,-0.8885,-0.8885,-0.8885,-0.8834,-0.8781,-0.8777,-0.8777,-0.8777,-0.8777,-0.8832,-0.8885,-0.8885,-0.8885,-0.8885,-0.8885,-0.8885,-1.7926,-1.8447,-1.8447,-1.8447,-1.7215,-1.5465,-1.3589,-1.3101,-1.2607,-1.0686,-1.0392,-1.049,-1.0493,-1.0619,-1.0721,-1.0721,-1.0779,-1.088,-1.0884,-1.1206,-1.145,-1.1606,-1.3107,-1.367,-1.2257,-1.2142,-1.1999,0.0,0.0,0.0,0.0,-1.1392,-1.1392,-1.1392,-1.1392,-1.125,-1.0887,-1.0884,-1.0806,-1.0721,-1.0721,-1.0721,-1.0721,-1.0721,-1.0721,0.0,0.0,0.0,0.0,-1.0721,-1.0721,-1.0721,-1.0721,-1.0721,-1.0721,-1.0721,-1.0721,-1.0721,-1.0721,-1.0721,-1.0717,-1.0721,-1.0521,-1.0343,-1.034,-1.0063,-0.9822,-0.9822,-0.9822,-0.9822,-0.9822,-0.9822,-0.9822,-0.9822,-0.9822,-0.9741,-0.9445,-0.9381,-0.9293,-0.8942,-0.8885,-0.8885,-0.8885,-0.8885,-0.8885,-0.8885,-0.8885,-0.8885,-0.8885,-0.8885,-0.8885,-0.8885,-0.8885,-0.8885,-0.8885,-0.8885,-0.8885,-0.8885,-0.8885,-0.8885,-0.8881,-0.8881,-0.8881,-0.8881,-0.8881,-0.8881,-0.8885,-0.8885,-0.8885,-0.8885,-0.8885,-0.8885,-1.5919,-1.6486,-1.6503,-1.6416,-1.6066,-1.5248,-1.3405,-1.3016,-1.258,-1.0816,-1.046,-1.0524,-1.0629,-1.0687,-1.0721,-1.0721,-1.0761,-1.0792,-1.0792,-1.1046,-1.129,-1.1447,-1.458,-1.5963,0.0,0.0,0.0,0.0,0.0,0.0,0.0,-1.1294,-1.1236,-1.1236,-1.1141,-1.1043,-1.0884,-1.0779,-1.0768,-1.0721,-1.0721,-1.0721,-1.0721,-1.0721,0.0,0.0,0.0,0.0,0.0,-1.0721,-1.0721,-1.0721,-1.0721,-1.0721,-1.0721,-1.0721,-1.0721,-1.0721,-1.0721,-1.0721,-1.0704,-1.0599,-1.0436,-1.0259,-1.0154,-0.9981,-0.9822,-0.9822,-0.9822,-0.9822,-0.9822,-0.9822,-0.9822,-0.9822,-0.9822,-0.9768,-0.9578,-0.9456,-0.9323,-0.9123,-0.9008,-0.8885,-0.8885,-0.8885,-0.8885,-0.8885,-0.8885,-0.8885,-0.8885,-0.8885,-0.8885,-0.8885,-0.8885,-0.8885,-0.8885,-0.8885,-0.8885,-0.8885,-0.8885,-0.8885,-0.8885,-0.8885,-0.8885,-0.8885,-0.8885,-0.8885,-0.8885,-0.8885,-0.8885,-0.8885,-0.8885,-0.8885,-1.3193,-1.3609,-1.3671,-1.3551,-1.3662,-1.3438,-1.2194,-1.2082,-1.1843,-1.076,-1.0538,-1.0609,-1.0704,-1.0721,-1.0721,-1.0721,-1.0721,-1.0721,-1.0721,-1.1525,-1.276,-1.4233,-1.6315,0.0,0.0,0.0,0.0,0.0,0.0,0.0,0.0,-1.1134,-1.1056,-1.0999,-1.0965,-1.0853,-1.0863,-1.0768,-1.0721,-1.0721,-1.0721,-1.0721,-1.0721,-1.0721,0.0,0.0,0.0,0.0,0.0,-1.0721,-1.0721,-1.0721,-1.0721,-1.0721,-1.0721,-1.0721,-1.0721,-1.0711,-1.0653,-1.0633,-1.0609,-1.046,-1.0314,-1.0164,-0.9947,-0.9897,-0.9822,-0.9822,-0.9822,-0.9822,-0.9822,-0.9822,-0.9822,-0.9822,-0.9822,-0.9781,-0.9639,-0.9534,-0.9405,-0.9251,-0.9083,-0.9001,-0.8892,-0.8885,-0.8885,-0.8885,-0.8885,-0.8885,-0.8885,-0.8885,-0.8885,-0.8885,-0.8885,-0.8885,-0.8885,-0.8885,-0.8885,-0.8885,-0.8885,-0.8885,-0.8885,-0.8885,-0.8885,-0.8885,-0.8885,-0.8885,-0.8885,-0.8885,-0.8885,-0.8885,-0.8885,-0.8885,0.0,-1.0256,-1.0259,-1.0249,-1.0354,-1.0426,-1.0293,-1.0483,0.0,-1.0507,-1.0588,-1.069,-1.0704,-1.077,-1.0836,-1.0717,-1.0784,-1.085,-1.085,-1.2704,-1.5295,-1.8825,-1.8174,0.0,-1.9488,0.0,0.0,0.0,0.0,0.0,0.0,-1.087,-1.0799,-1.0724,-1.0793,-1.0796,-1.0721,-1.0721,-1.0721,-1.0721,-1.0721,-1.0721,-1.0721,-1.0721,0.0,0.0,0.0,0.0,0.0,-1.0721,-1.0721,-1.0721,-1.0721,-1.0721,-1.0721,-1.0721,-1.0714,-1.0683,-1.0541,-1.0483,-1.0453,-1.031,-1.0161,-0.9947,-0.9866,-0.9822,-0.9822,-0.9822,-0.9822,-0.9822,-0.9822,-0.9822,-0.9822,-0.9822,-0.9822,-0.9785,-0.9652,-0.9615,-0.9523,-0.9299,-0.9224,-0.9166,-0.8977,-0.8892,-0.8885,-0.8885,-0.8885,-0.8885,-0.8885,-0.8885,-0.8885,-0.8885,-0.8885,-0.8885,-0.8885,-0.8885,-0.8885,-0.8885,-0.8885,-0.8885,-0.8885,-0.8885,-0.8885,-0.8885,-0.8885,-0.8885,-0.8885,-0.8885,-0.8885,-0.8885,-0.8885,-0.8885,-0.992,0.0,-1.0076,-0.9958,-1.0042,-1.0081,0.0,-1.0249,-1.0375,-1.0337,-1.0358,-1.0419,-1.0524,-1.1636,-1.2129,-1.0895,-1.1828,-1.2672,-1.2672,-1.4539,-1.638,-1.7605,-1.8721,-1.9467,-1.9556,0.0,0.0,0.0,0.0,0.0,0.0,-1.0769,-1.0758,-1.0721,-1.0755,-1.0758,-1.0721,-1.0721,-1.0721,-1.0721,-1.0721,-1.0721,-1.0721,-1.0721,0.0,0.0,0.0,0.0,-1.0721,-1.0721,-1.0721,-1.0721,-1.0721,-1.0721,-1.0721,-1.0721,-1.0646,-1.0541,-1.0504,-1.0422,-1.0304,-1.0151,-0.994,-0.9869,-0.9832,-0.9822,-0.9822,-0.9822,-0.9822,-0.9822,-0.9822,-0.9822,-0.9822,-0.9822,-0.9822,-0.9812,-0.9778,-0.9686,-0.9588,-0.9517,-0.9313,-0.92,-0.9166,-0.9011,-0.8885,-0.8885,-0.8885,-0.8885,-0.8885,-0.8885,-0.8885,-0.8885,-0.8885,-0.8885,-0.8885,-0.8885,-0.8885,-0.8885,-0.8885,-0.8885,-0.8885,-0.8885,-0.8885,-0.8885,-0.8885,-0.8885,-0.8885,-0.8885,-0.8885,-0.8885,-0.8885,-0.8885,-0.9822,-0.9872,-0.9967,-0.9883,-1.0042,-1.0137,-1.0004,-1.0168,-1.0259,-1.0188,-1.0232,-1.0324,-1.0466,-1.1257,-1.1888,-1.1863,-1.2672,-1.3936,-1.5662,-1.6939,-1.8111,-1.9243,-2.0323,-2.0884,0.0,0.0,0.0,0.0,0.0,0.0,0.0,-1.0765,-1.0721,-1.0721,-1.0721,-1.0721,-1.0721,-1.0721,-1.0721,-1.0721,-1.0721,-1.0721,-1.0721,-1.0721,0.0,0.0,0.0,0.0,-1.0721,-1.0721,-1.0721,-1.0721,-1.0721,-1.0721,-1.0711,-1.0639,-1.0561,-1.0473,-1.0337,-1.0192,-1.0056,-0.9971,-0.9886,-0.9822,-0.9822,-0.9822,-0.9822,-0.9822,-0.9822,-0.9822,-0.9822,-0.9822,-0.9822,-0.9822,-0.9822,-0.9822,-0.9822,-0.9761,-0.9666,-0.953,-0.9371,-0.9272,-0.9079,-0.8991,-0.8885,-0.8885,-0.8885,-0.8885,-0.8885,-0.8885,-0.8885,-0.8885,-0.8885,-0.8885,-0.8885,-0.8885,-0.8885,-0.8885,-0.8885,-0.8885,-0.8885,-0.8885,-0.8885,-0.8885,-0.8885,-0.8885,-0.8885,-0.8885,-0.8885,-0.8885,-0.8885,-0.8885,-0.9815,-0.9872,-0.998,-0.9957,-1.0315,-1.0517,-1.0049,-1.0301,-1.0482,-1.0039,-1.012,-1.0259,-1.0429,-1.0905,-1.1603,-1.2706,-1.3325,-1.4819,-1.8134,-1.9031,-1.9924,-2.1411,-2.1852,0.0,0.0,0.0,0.0,0.0,0.0,0.0,0.0,-1.0721,-1.0721,-1.0721,-1.0721,-1.0721,-1.0721,-1.0721,-1.0721,-1.0721,-1.0721,-1.0721,-1.0721,-1.0721,-1.0721,0.0,0.0,0.0,-1.0721,-1.0721,-1.0721,-1.0721,-1.0721,-1.0707,-1.067,-1.0538,-1.0463,-1.0385,-1.011,-0.9869,-0.9822,-0.9822,-0.9822,-0.9822,-0.9822,-0.9822,-0.9822,-0.9822,-0.9822,-0.9822,-0.9822,-0.9822,-0.9822,-0.9822,-0.9822,-0.9822,-0.9822,-0.9822,-0.9741,-0.9469,-0.9398,-0.9293,-0.9018,-0.8898,-0.8885,-0.8885,-0.8885,-0.8885,-0.8885,-0.8885,-0.8885,-0.8885,-0.8885,-0.8885,-0.8885,-0.8885,-0.8885,-0.8885,-0.8885,-0.8885,-0.8885,-0.8885,-0.8885,-0.8885,-0.8885,-0.8885,-0.8885,-0.8885,-0.8885,-0.8885,-0.8885,-0.8885,-0.9788,-0.9872,-0.9957,-0.9886,-1.0945,-1.1695,-1.0192,-1.0898,-1.1513,-1.0103,-0.9876,-0.9978,-1.0259,-1.2754,-1.3934,-1.152,-1.3582,-1.5734,-1.642,0.0,-2.0792,-1.973,0.0,0.0,0.0,0.0,0.0,0.0,0.0,0.0,0.0,0.0,-1.0721,-1.0721,-1.0721,-1.0721,-1.0721,-1.0721,-1.0721,-1.0721,-1.0721,-1.0721,-1.0721,-1.0721,-1.0721,0.0,0.0,-1.0721,-1.0721,-1.0721,-1.0721,-1.0721,-1.0721,-1.0639,-1.0524,-1.05,-1.0331,-1.0031,-0.9917,-0.9839,-0.9822,-0.9822,-0.9822,-0.9822,-0.9822,-0.9822,-0.9822,-0.9822,-0.9822,-0.9822,-0.9822,-0.9822,-0.9822,-0.9822,-0.9822,-0.9822,-0.9822,-0.9822,-0.9771,-0.9605,-0.9469,-0.9323,-0.9207,-0.9018,-0.8885,-0.8885,-0.8885,-0.8885,-0.8885,-0.8885,-0.8885,-0.8885,-0.8885,-0.8885,-0.8885,-0.8885,-0.8885,-0.8885,-0.8885,-0.8885,-0.8885,-0.8885,-0.8885,-0.8885,-0.8885,-0.8885,-0.8885,-0.8885,-0.8885,-0.8885,-0.8885,-0.8885,-0.9564,-0.9751,-0.9849,-0.9839,-1.1282,-1.2829,-1.2985,-1.3503,-1.3798,-1.3001,-1.2882,-1.2965,-1.318,-1.4552,-1.5476,-1.5022,-1.7082,-1.8746,-1.88,-2.0259,-2.1036,0.0,0.0,0.0,0.0,0.0,0.0,0.0,0.0,0.0,0.0,0.0,-1.0721,0.0,-1.0721,-1.0721,-1.0721,-1.0721,-1.0721,-1.0721,-1.0721,-1.0721,-1.0721,-1.0721,-1.0721,-1.0721,0.0,-1.0721,-1.0721,-1.0721,-1.0721,-1.0711,-1.0629,-1.0555,-1.0473,-1.031,-1.0114,-0.9856,-0.9846,-0.9822,-0.9822,-0.9822,-0.9822,-0.994,-1.0838,-1.0479,-1.0001,-1.0838,-1.0479,-0.9822,-0.9822,-0.9822,-0.9822,-0.9822,-0.9822,-0.9822,-0.9822,-0.9761,-0.9663,-0.9513,-0.9361,-0.9211,-0.9062,-0.8981,-0.8885,-0.8885,-0.8885,-0.8885,-0.8885,-0.8885,-0.8885,-0.8885,-0.8885,-0.8885,-0.8885,-0.8885,-0.8885,-0.8885,-0.8885,-0.8885,-0.8885,-0.8885,-0.8885,-0.8885,-0.8885,-0.8885,-0.8885,-0.8885,-0.8885,-0.8885,-0.8885,-0.8885,-0.9371,-0.9776,-1.0204,-1.04,-1.1705,-1.3177,-1.4229,-1.49,-1.5262,-1.494,-1.5204,-1.5514,-1.5666,-1.5747,-1.6477,-1.8732,-1.9871,-2.0652,-2.1046,-2.1109,-2.1109,0.0,0.0,0.0,0.0,0.0,0.0,0.0,0.0,0.0,0.0,0.0,-1.0721,0.0,-1.0721,-1.0721,-1.0721,-1.0721,-1.0721,-1.0721,-1.0721,-1.0721,-1.0721,-1.0721,-1.0721,-1.0721,-1.0721,-1.0721,-1.0721,-1.0721,-1.07,-1.0656,-1.0538,-1.0449,-1.0354,-1.0031,-0.9859,-0.9822,-0.9822,-0.9822,-0.9822,-0.9822,-1.0061,-1.06,-1.1856,-1.1318,-1.06,-1.1856,-1.102,-0.9822,-0.9822,-0.9822,-0.9822,-0.9822,-0.9822,-0.9812,-0.9778,-0.9686,-0.9554,-0.9364,-0.9292,-0.9163,-0.8908,-0.8885,-0.8885,-0.8885,-0.8885,-0.8885,-0.8885,-0.8885,-0.8885,-0.8885,-0.8885,-0.8885,-0.8885,-0.8885,-0.8885,-0.8885,-0.8885,-0.8885,-0.8885,-0.8885,-0.8885,-0.8885,-0.8885,-0.8885,-0.8885,-0.8885,-0.8885,-0.8885,-0.8885,-0.8885,-0.9344,-1.0366,-1.1487,-1.206,-1.2312,-1.2151,-1.095,-1.2959,-1.4646,-1.3363,-1.4394,-1.5514,-1.5666,-1.5811,-1.6996,-2.0392,-1.9674,-1.9221,-2.0849,0.0,0.0,0.0,0.0,0.0,0.0,0.0,0.0,0.0,0.0,0.0,0.0,0.0,0.0,-1.0721,0.0,-1.0721,-1.0721,-1.0721,-1.0721,-1.0721,-1.0721,-1.0721,-1.0721,-1.0721,-1.0721,-1.0721,-1.0721,-1.0721,-1.0721,-1.0721,-1.0636,-1.0507,-1.0493,-1.0324,-1.0,-0.9897,-0.9829,-0.9822,-0.9822,-0.9822,-0.9822,-0.9822,-1.0838,-1.2037,-1.2157,-1.2097,-1.2037,-1.2157,-1.102,-0.9822,-0.9822,-0.9822,-0.9822,-0.9822,-0.9822,-0.9785,-0.9652,-0.9615,-0.952,-0.9282,-0.9217,-0.9163,-0.8908,-0.8885,-0.8885,-0.8885,-0.8885,-0.8885,-0.8885,-0.8885,-0.8885,-0.8885,-0.8885,-0.8885,-0.8885,-0.8885,-0.8885,-0.8885,-0.8885,-0.8885,-0.8885,-0.8885,-0.8885,-0.8885,-0.8885,-0.8885,-0.8885,-0.8885,-0.8885,-0.8885,-0.8885,-0.8885,-0.9311,-1.1175,-1.3133,-1.2351,-1.3258,-1.448,-1.4998,-1.6172,-1.7213,-1.7851,-1.8539,-1.9016,-1.9051,-1.9091,-1.9546,-2.0912,-2.0526,-2.0329,-2.0976,0.0,0.0,0.0,0.0,0.0,0.0,0.0,0.0,0.0,0.0,0.0,0.0,0.0,0.0,-1.0582,0.0,-1.0534,-1.0446,-1.0534,-1.0578,-1.0578,-1.0673,-1.0721,-1.0721,-1.0721,-1.0721,-1.0721,-1.0721,-1.0721,-1.0714,-1.0619,-1.0544,-1.0473,-1.0287,-1.009,-0.9839,-0.9842,-0.9822,-0.9822,-0.9822,-0.9822,-0.9822,-0.9822,-1.0899,-1.2393,-1.3407,-1.2988,-1.2547,-1.4363,-1.2335,-0.971,-0.9798,-0.9822,-0.9822,-0.9822,-0.9754,-0.9676,-0.9622,-0.9459,-0.935,-0.9231,-0.9083,-0.9001,-0.8892,-0.8885,-0.8885,-0.8885,-0.8885,-0.8885,-0.8885,-0.8885,-0.8885,-0.8885,-0.8885,-0.8885,-0.8885,-0.8885,-0.8885,-0.8885,-0.8885,-0.8885,-0.8885,-0.8885,-0.8885,-0.8885,-0.8885,-0.8885,-0.8885,-0.8885,-0.8885,-0.8885,-0.8885,-0.8885,-1.0702,-1.2636,-1.4635,-1.3194,-1.4416,-1.6375,-1.7775,-1.8191,-1.8698,-2.0011,-2.0716,-2.1109,-2.1109,-2.1109,-2.1109,0.0,-2.1109,-2.1109,0.0,0.0,0.0,0.0,0.0,0.0,0.0,0.0,0.0,0.0,0.0,0.0,0.0,0.0,0.0,0.0,0.0,-1.0378,-1.0283,-1.0378,-1.0426,-1.0426,-1.0531,-1.0605,-1.0646,-1.0602,-1.0582,-1.0582,-1.0582,-1.0582,-1.0571,-1.047,-1.0395,-1.0327,-1.0011,-0.9852,-0.9822,-0.9822,-0.9822,-0.9822,-0.9822,-0.9822,-0.9822,-0.9822,-1.1257,-1.3172,-1.4242,-1.4133,-1.3981,-1.593,-1.3456,-1.0196,-1.0301,-1.0035,-0.9683,-0.9683,-0.9608,-0.9523,-0.9476,-0.9357,-0.9197,-0.9093,-0.9008,-0.8885,-0.8885,-0.8885,-0.8885,-0.8885,-0.8885,-0.8885,-0.8885,-0.8885,-0.8885,-0.8885,-0.8885,-0.8885,-0.8885,-0.8885,-0.8885,-0.8885,-0.8885,-0.8885,-0.8885,-0.8885,-0.8885,-0.8885,-0.8885,-0.8885,-0.8885,-0.8885,-0.8885,-0.8885,-0.8885,-0.8885,-1.3699,-1.4983,-1.6076,-1.4892,-1.5837,-1.7233,-1.7942,-1.8197,-1.8315,-1.8517,-1.9871,-2.1109,-2.1109,-2.1109,-2.1109,-2.1109,-2.1109,0.0,0.0,0.0,0.0,0.0,0.0,0.0,0.0,0.0,0.0,0.0,0.0,0.0,0.0,0.0,0.0,0.0,0.0,0.0,-1.0276,-1.0276,-1.028,-1.028,-1.028,-1.0351,-1.0483,-1.0344,-1.028,-1.028,-1.028,-1.028,-1.028,-1.028,-1.0185,-0.997,-0.988,-0.9822,-0.9822,-0.9822,-0.9822,-0.9822,-0.9822,-0.9822,-0.9822,-0.9822,-1.1976,-1.4604,-1.4599,-1.5498,-1.6523,-1.6517,-1.4088,-1.1478,-1.1532,-1.0455,-0.9378,-0.9381,-0.9381,-0.9337,-0.9245,-0.9207,-0.9166,-0.8964,-0.8885,-0.8885,-0.8885,-0.8885,-0.8885,-0.8885,-0.8885,-0.8885,-0.8885,-0.8885,-0.8885,-0.8885,-0.8885,-0.8885,-0.8885,-0.8885,-0.8885,-0.8885,-0.8885,-0.8885,-0.8885,-0.8885,-0.8885,-0.8885,-0.8885,-0.8885,-0.8885,-0.8885,-0.8885,-0.8885,-0.8885,-0.8885,-1.3733,-1.5716,-1.7818,-1.6436,-1.7844,-1.9643,-1.9873,-1.9082,-1.8698,-2.0074,-2.0722,-2.1109,-2.1109,-2.1109,-2.1109,-2.1109,-2.1109,0.0,0.0,0.0,0.0,0.0,0.0,0.0,0.0,0.0,0.0,0.0,0.0,0.0,0.0,0.0,0.0,0.0,0.0,0.0,-0.9958,-1.0063,-1.0117,-1.0117,-1.0117,-1.0195,-1.0341,-1.03,-1.028,-1.028,-1.028,-1.028,-1.0273,-1.0164,-1.0025,-0.9883,-0.9839,-0.9822,-0.9822,-0.9822,-0.9822,-0.9822,-0.9822,-0.9822,-0.9822,-0.9822,-1.1976,-1.4574,-1.4407,-1.5357,-1.6624,-1.7339,-1.4582,-1.1591,-1.251,-1.0941,-0.9123,-0.933,-0.9357,-0.9265,-0.9221,-0.9076,-0.8991,-0.8892,-0.8885,-0.8885,-0.8885,-0.8885,-0.8885,-0.8885,-0.8885,-0.8885,-0.8885,-0.8885,-0.8885,-0.8885,-0.8885,-0.8885,-0.8885,-0.8885,-0.8885,-0.8885,-0.8885,-0.8885,-0.8885,-0.8885,-0.8885,-0.8885,-0.8885,-0.8885,-0.8885,-0.8885,-0.8885,-0.8885,-0.8885,-0.8885,-1.5765,-1.7359,-1.9061,-1.8265,-1.9438,-2.0708,-2.0822,-2.0134,-1.9732,-2.0879,-2.1109,-2.1109,-2.1109,-2.1109,0.0,-2.1109,0.0,0.0,0.0,0.0,0.0,0.0,0.0,0.0,0.0,0.0,0.0,0.0,0.0,0.0,0.0,0.0,0.0,0.0,0.0,0.0,-0.9822,-0.9852,-0.9896,-0.9896,-0.9896,-1.0008,-1.0097,-1.0097,-1.0097,-1.0097,-1.0097,-1.0097,-1.009,-0.9998,-0.9903,-0.9822,-0.9822,-0.9822,-0.9822,-0.9822,-0.9822,-0.9822,-0.9822,-0.9822,-0.9822,-0.9822,-1.1923,-1.4437,-1.4237,-1.5573,-1.7241,-1.781,-1.5134,-1.228,-1.3083,-1.1105,-0.8929,-0.9164,-0.9137,-0.9066,-0.9066,-0.8998,-0.8885,-0.8885,-0.8885,-0.8885,-0.8885,-0.8885,-0.8885,-0.8885,-0.8885,-0.8885,-0.8885,-0.8885,-0.8885,-0.8885,-0.8885,-0.8885,-0.8885,-0.8885,-0.8885,-0.8885,-0.8885,-0.8885,-0.8885,-0.8885,-0.8885,-0.8885,-0.8885,-0.8885,-0.8885,-0.8885,-0.8885,-0.8885,-0.8885,-0.8885,-1.8635,-1.9272,-1.9793,-2.0114,-2.0454,-2.0782,-2.1049,-2.1109,-2.1109,-2.1109,-2.1109,-2.1109,-2.1109,-2.1109,-2.1102,0.0,0.0,0.0,0.0,0.0,0.0,0.0,0.0,0.0,0.0,0.0,0.0,0.0,0.0,0.0,0.0,0.0,0.0,0.0,0.0,0.0,-0.9822,-0.9822,-0.9822,0.0,-0.9822,-0.9822,-0.9822,-0.9822,-0.9822,-0.9822,-0.9822,-0.9822,-0.9822,-0.9822,-0.9822,-0.9822,-0.9822,-0.9822,-0.9822,-0.9822,-0.9822,-0.9822,-0.9822,-0.9822,-0.9819,-0.9805,-1.1772,-1.4187,-1.4147,-1.5956,-1.7982,-1.7955,-1.5719,-1.3318,-1.3318,-1.1105,-0.8885,-0.8885,-0.8885,-0.8885,-0.8885,-0.8885,-0.8885,-0.8885,-0.8885,-0.8885,-0.8885,-0.8885,-0.8885,-0.8885,-0.8885,-0.8885,-0.8885,-0.8885,-0.8885,-0.8885,-0.8885,-0.8885,-0.8885,-0.8885,-0.8885,-0.8885,-0.8885,-0.8885,-0.8885,-0.8885,-0.8885,-0.8885,-0.8885,-0.8885,-0.8885,-0.8885,-0.8885,-0.8885,-0.8885,-0.8885,-1.8082,-1.8608,-1.9239,-1.976,-2.0454,-2.1036,-2.1096,-2.1109,-2.1109,-2.1109,-2.1109,-2.1109,-2.1109,-2.1109,-2.1036,0.0,0.0,0.0,0.0,0.0,0.0,0.0,0.0,0.0,0.0,0.0,0.0,0.0,0.0,0.0,0.0,0.0,0.0,0.0,0.0,-0.9822,-0.9822,-0.9822,-0.9822,0.0,-0.9822,-0.9822,-0.9822,-0.9822,-0.9822,-0.9822,-0.9822,-0.9822,-0.9822,-0.9822,-0.9822,-0.9822,-0.9822,-0.9822,-0.9822,-0.9822,-0.9822,-0.9822,-0.9822,-0.9822,-0.9802,-0.969,-1.1736,-1.4127,-1.3733,-1.5684,-1.7942,-1.7749,-1.5571,-1.3318,-1.3318,-1.1105,-0.8885,-0.8885,-0.8885,-0.8885,-0.8885,-0.8885,-0.8885,-0.8885,-0.8885,-0.8885,-0.8885,-0.8885,-0.8885,-0.8885,-0.8885,-0.8885,-0.8885,-0.8885,-0.8885,-0.8885,-0.8885,-0.8885,-0.8885,-0.8885,-0.8885,-0.8885,-0.8885,-0.8885,-0.8885,-0.8885,-0.8885,-0.8885,-0.8885,-0.8885,-0.8885,-0.8885,-0.8885,-0.8885,-0.8885,-0.8885,-1.7869,-1.8584,-1.9312,-2.004,-2.0668,-2.1076,-2.0935,-2.0902,-2.0862,-2.0722,-2.0802,-2.0902,-2.0902,-2.0788,0.0,0.0,0.0,0.0,0.0,0.0,0.0,0.0,0.0,0.0,0.0,0.0,0.0,0.0,0.0,0.0,0.0,0.0,0.0,0.0,-0.9822,-0.9822,-0.9822,-0.9822,-0.9822,-0.9822,-0.9822,-0.9822,-0.9822,-0.9822,-0.9822,-0.9822,-0.9822,-0.9822,-0.9822,-0.9822,-0.9822,-0.9822,-0.9822,-0.9822,-0.9822,-0.9822,-0.9778,-0.972,-0.972,-0.9673,-0.9713,-1.0332,-1.2028,-1.3958,-1.4396,-1.606,-1.7789,-1.7629,-1.553,-1.3318,-1.3318,-1.1105,-0.8885,-0.8885,-0.8885,-0.8885,-0.8885,-0.8885,-0.8885,-0.8885,-0.8885,-0.8885,-0.8885,-0.8885,-0.8885,-0.8885,-0.8885,-0.8885,-0.8885,-0.8885,-0.8885,-0.8885,-0.8885,-0.8885,-0.8885,-0.8885,-0.8885,-0.8885,-0.8885,-0.8598,-0.7861,-0.7861,-0.8198,-0.8881,-0.8885,-0.8885,-0.8885,-0.8885,-0.8885,-0.8885,-0.8885,-0.8885,-1.7729,-1.8577,-1.9492,-2.0321,-2.0742,-2.0895,-2.0655,-2.0601,-2.0528,-2.0287,-2.0428,-2.0601,-2.0601,-2.0401,0.0,0.0,0.0,0.0,0.0,0.0,0.0,0.0,0.0,0.0,0.0,0.0,0.0,0.0,0.0,0.0,-1.5074,0.0,-1.1615,-1.024,-0.994,-0.9808,-0.9785,-0.9808,-0.9808,-0.9785,-0.9808,-0.9822,-0.9822,-0.9795,-0.9798,-0.9819,-0.9795,-0.9785,-0.9781,-0.9754,-0.9744,-0.9744,-0.9744,-0.9744,-0.9744,-0.9744,-0.9673,-0.9571,-0.9571,-0.9486,-0.9606,-1.0995,-1.2402,-1.3764,-1.5212,-1.6574,-1.7582,-1.7582,-1.5689,-1.3588,-1.3372,-1.1324,-0.921,-0.8937,-0.8885,-0.8885,-0.8885,-0.8885,-0.8885,-0.8885,-0.8885,-0.8885,-0.8885,-0.8885,-0.8885,-0.8885,-0.8885,-0.8885,-0.8885,-0.8885,-0.8885,-0.8885,-0.8885,-0.8885,-0.8885,-0.8885,-0.8885,-0.8885,-0.8654,-0.7974,-0.6732,-0.645,-0.6901,-0.8143,-0.8371,-0.854,-0.854,-0.8768,-0.8885,-0.8885,-0.8885,-0.8885,-1.7159,-1.811,-1.9132,-1.976,-2.0134,-2.0341,-2.0301,-2.0294,-2.0281,-2.0241,-2.0267,-2.0294,-2.0294,0.0,0.0,0.0,0.0,0.0,0.0,0.0,0.0,0.0,0.0,0.0,0.0,0.0,0.0,0.0,0.0,0.0,-1.6668,-1.382,-1.2093,-1.1916,-1.0539,-0.9764,-0.9639,-0.9758,-0.9758,-0.9639,-0.9764,-0.9822,-0.9819,-0.9693,-0.9703,-0.9815,-0.969,-0.9639,-0.9629,-0.9496,-0.9439,-0.9439,-0.9439,-0.9439,-0.9439,-0.9439,-0.9429,-0.9412,-0.9412,-0.9398,-0.9585,-1.0904,-1.2288,-1.3733,-1.505,-1.6471,-1.7582,-1.7582,-1.6393,-1.4824,-1.3642,-1.2077,-1.0457,-0.921,-0.8885,-0.8885,-0.8885,-0.8885,-0.8885,-0.8885,-0.8885,-0.8885,-0.8885,-0.8885,-0.8885,-0.8885,-0.8885,-0.8885,-0.8885,-0.8885,-0.8885,-0.8885,-0.8885,-0.8885,-0.8885,-0.8885,-0.8885,-0.8885,-0.7692,-0.6901,-0.6729,-0.5496,-0.4882,-0.5105,-0.6337,-0.7011,-0.7011,-0.8257,-0.8885,-0.8885,-0.8885,-0.8885,-1.7239,-1.7896,-1.8597,-1.9366,-1.9773,-1.9993,-1.9993,-1.9993,-1.9947,-1.978,-1.9746,-1.98,0.0,0.0,0.0,0.0,0.0,0.0,0.0,0.0,0.0,0.0,0.0,0.0,0.0,0.0,0.0,0.0,0.0,-1.7693,-1.675,-1.4641,-1.2999,-1.2116,-1.0436,-0.9544,-0.9483,-0.9544,-0.9544,-0.9483,-0.9544,-0.9574,-0.9574,-0.951,-0.9561,-0.9693,-0.9547,-0.9483,-0.9476,-0.9408,-0.9381,-0.9381,-0.9381,-0.9381,-0.9381,-0.9381,-0.9327,-0.9309,-0.9309,-0.9201,-0.9511,-1.1687,-1.2864,-1.3777,-1.5992,-1.7094,-1.7582,-1.7582,-1.6552,-1.5091,-1.3642,-1.2186,-1.0726,-0.9265,-0.8885,-0.8885,-0.8885,-0.8885,-0.8885,-0.8885,-0.8885,-0.8885,-0.8885,-0.8885,-0.8885,-0.8885,-0.8885,-0.8885,-0.8885,-0.8885,-0.8885,-0.8885,-0.8885,-0.8885,-0.8885,-0.8885,-0.8885,-0.8885,-0.752,-0.6337,-0.5496,-0.401,-0.2845,-0.2007,-0.4301,-0.5862,-0.6674,-0.7351,-0.8088,-0.8885,-0.8885,-0.8885,-1.7048,-1.7462,-1.7883,-1.8704,-1.9132,-1.9392,-1.9546,-1.9519,-1.9426,0.0,-1.9199,0.0,0.0,0.0,0.0,0.0,0.0,0.0,0.0,0.0,0.0,0.0,0.0,0.0,0.0,0.0,0.0,0.0,0.0,-1.829,-1.7067,-1.5273,-1.3717,-1.2499,-1.0473,-0.9361,-0.9323,-0.9323,-0.9344,-0.9381,-0.9381,-0.9381,-0.9381,-0.934,-0.9384,-0.9486,-0.9371,-0.9323,-0.932,-0.9283,-0.9269,-0.9269,-0.9269,-0.9269,-0.9269,-0.9269,-0.9195,-0.91,-0.91,-0.9028,-0.9316,-1.1919,-1.2994,-1.375,-1.6287,-1.7312,-1.7582,-1.7582,-1.6823,-1.5524,-1.375,-1.2457,-1.1214,-0.9316,-0.8885,-0.8885,-0.8885,-0.8885,-0.8885,-0.8885,-0.8885,-0.8885,-0.8885,-0.8885,-0.8885,-0.8885,-0.8885,-0.8885,-0.8885,-0.8885,-0.8885,-0.8885,-0.8885,-0.8885,-0.8885,-0.8885,-0.8885,-0.8885,-0.752,-0.6063,-0.4562,-0.3021,-0.1514,-0.0056,-0.2188,-0.4088,-0.5573,-0.6345,-0.7238,-0.8371,-0.8712,-0.8885,-1.6253,-1.6553,-1.6921,-1.7522,-1.7909,-1.8229,-1.8844,-1.8758,-1.8631,-1.8891,-1.8731,0.0,0.0,0.0,0.0,0.0,0.0,0.0,0.0,0.0,0.0,0.0,0.0,0.0,0.0,0.0,0.0,0.0,0.0,-1.8455,-1.8399,-1.5541,-1.389,-1.3776,-1.0924,-0.931,-0.9224,-0.9221,-0.9296,-0.9381,-0.9381,-0.9381,-0.9374,-0.9286,-0.9224,-0.9231,-0.9224,-0.9221,-0.921,-0.9018,-0.8905,-0.8905,-0.8905,-0.8905,-0.8905,-0.8905,-0.8902,-0.8895,-0.8895,-0.8892,-0.9154,-1.0731,-1.2186,-1.3588,-1.5043,-1.6499,-1.7582,-1.7582,-1.7529,-1.6823,-1.4019,-1.3264,-1.2457,-0.9588,-0.8885,-0.8885,-0.8885,-0.8885,-0.8885,-0.8885,-0.8885,-0.8885,-0.8885,-0.8885,-0.8885,-0.8885,-0.8885,-0.8885,-0.8885,-0.8885,-0.8885,-0.8885,-0.8885,-0.8885,-0.8885,-0.8885,-0.8885,-0.8885,-0.752,-0.6024,-0.4548,-0.3031,-0.1514,-0.0056,-0.0168,-0.0953,-0.2467,-0.5295,-0.6732,-0.6843,-0.8257,-0.8885,-1.6192,-1.6346,-1.6573,-1.7213,-1.7528,-1.7849,-1.825,-1.8417,-1.8517,-1.8624,-1.8564,0.0,0.0,0.0,0.0,0.0,0.0,0.0,0.0,0.0,0.0,0.0,0.0,0.0,0.0,0.0,0.0,0.0,0.0,0.0,-1.8203,-1.6288,-1.4772,-1.3826,-1.1642,-1.0006,-0.9015,-0.9015,-0.9042,-0.91,-0.91,-0.91,-0.9093,-0.9039,-0.9015,-0.9015,-0.9015,-0.9015,-0.9011,-0.8905,-0.8885,-0.8885,-0.8885,-0.8885,-0.8885,-0.8885,-0.8885,-0.8885,-0.8885,-0.8885,-0.9154,-1.0621,-1.2077,-1.3534,-1.4984,-1.6446,-1.7582,-1.7582,-1.7582,-1.6935,-1.4073,-1.3318,-1.2566,-0.9588,-0.8885,-0.8885,-0.8885,-0.8885,-0.8885,-0.8885,-0.8885,-0.8885,-0.8885,-0.8885,-0.8885,-0.8885,-0.8885,-0.9265,-1.0186,-0.9482,-0.9282,-1.02,-0.9455,-0.8885,-0.8885,-0.8885,-0.8885,-0.8885,-0.752,-0.646,-0.5917,-0.4482,-0.3426,-0.2919,-0.2863,-0.2637,-0.2188,-0.4257,-0.5753,-0.6732,-0.8202,-0.8885,-1.6072,-1.6126,-1.6266,-1.6854,-1.7125,-1.7268,-1.7756,-1.7963,-1.807,-1.817,0.0,0.0,0.0,0.0,0.0,0.0,0.0,0.0,0.0,0.0,0.0,0.0,0.0,0.0,0.0,0.0,0.0,0.0,0.0,0.0,-1.7889,-1.6505,-1.4849,-1.2882,-1.1224,-0.9915,-0.8885,-0.8885,-0.8885,-0.8885,-0.8885,-0.8885,-0.8885,-0.8885,-0.8885,-0.8885,-0.8885,-0.8885,-0.8885,-0.8885,-0.8885,-0.8885,-0.8885,-0.8885,-0.8885,-0.8885,-0.8885,-0.8885,-0.8885,-0.8885,-0.9154,-1.0621,-1.2077,-1.3534,-1.4984,-1.6446,-1.7582,-1.7582,-1.7582,-1.7041,-1.4609,-1.3264,-1.1919,-0.9482,-0.8885,-0.8885,-0.8885,-0.8885,-0.8885,-0.8885,-0.8885,-0.8885,-0.8885,-0.8885,-0.9047,-0.9592,-0.9644,-0.9966,-1.0983,-1.0229,-0.9816,-1.0311,-0.9511,-0.8885,-0.8885,-0.8885,-0.8885,-0.8885,-0.7974,-0.7238,-0.6732,-0.5755,-0.4983,-0.4533,-0.4477,-0.3971,-0.2961,-0.4491,-0.5717,-0.6732,-0.8202,-0.8885,0.0,0.0,0.0,-1.654,-1.6473,-1.6543,-1.7348,0.0,-1.7266,-1.7502,0.0,0.0,0.0,0.0,0.0,0.0,0.0,0.0,0.0,0.0,0.0,0.0,0.0,0.0,0.0,0.0,0.0,0.0,0.0,-1.7595,-1.7582,-1.6174,-1.4073,-1.1269,-0.9699,-0.8885,-0.8885,-0.8885,-0.8885,-0.8885,-0.8885,-0.8885,-0.8885,-0.8885,-0.8885,-0.8885,-0.8885,-0.8885,-0.8885,-0.8885,-0.8885,-0.8885,-0.8885,-0.8885,-0.8885,-0.8885,-0.8885,-0.8885,-0.8885,-0.8937,-0.921,-1.0621,-1.2132,-1.3642,-1.499,-1.6446,-1.7582,-1.7582,-1.7582,-1.7259,-1.5743,-1.321,-1.0726,-0.9265,-0.8885,-0.8885,-0.8885,-0.8885,-0.8885,-0.8885,-0.8885,-0.8885,-0.8885,-0.8937,-0.9427,-1.0891,-1.116,-1.1147,-1.1172,-1.1122,-1.0538,-0.9096,-0.8937,-0.8885,-0.8885,-0.8885,-0.8885,-0.8885,-0.8885,-0.8257,-0.6843,-0.6787,-0.6114,-0.4659,-0.4604,-0.4604,-0.4659,-0.5998,-0.6677,-0.6732,-0.8202,-0.8885,-1.5784,0.0,0.0,0.0,0.0,0.0,0.0,0.0,-1.6854,-1.6934,0.0,0.0,0.0,0.0,0.0,0.0,0.0,0.0,0.0,0.0,0.0,0.0,0.0,0.0,0.0,0.0,0.0,0.0,-1.8077,-1.7822,-1.7595,-1.5257,-1.3534,-1.2729,-1.0241,-0.8885,-0.8885,-0.8885,-0.8885,-0.8885,-0.8885,-0.8885,-0.8885,-0.8885,-0.8885,-0.8885,-0.8885,-0.8885,-0.8885,-0.8885,-0.8885,-0.8885,-0.8885,-0.8885,-0.8885,-0.8885,-0.8885,-0.8885,-0.8885,-0.9588,-1.0566,-1.0945,-1.2778,-1.4883,-1.5257,-1.6446,-1.7582,-1.7582,-1.7582,-1.7041,-1.4556,-1.2512,-1.0726,-0.9265,-0.8885,-0.8885,-0.8885,-0.8885,-0.8885,-0.8885,-0.8885,-0.8885,-0.8885,-0.9809,-1.0621,-1.1055,-1.2023,-1.2704,-1.2705,-1.1773,-1.0924,-1.0544,-0.9559,-0.8885,-0.8885,-0.8885,-0.8885,-0.8885,-0.8885,-0.8712,-0.8312,-0.8312,-0.8088,-0.7692,-0.7689,-0.7689,-0.7689,-0.703,-0.6692,-0.6732,-0.8202,-0.8885,-1.5784,-1.5784,-1.5811,-1.5985,0.0,0.0,-1.6295,-1.64,0.0,0.0,0.0,0.0,0.0,0.0,0.0,0.0,0.0,0.0,0.0,0.0,0.0,0.0,0.0,0.0,0.0,0.0,0.0,0.0,-1.8306,-1.7856,-1.7602,-1.4883,-1.3318,-1.3318,-1.0457,-0.8885,-0.8885,-0.8885,-0.8885,-0.8885,-0.8885,-0.8885,-0.8885,-0.8885,-0.8885,-0.8885,-0.8885,-0.8885,-0.8885,-0.8885,-0.8885,-0.8885,-0.8885,-0.8885,-0.8885,-0.8885,-0.8885,-0.8885,-0.8885,-0.986,-1.1214,-1.181,-1.3534,-1.5524,-1.6121,-1.6929,-1.7582,-1.7582,-1.7582,-1.7094,-1.477,-1.3102,-1.1647,-1.0186,-0.9375,-0.8885,-0.8885,-0.8885,-0.8885,-0.8885,-0.8885,-0.8885,-0.8885,-1.0131,-1.1324,-1.1914,-1.2758,-1.3296,-1.3311,-1.2022,-1.0887,-1.0233,-0.9402,-0.8885,-0.8885,-0.8885,-0.8885,-0.8885,-0.8885,-0.8885,-0.8885,-0.8885,-0.8885,-0.8885,-0.8885,-0.8885,-0.8885,-0.8029,-0.7633,-0.7633,-0.8484,-0.8885,-1.5784,-1.5784,-1.5892,-1.6159,-1.6025,0.0,-1.6166,-1.6226,-1.6226,0.0,0.0,0.0,0.0,0.0,0.0,0.0,0.0,0.0,0.0,0.0,0.0,0.0,0.0,0.0,0.0,-2.3242,-2.2296,-2.0073,-1.8709,-1.7876,-1.7595,-1.499,-1.348,-1.3318,-1.0621,-0.9044,-0.8885,-0.8885,-0.8885,-0.8885,-0.8885,-0.8885,-0.8885,-0.8885,-0.8875,-0.8858,-0.8858,-0.8848,-0.8834,-0.8834,-0.8854,-0.8885,-0.8885,-0.8885,-0.8885,-0.8885,-0.8885,-0.8885,-0.8885,-0.997,-1.1538,-1.2891,-1.4341,-1.5902,-1.7199,-1.7582,-1.7582,-1.7582,-1.7582,-1.7252,-1.5796,-1.4341,-1.294,-1.1428,-0.997,-0.8885,-0.8885,-0.8885,-0.8885,-0.8885,-0.8885,-0.8937,-0.9099,-1.0351,-1.1864,-1.3324,-1.3531,-1.3496,-1.3329,-1.201,-1.0536,-0.904,-0.8885,-0.8885,-0.8885,-0.8885,-0.8885,-0.8885,-0.8885,-0.8885,-0.8885,-0.8885,-0.8885,-0.8885,-0.8885,-0.8885,-0.8885,-0.8885,-0.8885,-0.8885,-0.8885,-0.8885,-1.5784,-1.5784,-1.5798,-1.5899,-1.5872,0.0,-1.5905,-1.5912,-1.5912,0.0,0.0,0.0,0.0,0.0,0.0,0.0,0.0,0.0,0.0,0.0,0.0,0.0,0.0,0.0,0.0,-2.2607,-2.1059,-1.8982,-1.8104,-1.7649,-1.7589,-1.5962,-1.4449,-1.3318,-1.1592,-1.0076,-0.894,-0.8885,-0.8885,-0.8885,-0.8885,-0.8885,-0.8885,-0.8885,-0.8817,-0.8754,-0.8754,-0.8686,-0.857,-0.857,-0.8716,-0.8885,-0.8885,-0.8885,-0.8885,-0.8885,-0.8885,-0.8885,-0.8885,-1.0617,-1.294,-1.3215,-1.5043,-1.7199,-1.7523,-1.7582,-1.7582,-1.7582,-1.7582,-1.7252,-1.5796,-1.4341,-1.294,-1.1428,-0.997,-0.8885,-0.8885,-0.8885,-0.8885,-0.8885,-0.8885,-0.9265,-1.0457,-1.1914,-1.3329,-1.4756,-1.4969,-1.4582,-1.3467,-1.2018,-1.0526,-0.9044,-0.8885,-0.8885,-0.8885,-0.8885,-0.8885,-0.8885,-0.8885,-0.8885,-0.8885,-0.8885,-0.8885,-0.8885,-0.8885,-0.8885,-0.8885,-0.8885,-0.8885,-0.8885,-0.8885,-0.8885,-1.5784,-1.5784,-1.5784,-1.5784,-1.5784,0.0,0.0,-1.5784,-1.5784,-1.5784,-1.5784,0.0,0.0,0.0,0.0,0.0,0.0,0.0,0.0,0.0,0.0,0.0,0.0,0.0,0.0,-2.1773,-2.0473,-1.842,-1.8469,-1.8297,-1.7635,-1.6844,-1.5494,-1.3372,-1.1864,-1.0402,-0.894,-0.8807,-0.8825,-0.8825,-0.8747,-0.871,-0.871,-0.871,-0.8669,-0.8598,-0.8598,-0.8554,-0.8482,-0.8482,-0.857,-0.871,-0.871,-0.871,-0.871,-0.871,-0.871,-0.871,-0.871,-1.0671,-1.3146,-1.3146,-1.5152,-1.7582,-1.7582,-1.7582,-1.7582,-1.7582,-1.7582,-1.7417,-1.6717,-1.4936,-1.3102,-1.2349,-1.0511,-0.8885,-0.8885,-0.8824,-0.8825,-0.8825,-0.8825,-0.9279,-1.0819,-1.2323,-1.3511,-1.4271,-1.4335,-1.3832,-1.2386,-1.0908,-0.9739,-0.8992,-0.8814,-0.8825,-0.8825,-0.8728,-0.8712,-0.8771,-0.8826,-0.8826,-0.8885,-0.8885,-0.8885,-0.8885,-0.8885,-0.8885,-0.8885,-0.8885,-0.8885,-0.8885,-0.8885,-0.8885,-1.5784,-1.5784,-1.5784,-1.5784,-1.5784,-1.5784,0.0,0.0,0.0,-1.5784,0.0,0.0,0.0,0.0,0.0,0.0,0.0,0.0,0.0,0.0,0.0,0.0,0.0,0.0,0.0,-2.0626,-1.9866,-1.8495,-1.8836,-1.8799,-1.8042,-1.741,-1.5907,-1.3372,-1.1824,-1.035,-0.8896,-0.8743,-0.8665,-0.8665,-0.854,-0.8482,-0.8482,-0.8482,-0.8469,-0.8442,-0.8442,-0.8581,-0.8757,-0.8498,-0.855,-0.8761,-0.8563,-0.8482,-0.8482,-0.8482,-0.8482,-0.8482,-0.8482,-1.0431,-1.2912,-1.2912,-1.499,-1.7415,-1.7415,-1.7415,-1.7415,-1.7415,-1.7415,-1.7428,-1.7482,-1.5565,-1.359,-1.3362,-1.1269,-0.9258,-0.8954,-0.8798,-0.871,-0.871,-0.871,-0.928,-1.1133,-1.2481,-1.3379,-1.3639,-1.3449,-1.2758,-1.1305,-0.9834,-0.8871,-0.8844,-0.8784,-0.8699,-0.8669,-0.8557,-0.8568,-0.8681,-0.8679,-0.8654,-0.8484,-0.8484,-0.8598,-0.8881,-0.8885,-0.8885,-0.8885,-0.8885,-0.8885,-0.8885,-0.8881,-0.8881,-1.5784,-1.5784,-1.5784,-1.5784,-1.5784,-1.5784,-1.5784,0.0,-1.5784,-1.5784,0.0,0.0,0.0,0.0,0.0,0.0,0.0,0.0,0.0,0.0,0.0,0.0,0.0,0.0,0.0,0.0,0.0,-1.9749,-1.8383,-1.8018,-1.931,-1.6996,-1.4925,-1.3372,-1.1742,-1.0222,-0.8737,-0.8584,-0.8509,-0.8509,-0.8489,-0.8482,-0.8482,-0.8482,-0.8414,-0.8347,-0.8347,-0.8917,-0.9714,-0.8532,-0.8781,-0.9747,-0.884,-0.8482,-0.8482,-0.8482,-0.8482,-0.8482,-0.8482,-1.03,-1.2633,-1.2633,-1.4554,-1.6807,-1.6807,-1.6807,-1.6807,-1.6807,-1.6807,-1.6867,-1.7179,-1.6031,-1.4552,-1.3542,-1.2023,-1.0467,-0.9031,-0.8723,-0.871,-0.871,-0.871,-0.9563,-1.2322,-1.3076,-1.373,-1.4976,-1.4089,-1.2753,-1.1304,-0.9787,-0.8831,-0.875,-0.872,-0.8655,-0.852,-0.8523,-0.8537,-0.8698,-0.8679,-0.8198,-0.7011,-0.6956,-0.7578,-0.8881,-0.8885,-0.8885,-0.8885,-0.8885,-0.8885,-0.8885,-0.8768,-0.8771,-1.4513,-1.4704,-1.4848,0.0,0.0,0.0,-1.5784,0.0,-1.5784,0.0,0.0,0.0,0.0,0.0,0.0,0.0,0.0,0.0,0.0,0.0,0.0,0.0,0.0,0.0,0.0,0.0,0.0,0.0,0.0,-1.838,-1.844,-1.7305,-1.5594,-1.3372,-1.1719,-1.019,-0.871,-0.8476,-0.836,-0.836,-0.8269,-0.8225,-0.8225,-0.8225,-0.8194,-0.8187,-0.8929,-0.9581,-0.9948,-0.941,-0.9509,-0.9867,-0.8675,-0.8225,-0.8225,-0.8225,-0.8678,-0.938,-0.938,-1.1194,-1.3735,-1.4696,-1.5777,-1.6707,-1.6707,-1.6707,-1.6707,-1.6707,-1.6707,-1.6774,-1.7125,-1.5457,-1.3672,-1.3375,-1.1542,-0.96,-0.8848,-0.8638,-0.8577,-0.8577,-0.8586,-0.926,-1.1405,-1.1938,-1.2194,-1.2827,-1.2422,-1.1502,-1.0019,-0.9201,-0.8781,-0.8716,-0.8557,-0.8428,-0.8364,-0.8275,-0.8279,-0.8435,-0.7794,-0.6803,-0.5483,-0.6243,-0.7011,-0.7633,-0.8484,-0.8885,-0.8885,-0.8885,-0.8885,-0.8885,-0.8826,-0.8865,-1.3632,0.0,0.0,0.0,0.0,0.0,0.0,0.0,0.0,0.0,0.0,0.0,0.0,0.0,-1.5784,-1.5784,0.0,-1.5784,0.0,0.0,0.0,0.0,0.0,0.0,0.0,0.0,0.0,0.0,0.0,0.0,-1.8054,-1.684,-1.524,-1.3276,-1.127,-0.9685,-0.8591,-0.8336,-0.8208,-0.8208,-0.8092,-0.7988,-0.7988,-0.7988,-0.8187,-0.8577,-0.9558,-1.0194,-1.0534,-1.0534,-1.0342,-0.9899,-0.892,-0.8333,-0.7988,-0.7988,-0.8874,-0.9998,-0.9998,-1.1845,-1.4429,-1.5937,-1.6466,-1.6466,-1.6466,-1.6466,-1.6466,-1.6466,-1.6466,-1.6553,-1.6978,-1.5194,-1.3263,-1.3225,-1.1296,-0.9309,-0.8699,-0.8523,-0.848,-0.8481,-0.8477,-0.8915,-1.0134,-1.0783,-1.1092,-1.1116,-1.108,-1.0548,-0.9109,-0.8804,-0.8696,-0.8652,-0.8421,-0.8252,-0.8211,-0.8102,-0.7939,-0.7783,-0.6224,-0.5083,-0.4496,-0.5142,-0.5848,-0.6674,-0.7753,-0.8491,-0.8885,-0.8885,-0.8885,-0.8885,-0.8881,-0.8871,0.0,0.0,0.0,-1.5778,0.0,0.0,0.0,0.0,-1.5784,0.0,0.0,0.0,0.0,-1.5784,-1.5784,-1.5784,-1.5784,0.0,0.0,0.0,0.0,0.0,0.0,0.0,0.0,0.0,0.0,0.0,0.0,0.0,-1.9026,-1.5077,-1.2812,-1.2978,-1.0023,-0.8337,-0.8337,-0.8126,-0.7995,-0.7995,-0.7992,-0.7988,-0.7988,-0.7988,-0.8726,-0.9953,-0.9998,-1.0681,-1.1853,-1.1853,-1.1121,-0.9998,-0.9948,-0.9167,-0.7988,-0.7988,-0.8874,-0.9998,-0.9998,-1.1702,-1.413,-1.5417,-1.5811,-1.5811,-1.5811,-1.5811,-1.5811,-1.5811,-1.5811,-1.5992,-1.6573,-1.5588,-1.4208,-1.3247,-1.1884,-1.0384,-0.8657,-0.8402,-0.8497,-0.8507,-0.8494,-0.8574,-0.8931,-1.013,-1.108,-1.108,-1.1105,-1.0548,-0.9109,-0.8804,-0.8655,-0.8506,-0.836,-0.8211,-0.8008,-0.7992,-0.7528,-0.641,-0.3822,-0.2974,-0.444,-0.3087,-0.3745,-0.6621,-0.6747,-0.7482,-0.8885,-0.8885,-0.8885,-0.8885,-0.8768,-0.8758,0.0,0.0,-1.3644,-1.5391,0.0,0.0,0.0,0.0,0.0,0.0,0.0,0.0,0.0,-1.4555,-1.4806,-1.5683,-1.5784,-1.5784,0.0,0.0,0.0,0.0,0.0,0.0,0.0,0.0,0.0,0.0,0.0,0.0,0.0,-1.4423,-1.2628,-1.2755,-0.9848,-0.8323,-0.8323,-0.8116,-0.7988,-0.7988,-0.7988,-0.7988,-0.8038,-0.892,-0.9558,-1.0096,-1.1838,-1.2813,-1.3151,-1.2285,-1.1658,-1.1068,-0.9361,-0.8382,-0.7988,-0.7988,-0.9361,-1.1507,-1.3253,-1.4418,-1.5242,-1.5683,-1.5784,-1.5784,-1.5784,-1.5784,-1.5784,-1.5784,-1.5784,-1.5919,-1.6319,-1.47,-1.2951,-1.2775,-1.0997,-0.914,-0.8462,-0.8379,-0.8522,-0.8505,-0.8572,-0.867,-0.8855,-0.9338,-0.9669,-0.9636,-0.9592,-0.9313,-0.8842,-0.857,-0.8397,-0.8347,-0.8208,-0.8096,-0.7995,-0.7173,-0.6121,-0.4839,-0.3077,-0.1907,-0.1514,-0.1964,-0.3135,-0.5188,-0.6195,-0.7426,-0.8885,-0.8885,-0.8885,-0.8885,-0.8826,-0.8881,-1.1458,-1.2237,0.0,-1.4704,-1.4758,0.0,-1.3392,0.0,0.0,0.0,0.0,0.0,0.0,-1.359,-1.4166,-1.4997,-1.5486,-1.5784,0.0,-1.5784,0.0,0.0,0.0,-1.6112,0.0,0.0,-1.6192,-1.638,0.0,0.0,0.0,0.0,-1.24,-1.2532,-0.9724,-0.8187,-0.8187,-0.8089,-0.7988,-0.7988,-0.7988,-0.8237,-0.8726,-0.9608,-1.0534,-1.1502,-1.3151,-1.3926,-1.3824,-1.2958,-1.2042,-1.1072,-0.9361,-0.8432,-0.7988,-0.7988,-0.9653,-1.2285,-1.4908,-1.5784,-1.5784,-1.5784,-1.5784,-1.5784,-1.5784,-1.5784,-1.5784,-1.5784,-1.5784,-1.5899,-1.6192,-1.4598,-1.2812,-1.2577,-1.0763,-0.8973,-0.8415,-0.8429,-0.8495,-0.8548,-0.8653,-0.8755,-0.8872,-0.8881,-0.8826,-0.8881,-0.8828,-0.8757,-0.8788,-0.8577,-0.8428,-0.8428,-0.8245,-0.7899,-0.7338,-0.6064,-0.4718,-0.3387,-0.2053,-0.0897,-0.0056,-0.0897,-0.2129,-0.3638,-0.5144,-0.6647,-0.8143,-0.8654,-0.8885,-0.8885,-0.8885,-0.8885]}]]